<?xml version="1.0" encoding="UTF-8"?>
<gpx version="1.1" creator="https://www.youtrack.es" xsi:schemaLocation="http://www.topografix.com/GPX/1/1 http://www.topografix.com/GPX/1/1/gpx.xsd http://www.garmin.com/xmlschemas/GpxExtensions/v3 http://www.garmin.com/xmlschemas/GpxExtensionsv3.xsd http://www.garmin.com/xmlschemas/TrackPointExtension/v1 http://www.garmin.com/xmlschemas/TrackPointExtensionv1.xsd" xmlns:gpxtpx="http://www.garmin.com/xmlschemas/TrackPointExtension/v1" xmlns:gpxx="http://www.garmin.com/xmlschemas/GpxExtensions/v3" xmlns:xsi="http://www.w3.org/2001/XMLSchema-instance">
  <metadata>
    <link href="https://www.youtrack.es">
      <text>YouTrack.es</text>
    </link>
    <time>2026-05-08T13:02:41Z</time>
  </metadata>
  <trk>
    <src>https://www.youtrack.es</src>
    <link href="https://www.youtrack.es/ruta/6740-embalse-de-llauset-aproximacion-al-pico-rusell">
      <text>YouTrack.es</text>
    </link>
    <trkseg>
      <trkpt lat="42.591796" lon="0.681369">
        <ele>2336.5</ele>
        <time>2019-07-06T07:58:57Z</time>
      </trkpt>
      <trkpt lat="42.596478" lon="0.683096">
        <ele>2414.6</ele>
        <time>2019-07-06T08:14:45Z</time>
      </trkpt>
      <trkpt lat="42.602800" lon="0.675022">
        <ele>2711.6</ele>
        <time>2019-07-06T09:29:40Z</time>
      </trkpt>
      <trkpt lat="42.582262" lon="0.696247">
        <ele>2221.931</ele>
        <time>2019-07-06T07:05:42Z</time>
      </trkpt>
      <trkpt lat="42.582136" lon="0.696443">
        <ele>2221.961</ele>
        <time>2019-07-06T07:06:20Z</time>
      </trkpt>
      <trkpt lat="42.582628" lon="0.696143">
        <ele>2221.907</ele>
        <time>2019-07-06T07:07:13Z</time>
      </trkpt>
      <trkpt lat="42.582621" lon="0.696474">
        <ele>2221.908</ele>
        <time>2019-07-06T07:07:20Z</time>
      </trkpt>
      <trkpt lat="42.583200" lon="0.696663">
        <ele>2221.296</ele>
        <time>2019-07-06T07:08:30Z</time>
      </trkpt>
      <trkpt lat="42.584123" lon="0.695936">
        <ele>2208.021</ele>
        <time>2019-07-06T07:09:52Z</time>
      </trkpt>
      <trkpt lat="42.584352" lon="0.695319">
        <ele>2208.216</ele>
        <time>2019-07-06T07:10:29Z</time>
      </trkpt>
      <trkpt lat="42.584562" lon="0.693414">
        <ele>2211.890</ele>
        <time>2019-07-06T07:12:47Z</time>
      </trkpt>
      <trkpt lat="42.585315" lon="0.691460">
        <ele>2218.078</ele>
        <time>2019-07-06T07:16:17Z</time>
      </trkpt>
      <trkpt lat="42.585317" lon="0.689909">
        <ele>2220.654</ele>
        <time>2019-07-06T07:18:19Z</time>
      </trkpt>
      <trkpt lat="42.585671" lon="0.689278">
        <ele>2237.711</ele>
        <time>2019-07-06T07:20:29Z</time>
      </trkpt>
      <trkpt lat="42.585598" lon="0.688701">
        <ele>2249.294</ele>
        <time>2019-07-06T07:21:55Z</time>
      </trkpt>
      <trkpt lat="42.585764" lon="0.687956">
        <ele>2251.379</ele>
        <time>2019-07-06T07:25:33Z</time>
      </trkpt>
      <trkpt lat="42.585662" lon="0.685186">
        <ele>2209.705</ele>
        <time>2019-07-06T07:29:26Z</time>
      </trkpt>
      <trkpt lat="42.586137" lon="0.683590">
        <ele>2212.125</ele>
        <time>2019-07-06T07:31:46Z</time>
      </trkpt>
      <trkpt lat="42.587112" lon="0.681550">
        <ele>2209.508</ele>
        <time>2019-07-06T07:34:36Z</time>
      </trkpt>
      <trkpt lat="42.587092" lon="0.680831">
        <ele>2214.930</ele>
        <time>2019-07-06T07:35:40Z</time>
      </trkpt>
      <trkpt lat="42.586686" lon="0.679872">
        <ele>2225.885</ele>
        <time>2019-07-06T07:37:23Z</time>
      </trkpt>
      <trkpt lat="42.587606" lon="0.679554">
        <ele>2259.750</ele>
        <time>2019-07-06T07:41:08Z</time>
      </trkpt>
      <trkpt lat="42.587609" lon="0.679388">
        <ele>2267.334</ele>
        <time>2019-07-06T07:41:45Z</time>
      </trkpt>
      <trkpt lat="42.588230" lon="0.679418">
        <ele>2286.892</ele>
        <time>2019-07-06T07:43:56Z</time>
      </trkpt>
      <trkpt lat="42.588509" lon="0.680538">
        <ele>2316.838</ele>
        <time>2019-07-06T07:47:26Z</time>
      </trkpt>
      <trkpt lat="42.588679" lon="0.680840">
        <ele>2321.615</ele>
        <time>2019-07-06T07:48:13Z</time>
      </trkpt>
      <trkpt lat="42.589174" lon="0.681015">
        <ele>2329.138</ele>
        <time>2019-07-06T07:49:06Z</time>
      </trkpt>
      <trkpt lat="42.589253" lon="0.681362">
        <ele>2337.597</ele>
        <time>2019-07-06T07:50:09Z</time>
      </trkpt>
      <trkpt lat="42.589406" lon="0.681334">
        <ele>2339.423</ele>
        <time>2019-07-06T07:50:25Z</time>
      </trkpt>
      <trkpt lat="42.589330" lon="0.681693">
        <ele>2351.425</ele>
        <time>2019-07-06T07:51:49Z</time>
      </trkpt>
      <trkpt lat="42.589432" lon="0.681802">
        <ele>2350.808</ele>
        <time>2019-07-06T07:52:32Z</time>
      </trkpt>
      <trkpt lat="42.590153" lon="0.681630">
        <ele>2351.282</ele>
        <time>2019-07-06T07:54:10Z</time>
      </trkpt>
      <trkpt lat="42.590372" lon="0.681713">
        <ele>2346.347</ele>
        <time>2019-07-06T07:54:36Z</time>
      </trkpt>
      <trkpt lat="42.590935" lon="0.681265">
        <ele>2339.072</ele>
        <time>2019-07-06T07:55:49Z</time>
      </trkpt>
      <trkpt lat="42.592215" lon="0.681437">
        <ele>2334.586</ele>
        <time>2019-07-06T08:00:23Z</time>
      </trkpt>
      <trkpt lat="42.592806" lon="0.681327">
        <ele>2336.884</ele>
        <time>2019-07-06T08:02:11Z</time>
      </trkpt>
      <trkpt lat="42.593708" lon="0.682092">
        <ele>2351.490</ele>
        <time>2019-07-06T08:05:01Z</time>
      </trkpt>
      <trkpt lat="42.594131" lon="0.682036">
        <ele>2362.867</ele>
        <time>2019-07-06T08:06:21Z</time>
      </trkpt>
      <trkpt lat="42.594510" lon="0.682417">
        <ele>2371.710</ele>
        <time>2019-07-06T08:07:44Z</time>
      </trkpt>
      <trkpt lat="42.594904" lon="0.682204">
        <ele>2378.034</ele>
        <time>2019-07-06T08:08:37Z</time>
      </trkpt>
      <trkpt lat="42.596718" lon="0.683227">
        <ele>2414.855</ele>
        <time>2019-07-06T08:16:02Z</time>
      </trkpt>
      <trkpt lat="42.597172" lon="0.683301">
        <ele>2407.910</ele>
        <time>2019-07-06T08:16:57Z</time>
      </trkpt>
      <trkpt lat="42.598056" lon="0.682799">
        <ele>2402.508</ele>
        <time>2019-07-06T08:19:32Z</time>
      </trkpt>
      <trkpt lat="42.598160" lon="0.682590">
        <ele>2407.116</ele>
        <time>2019-07-06T08:20:23Z</time>
      </trkpt>
      <trkpt lat="42.597936" lon="0.682226">
        <ele>2414.331</ele>
        <time>2019-07-06T08:22:03Z</time>
      </trkpt>
      <trkpt lat="42.598157" lon="0.682149">
        <ele>2420.026</ele>
        <time>2019-07-06T08:22:46Z</time>
      </trkpt>
      <trkpt lat="42.598620" lon="0.681590">
        <ele>2445.380</ele>
        <time>2019-07-06T08:27:01Z</time>
      </trkpt>
      <trkpt lat="42.598378" lon="0.681436">
        <ele>2448.628</ele>
        <time>2019-07-06T08:31:57Z</time>
      </trkpt>
      <trkpt lat="42.598223" lon="0.680842">
        <ele>2461.934</ele>
        <time>2019-07-06T08:34:32Z</time>
      </trkpt>
      <trkpt lat="42.598311" lon="0.680638">
        <ele>2469.991</ele>
        <time>2019-07-06T08:35:18Z</time>
      </trkpt>
      <trkpt lat="42.598118" lon="0.680153">
        <ele>2481.224</ele>
        <time>2019-07-06T08:37:10Z</time>
      </trkpt>
      <trkpt lat="42.598309" lon="0.679534">
        <ele>2499.833</ele>
        <time>2019-07-06T08:39:43Z</time>
      </trkpt>
      <trkpt lat="42.598115" lon="0.678931">
        <ele>2515.223</ele>
        <time>2019-07-06T08:41:52Z</time>
      </trkpt>
      <trkpt lat="42.598494" lon="0.678695">
        <ele>2521.615</ele>
        <time>2019-07-06T08:43:28Z</time>
      </trkpt>
      <trkpt lat="42.599412" lon="0.679035">
        <ele>2534.608</ele>
        <time>2019-07-06T08:46:59Z</time>
      </trkpt>
      <trkpt lat="42.599574" lon="0.679248">
        <ele>2538.616</ele>
        <time>2019-07-06T08:47:26Z</time>
      </trkpt>
      <trkpt lat="42.599832" lon="0.679081">
        <ele>2545.851</ele>
        <time>2019-07-06T08:48:31Z</time>
      </trkpt>
      <trkpt lat="42.600199" lon="0.679078">
        <ele>2563.126</ele>
        <time>2019-07-06T08:50:36Z</time>
      </trkpt>
      <trkpt lat="42.600790" lon="0.678036">
        <ele>2600.150</ele>
        <time>2019-07-06T08:55:35Z</time>
      </trkpt>
      <trkpt lat="42.601050" lon="0.677989">
        <ele>2612.378</ele>
        <time>2019-07-06T08:58:49Z</time>
      </trkpt>
      <trkpt lat="42.601279" lon="0.677625">
        <ele>2623.294</ele>
        <time>2019-07-06T09:00:14Z</time>
      </trkpt>
      <trkpt lat="42.601244" lon="0.677886">
        <ele>2620.161</ele>
        <time>2019-07-06T09:03:08Z</time>
      </trkpt>
      <trkpt lat="42.600837" lon="0.678045">
        <ele>2601.134</ele>
        <time>2019-07-06T09:04:42Z</time>
      </trkpt>
      <trkpt lat="42.601449" lon="0.677461">
        <ele>2625.564</ele>
        <time>2019-07-06T09:12:36Z</time>
      </trkpt>
      <trkpt lat="42.601909" lon="0.675979">
        <ele>2652.406</ele>
        <time>2019-07-06T09:18:26Z</time>
      </trkpt>
      <trkpt lat="42.602324" lon="0.675787">
        <ele>2666.516</ele>
        <time>2019-07-06T09:20:55Z</time>
      </trkpt>
      <trkpt lat="42.602452" lon="0.675421">
        <ele>2684.808</ele>
        <time>2019-07-06T09:23:22Z</time>
      </trkpt>
      <trkpt lat="42.602626" lon="0.675489">
        <ele>2690.059</ele>
        <time>2019-07-06T09:24:16Z</time>
      </trkpt>
      <trkpt lat="42.602644" lon="0.675078">
        <ele>2705.074</ele>
        <time>2019-07-06T09:26:25Z</time>
      </trkpt>
      <trkpt lat="42.602769" lon="0.675114">
        <ele>2711.329</ele>
        <time>2019-07-06T09:27:36Z</time>
      </trkpt>
      <trkpt lat="42.602816" lon="0.674873">
        <ele>2703.323</ele>
        <time>2019-07-06T09:32:35Z</time>
      </trkpt>
      <trkpt lat="42.609743" lon="0.675135">
        <ele>2686.0</ele>
        <time>2019-07-06T11:05:27Z</time>
      </trkpt>
      <trkpt lat="42.602851" lon="0.674694">
        <ele>2658.324</ele>
        <time>2019-07-06T09:41:15Z</time>
      </trkpt>
      <trkpt lat="42.604574" lon="0.676203">
        <ele>2658.304</ele>
        <time>2019-07-06T09:56:55Z</time>
      </trkpt>
      <trkpt lat="42.604636" lon="0.676348">
        <ele>2658.314</ele>
        <time>2019-07-06T09:57:16Z</time>
      </trkpt>
      <trkpt lat="42.604679" lon="0.676366">
        <ele>2658.308</ele>
        <time>2019-07-06T09:57:38Z</time>
      </trkpt>
      <trkpt lat="42.604716" lon="0.676415">
        <ele>2658.385</ele>
        <time>2019-07-06T09:57:50Z</time>
      </trkpt>
      <trkpt lat="42.604764" lon="0.676423">
        <ele>2658.310</ele>
        <time>2019-07-06T09:58:00Z</time>
      </trkpt>
      <trkpt lat="42.604780" lon="0.676481">
        <ele>2658.365</ele>
        <time>2019-07-06T09:58:32Z</time>
      </trkpt>
      <trkpt lat="42.604819" lon="0.676515">
        <ele>2658.310</ele>
        <time>2019-07-06T09:58:59Z</time>
      </trkpt>
      <trkpt lat="42.604865" lon="0.676502">
        <ele>2658.354</ele>
        <time>2019-07-06T09:59:21Z</time>
      </trkpt>
      <trkpt lat="42.604902" lon="0.676462">
        <ele>2658.310</ele>
        <time>2019-07-06T09:59:45Z</time>
      </trkpt>
      <trkpt lat="42.604943" lon="0.676498">
        <ele>2658.394</ele>
        <time>2019-07-06T10:00:00Z</time>
      </trkpt>
      <trkpt lat="42.604988" lon="0.676532">
        <ele>2658.346</ele>
        <time>2019-07-06T10:00:16Z</time>
      </trkpt>
      <trkpt lat="42.605036" lon="0.676527">
        <ele>2658.331</ele>
        <time>2019-07-06T10:00:25Z</time>
      </trkpt>
      <trkpt lat="42.605063" lon="0.676470">
        <ele>2658.361</ele>
        <time>2019-07-06T10:00:44Z</time>
      </trkpt>
      <trkpt lat="42.605107" lon="0.676487">
        <ele>2658.307</ele>
        <time>2019-07-06T10:00:50Z</time>
      </trkpt>
      <trkpt lat="42.605148" lon="0.676460">
        <ele>2658.408</ele>
        <time>2019-07-06T10:00:54Z</time>
      </trkpt>
      <trkpt lat="42.605197" lon="0.676464">
        <ele>2657.346</ele>
        <time>2019-07-06T10:01:13Z</time>
      </trkpt>
      <trkpt lat="42.605213" lon="0.676405">
        <ele>2656.451</ele>
        <time>2019-07-06T10:01:35Z</time>
      </trkpt>
      <trkpt lat="42.605260" lon="0.676390">
        <ele>2657.896</ele>
        <time>2019-07-06T10:01:42Z</time>
      </trkpt>
      <trkpt lat="42.605306" lon="0.676405">
        <ele>2658.231</ele>
        <time>2019-07-06T10:01:52Z</time>
      </trkpt>
      <trkpt lat="42.605351" lon="0.676392">
        <ele>2659.175</ele>
        <time>2019-07-06T10:02:01Z</time>
      </trkpt>
      <trkpt lat="42.605392" lon="0.676362">
        <ele>2659.841</ele>
        <time>2019-07-06T10:02:49Z</time>
      </trkpt>
      <trkpt lat="42.605439" lon="0.676350">
        <ele>2660.535</ele>
        <time>2019-07-06T10:02:55Z</time>
      </trkpt>
      <trkpt lat="42.605487" lon="0.676376">
        <ele>2661.247</ele>
        <time>2019-07-06T10:03:03Z</time>
      </trkpt>
      <trkpt lat="42.605510" lon="0.676316">
        <ele>2658.221</ele>
        <time>2019-07-06T10:03:26Z</time>
      </trkpt>
      <trkpt lat="42.605558" lon="0.676301">
        <ele>2656.141</ele>
        <time>2019-07-06T10:03:59Z</time>
      </trkpt>
      <trkpt lat="42.605602" lon="0.676283">
        <ele>2657.005</ele>
        <time>2019-07-06T10:04:09Z</time>
      </trkpt>
      <trkpt lat="42.605647" lon="0.676269">
        <ele>2657.708</ele>
        <time>2019-07-06T10:04:19Z</time>
      </trkpt>
      <trkpt lat="42.605696" lon="0.676260">
        <ele>2659.755</ele>
        <time>2019-07-06T10:04:28Z</time>
      </trkpt>
      <trkpt lat="42.605727" lon="0.676210">
        <ele>2659.820</ele>
        <time>2019-07-06T10:04:32Z</time>
      </trkpt>
      <trkpt lat="42.605743" lon="0.676089">
        <ele>2659.375</ele>
        <time>2019-07-06T10:04:34Z</time>
      </trkpt>
      <trkpt lat="42.605747" lon="0.676010">
        <ele>2659.190</ele>
        <time>2019-07-06T10:04:35Z</time>
      </trkpt>
      <trkpt lat="42.605737" lon="0.675948">
        <ele>2659.294</ele>
        <time>2019-07-06T10:04:40Z</time>
      </trkpt>
      <trkpt lat="42.605704" lon="0.675992">
        <ele>2658.530</ele>
        <time>2019-07-06T10:04:54Z</time>
      </trkpt>
      <trkpt lat="42.605734" lon="0.676047">
        <ele>2658.834</ele>
        <time>2019-07-06T10:05:08Z</time>
      </trkpt>
      <trkpt lat="42.605775" lon="0.676003">
        <ele>2657.196</ele>
        <time>2019-07-06T10:05:25Z</time>
      </trkpt>
      <trkpt lat="42.605822" lon="0.676011">
        <ele>2655.896</ele>
        <time>2019-07-06T10:05:31Z</time>
      </trkpt>
      <trkpt lat="42.605866" lon="0.676034">
        <ele>2655.131</ele>
        <time>2019-07-06T10:05:35Z</time>
      </trkpt>
      <trkpt lat="42.605908" lon="0.676063">
        <ele>2654.124</ele>
        <time>2019-07-06T10:05:45Z</time>
      </trkpt>
      <trkpt lat="42.605961" lon="0.676056">
        <ele>2655.008</ele>
        <time>2019-07-06T10:05:56Z</time>
      </trkpt>
      <trkpt lat="42.606009" lon="0.676037">
        <ele>2655.682</ele>
        <time>2019-07-06T10:06:08Z</time>
      </trkpt>
      <trkpt lat="42.606059" lon="0.676024">
        <ele>2658.147</ele>
        <time>2019-07-06T10:06:21Z</time>
      </trkpt>
      <trkpt lat="42.606101" lon="0.676000">
        <ele>2658.862</ele>
        <time>2019-07-06T10:06:31Z</time>
      </trkpt>
      <trkpt lat="42.606083" lon="0.675930">
        <ele>2659.437</ele>
        <time>2019-07-06T10:06:38Z</time>
      </trkpt>
      <trkpt lat="42.606115" lon="0.675982">
        <ele>2664.721</ele>
        <time>2019-07-06T10:07:00Z</time>
      </trkpt>
      <trkpt lat="42.606155" lon="0.676034">
        <ele>2664.787</ele>
        <time>2019-07-06T10:07:06Z</time>
      </trkpt>
      <trkpt lat="42.606197" lon="0.676070">
        <ele>2665.011</ele>
        <time>2019-07-06T10:07:11Z</time>
      </trkpt>
      <trkpt lat="42.606243" lon="0.676055">
        <ele>2666.063</ele>
        <time>2019-07-06T10:07:20Z</time>
      </trkpt>
      <trkpt lat="42.606290" lon="0.676072">
        <ele>2665.979</ele>
        <time>2019-07-06T10:07:28Z</time>
      </trkpt>
      <trkpt lat="42.606258" lon="0.676025">
        <ele>2666.705</ele>
        <time>2019-07-06T10:07:46Z</time>
      </trkpt>
      <trkpt lat="42.606231" lon="0.675976">
        <ele>2666.525</ele>
        <time>2019-07-06T10:07:53Z</time>
      </trkpt>
      <trkpt lat="42.606262" lon="0.676025">
        <ele>2667.108</ele>
        <time>2019-07-06T10:08:07Z</time>
      </trkpt>
      <trkpt lat="42.606303" lon="0.676053">
        <ele>2667.610</ele>
        <time>2019-07-06T10:08:14Z</time>
      </trkpt>
      <trkpt lat="42.606349" lon="0.676030">
        <ele>2667.325</ele>
        <time>2019-07-06T10:08:27Z</time>
      </trkpt>
      <trkpt lat="42.606393" lon="0.676007">
        <ele>2669.320</ele>
        <time>2019-07-06T10:08:35Z</time>
      </trkpt>
      <trkpt lat="42.606439" lon="0.675998">
        <ele>2668.435</ele>
        <time>2019-07-06T10:08:40Z</time>
      </trkpt>
      <trkpt lat="42.606485" lon="0.675964">
        <ele>2669.219</ele>
        <time>2019-07-06T10:08:48Z</time>
      </trkpt>
      <trkpt lat="42.606527" lon="0.675942">
        <ele>2667.185</ele>
        <time>2019-07-06T10:10:01Z</time>
      </trkpt>
      <trkpt lat="42.606574" lon="0.675960">
        <ele>2668.389</ele>
        <time>2019-07-06T10:10:07Z</time>
      </trkpt>
      <trkpt lat="42.606622" lon="0.675974">
        <ele>2669.181</ele>
        <time>2019-07-06T10:10:12Z</time>
      </trkpt>
      <trkpt lat="42.606663" lon="0.675944">
        <ele>2671.794</ele>
        <time>2019-07-06T10:10:21Z</time>
      </trkpt>
      <trkpt lat="42.606684" lon="0.675887">
        <ele>2671.157</ele>
        <time>2019-07-06T10:10:41Z</time>
      </trkpt>
      <trkpt lat="42.606730" lon="0.675858">
        <ele>2671.322</ele>
        <time>2019-07-06T10:10:45Z</time>
      </trkpt>
      <trkpt lat="42.606776" lon="0.675845">
        <ele>2671.708</ele>
        <time>2019-07-06T10:10:48Z</time>
      </trkpt>
      <trkpt lat="42.606827" lon="0.675852">
        <ele>2671.682</ele>
        <time>2019-07-06T10:10:53Z</time>
      </trkpt>
      <trkpt lat="42.606881" lon="0.675849">
        <ele>2672.437</ele>
        <time>2019-07-06T10:10:58Z</time>
      </trkpt>
      <trkpt lat="42.606890" lon="0.675780">
        <ele>2674.352</ele>
        <time>2019-07-06T10:11:06Z</time>
      </trkpt>
      <trkpt lat="42.606857" lon="0.675715">
        <ele>2673.757</ele>
        <time>2019-07-06T10:11:09Z</time>
      </trkpt>
      <trkpt lat="42.606849" lon="0.675650">
        <ele>2674.191</ele>
        <time>2019-07-06T10:11:46Z</time>
      </trkpt>
      <trkpt lat="42.606906" lon="0.675643">
        <ele>2673.617</ele>
        <time>2019-07-06T10:11:52Z</time>
      </trkpt>
      <trkpt lat="42.606949" lon="0.675599">
        <ele>2674.111</ele>
        <time>2019-07-06T10:11:58Z</time>
      </trkpt>
      <trkpt lat="42.606981" lon="0.675545">
        <ele>2673.743</ele>
        <time>2019-07-06T10:12:01Z</time>
      </trkpt>
      <trkpt lat="42.607009" lon="0.675486">
        <ele>2673.786</ele>
        <time>2019-07-06T10:12:05Z</time>
      </trkpt>
      <trkpt lat="42.607047" lon="0.675448">
        <ele>2674.060</ele>
        <time>2019-07-06T10:12:19Z</time>
      </trkpt>
      <trkpt lat="42.607095" lon="0.675446">
        <ele>2675.826</ele>
        <time>2019-07-06T10:12:28Z</time>
      </trkpt>
      <trkpt lat="42.607106" lon="0.675384">
        <ele>2675.408</ele>
        <time>2019-07-06T10:12:40Z</time>
      </trkpt>
      <trkpt lat="42.607156" lon="0.675390">
        <ele>2677.731</ele>
        <time>2019-07-06T10:12:54Z</time>
      </trkpt>
      <trkpt lat="42.607202" lon="0.675415">
        <ele>2678.176</ele>
        <time>2019-07-06T10:13:11Z</time>
      </trkpt>
      <trkpt lat="42.607246" lon="0.675401">
        <ele>2678.871</ele>
        <time>2019-07-06T10:13:17Z</time>
      </trkpt>
      <trkpt lat="42.607292" lon="0.675418">
        <ele>2679.786</ele>
        <time>2019-07-06T10:13:22Z</time>
      </trkpt>
      <trkpt lat="42.607352" lon="0.675397">
        <ele>2680.550</ele>
        <time>2019-07-06T10:13:29Z</time>
      </trkpt>
      <trkpt lat="42.607397" lon="0.675425">
        <ele>2681.536</ele>
        <time>2019-07-06T10:13:46Z</time>
      </trkpt>
      <trkpt lat="42.607448" lon="0.675429">
        <ele>2682.880</ele>
        <time>2019-07-06T10:13:57Z</time>
      </trkpt>
      <trkpt lat="42.607493" lon="0.675410">
        <ele>2684.342</ele>
        <time>2019-07-06T10:14:07Z</time>
      </trkpt>
      <trkpt lat="42.607517" lon="0.675357">
        <ele>2684.427</ele>
        <time>2019-07-06T10:14:16Z</time>
      </trkpt>
      <trkpt lat="42.607544" lon="0.675308">
        <ele>2685.068</ele>
        <time>2019-07-06T10:14:24Z</time>
      </trkpt>
      <trkpt lat="42.607586" lon="0.675276">
        <ele>2683.614</ele>
        <time>2019-07-06T10:14:35Z</time>
      </trkpt>
      <trkpt lat="42.607625" lon="0.675231">
        <ele>2684.308</ele>
        <time>2019-07-06T10:14:41Z</time>
      </trkpt>
      <trkpt lat="42.607651" lon="0.675180">
        <ele>2684.595</ele>
        <time>2019-07-06T10:14:46Z</time>
      </trkpt>
      <trkpt lat="42.607606" lon="0.675153">
        <ele>2684.050</ele>
        <time>2019-07-06T10:14:54Z</time>
      </trkpt>
      <trkpt lat="42.607633" lon="0.675079">
        <ele>2683.595</ele>
        <time>2019-07-06T10:15:17Z</time>
      </trkpt>
      <trkpt lat="42.607650" lon="0.675010">
        <ele>2684.180</ele>
        <time>2019-07-06T10:15:20Z</time>
      </trkpt>
      <trkpt lat="42.607675" lon="0.674953">
        <ele>2684.434</ele>
        <time>2019-07-06T10:15:28Z</time>
      </trkpt>
      <trkpt lat="42.607728" lon="0.674940">
        <ele>2684.340</ele>
        <time>2019-07-06T10:15:33Z</time>
      </trkpt>
      <trkpt lat="42.607784" lon="0.674904">
        <ele>2684.564</ele>
        <time>2019-07-06T10:15:40Z</time>
      </trkpt>
      <trkpt lat="42.607828" lon="0.674846">
        <ele>2685.426</ele>
        <time>2019-07-06T10:15:42Z</time>
      </trkpt>
      <trkpt lat="42.607864" lon="0.674800">
        <ele>2685.247</ele>
        <time>2019-07-06T10:15:46Z</time>
      </trkpt>
      <trkpt lat="42.607883" lon="0.674737">
        <ele>2686.229</ele>
        <time>2019-07-06T10:15:50Z</time>
      </trkpt>
      <trkpt lat="42.607930" lon="0.674730">
        <ele>2690.721</ele>
        <time>2019-07-06T10:16:16Z</time>
      </trkpt>
      <trkpt lat="42.607924" lon="0.674793">
        <ele>2690.408</ele>
        <time>2019-07-06T10:16:45Z</time>
      </trkpt>
      <trkpt lat="42.607970" lon="0.674800">
        <ele>2693.087</ele>
        <time>2019-07-06T10:16:55Z</time>
      </trkpt>
      <trkpt lat="42.608001" lon="0.674754">
        <ele>2694.622</ele>
        <time>2019-07-06T10:17:04Z</time>
      </trkpt>
      <trkpt lat="42.608038" lon="0.674716">
        <ele>2697.917</ele>
        <time>2019-07-06T10:17:14Z</time>
      </trkpt>
      <trkpt lat="42.608072" lon="0.674668">
        <ele>2698.652</ele>
        <time>2019-07-06T10:17:24Z</time>
      </trkpt>
      <trkpt lat="42.608099" lon="0.674612">
        <ele>2696.486</ele>
        <time>2019-07-06T10:17:33Z</time>
      </trkpt>
      <trkpt lat="42.608144" lon="0.674604">
        <ele>2699.572</ele>
        <time>2019-07-06T10:18:07Z</time>
      </trkpt>
      <trkpt lat="42.608189" lon="0.674612">
        <ele>2704.396</ele>
        <time>2019-07-06T10:18:21Z</time>
      </trkpt>
      <trkpt lat="42.608235" lon="0.674626">
        <ele>2705.928</ele>
        <time>2019-07-06T10:18:28Z</time>
      </trkpt>
      <trkpt lat="42.608277" lon="0.674602">
        <ele>2703.835</ele>
        <time>2019-07-06T10:18:51Z</time>
      </trkpt>
      <trkpt lat="42.608295" lon="0.674538">
        <ele>2706.086</ele>
        <time>2019-07-06T10:19:02Z</time>
      </trkpt>
      <trkpt lat="42.608287" lon="0.674478">
        <ele>2706.114</ele>
        <time>2019-07-06T10:20:32Z</time>
      </trkpt>
      <trkpt lat="42.608301" lon="0.674419">
        <ele>2707.008</ele>
        <time>2019-07-06T10:21:05Z</time>
      </trkpt>
      <trkpt lat="42.608280" lon="0.674360">
        <ele>2707.716</ele>
        <time>2019-07-06T10:21:25Z</time>
      </trkpt>
      <trkpt lat="42.608325" lon="0.674373">
        <ele>2711.371</ele>
        <time>2019-07-06T10:24:00Z</time>
      </trkpt>
      <trkpt lat="42.608361" lon="0.674329">
        <ele>2712.726</ele>
        <time>2019-07-06T10:24:12Z</time>
      </trkpt>
      <trkpt lat="42.608409" lon="0.674332">
        <ele>2715.941</ele>
        <time>2019-07-06T10:24:31Z</time>
      </trkpt>
      <trkpt lat="42.608448" lon="0.674291">
        <ele>2718.285</ele>
        <time>2019-07-06T10:24:44Z</time>
      </trkpt>
      <trkpt lat="42.608480" lon="0.674245">
        <ele>2719.531</ele>
        <time>2019-07-06T10:25:32Z</time>
      </trkpt>
      <trkpt lat="42.608517" lon="0.674208">
        <ele>2721.115</ele>
        <time>2019-07-06T10:25:40Z</time>
      </trkpt>
      <trkpt lat="42.608552" lon="0.674164">
        <ele>2722.417</ele>
        <time>2019-07-06T10:25:47Z</time>
      </trkpt>
      <trkpt lat="42.608572" lon="0.674109">
        <ele>2726.433</ele>
        <time>2019-07-06T10:26:04Z</time>
      </trkpt>
      <trkpt lat="42.608567" lon="0.674175">
        <ele>2727.423</ele>
        <time>2019-07-06T10:26:22Z</time>
      </trkpt>
      <trkpt lat="42.608596" lon="0.674124">
        <ele>2728.215</ele>
        <time>2019-07-06T10:26:49Z</time>
      </trkpt>
      <trkpt lat="42.608642" lon="0.674078">
        <ele>2729.308</ele>
        <time>2019-07-06T10:26:54Z</time>
      </trkpt>
      <trkpt lat="42.608693" lon="0.674063">
        <ele>2733.736</ele>
        <time>2019-07-06T10:27:23Z</time>
      </trkpt>
      <trkpt lat="42.608734" lon="0.674037">
        <ele>2734.621</ele>
        <time>2019-07-06T10:27:31Z</time>
      </trkpt>
      <trkpt lat="42.608771" lon="0.673993">
        <ele>2735.786</ele>
        <time>2019-07-06T10:27:37Z</time>
      </trkpt>
      <trkpt lat="42.608811" lon="0.673952">
        <ele>2735.841</ele>
        <time>2019-07-06T10:27:43Z</time>
      </trkpt>
      <trkpt lat="42.608850" lon="0.673895">
        <ele>2735.795</ele>
        <time>2019-07-06T10:27:48Z</time>
      </trkpt>
      <trkpt lat="42.608881" lon="0.673845">
        <ele>2735.821</ele>
        <time>2019-07-06T10:27:52Z</time>
      </trkpt>
      <trkpt lat="42.608915" lon="0.673799">
        <ele>2737.015</ele>
        <time>2019-07-06T10:28:07Z</time>
      </trkpt>
      <trkpt lat="42.608949" lon="0.673757">
        <ele>2737.977</ele>
        <time>2019-07-06T10:28:40Z</time>
      </trkpt>
      <trkpt lat="42.608934" lon="0.673692">
        <ele>2737.369</ele>
        <time>2019-07-06T10:28:49Z</time>
      </trkpt>
      <trkpt lat="42.608904" lon="0.673642">
        <ele>2736.204</ele>
        <time>2019-07-06T10:28:55Z</time>
      </trkpt>
      <trkpt lat="42.608862" lon="0.673604">
        <ele>2738.124</ele>
        <time>2019-07-06T10:29:02Z</time>
      </trkpt>
      <trkpt lat="42.608865" lon="0.673537">
        <ele>2737.408</ele>
        <time>2019-07-06T10:29:55Z</time>
      </trkpt>
      <trkpt lat="42.608820" lon="0.673529">
        <ele>2738.439</ele>
        <time>2019-07-06T10:30:18Z</time>
      </trkpt>
      <trkpt lat="42.608783" lon="0.673592">
        <ele>2737.874</ele>
        <time>2019-07-06T10:30:24Z</time>
      </trkpt>
      <trkpt lat="42.608755" lon="0.673641">
        <ele>2737.539</ele>
        <time>2019-07-06T10:30:29Z</time>
      </trkpt>
      <trkpt lat="42.608721" lon="0.673687">
        <ele>2735.054</ele>
        <time>2019-07-06T10:30:44Z</time>
      </trkpt>
      <trkpt lat="42.608694" lon="0.673736">
        <ele>2733.438</ele>
        <time>2019-07-06T10:30:54Z</time>
      </trkpt>
      <trkpt lat="42.608649" lon="0.673755">
        <ele>2730.844</ele>
        <time>2019-07-06T10:31:14Z</time>
      </trkpt>
      <trkpt lat="42.608612" lon="0.673805">
        <ele>2729.238</ele>
        <time>2019-07-06T10:31:22Z</time>
      </trkpt>
      <trkpt lat="42.608585" lon="0.673861">
        <ele>2728.970</ele>
        <time>2019-07-06T10:31:30Z</time>
      </trkpt>
      <trkpt lat="42.608562" lon="0.673916">
        <ele>2727.338</ele>
        <time>2019-07-06T10:31:36Z</time>
      </trkpt>
      <trkpt lat="42.608516" lon="0.673929">
        <ele>2725.870</ele>
        <time>2019-07-06T10:31:43Z</time>
      </trkpt>
      <trkpt lat="42.608476" lon="0.673976">
        <ele>2723.417</ele>
        <time>2019-07-06T10:31:54Z</time>
      </trkpt>
      <trkpt lat="42.608468" lon="0.674045">
        <ele>2720.108</ele>
        <time>2019-07-06T10:32:08Z</time>
      </trkpt>
      <trkpt lat="42.608453" lon="0.674104">
        <ele>2719.576</ele>
        <time>2019-07-06T10:32:16Z</time>
      </trkpt>
      <trkpt lat="42.608426" lon="0.674158">
        <ele>2717.451</ele>
        <time>2019-07-06T10:33:02Z</time>
      </trkpt>
      <trkpt lat="42.608381" lon="0.674174">
        <ele>2715.776</ele>
        <time>2019-07-06T10:33:11Z</time>
      </trkpt>
      <trkpt lat="42.608339" lon="0.674211">
        <ele>2715.381</ele>
        <time>2019-07-06T10:33:29Z</time>
      </trkpt>
      <trkpt lat="42.608312" lon="0.674264">
        <ele>2714.015</ele>
        <time>2019-07-06T10:33:43Z</time>
      </trkpt>
      <trkpt lat="42.608275" lon="0.674304">
        <ele>2710.471</ele>
        <time>2019-07-06T10:33:55Z</time>
      </trkpt>
      <trkpt lat="42.608268" lon="0.674366">
        <ele>2710.545</ele>
        <time>2019-07-06T10:33:58Z</time>
      </trkpt>
      <trkpt lat="42.608224" lon="0.674356">
        <ele>2708.527</ele>
        <time>2019-07-06T10:34:06Z</time>
      </trkpt>
      <trkpt lat="42.608178" lon="0.674348">
        <ele>2710.822</ele>
        <time>2019-07-06T10:34:16Z</time>
      </trkpt>
      <trkpt lat="42.608144" lon="0.674390">
        <ele>2706.362</ele>
        <time>2019-07-06T10:34:35Z</time>
      </trkpt>
      <trkpt lat="42.608130" lon="0.674459">
        <ele>2708.708</ele>
        <time>2019-07-06T10:34:42Z</time>
      </trkpt>
      <trkpt lat="42.608170" lon="0.674490">
        <ele>2700.408</ele>
        <time>2019-07-06T10:34:58Z</time>
      </trkpt>
      <trkpt lat="42.608186" lon="0.674552">
        <ele>2699.235</ele>
        <time>2019-07-06T10:35:11Z</time>
      </trkpt>
      <trkpt lat="42.608152" lon="0.674495">
        <ele>2699.840</ele>
        <time>2019-07-06T10:35:28Z</time>
      </trkpt>
      <trkpt lat="42.608126" lon="0.674445">
        <ele>2697.545</ele>
        <time>2019-07-06T10:35:32Z</time>
      </trkpt>
      <trkpt lat="42.608093" lon="0.674402">
        <ele>2697.390</ele>
        <time>2019-07-06T10:35:43Z</time>
      </trkpt>
      <trkpt lat="42.608049" lon="0.674425">
        <ele>2693.044</ele>
        <time>2019-07-06T10:35:55Z</time>
      </trkpt>
      <trkpt lat="42.608043" lon="0.674490">
        <ele>2697.420</ele>
        <time>2019-07-06T10:36:13Z</time>
      </trkpt>
      <trkpt lat="42.607994" lon="0.674502">
        <ele>2694.244</ele>
        <time>2019-07-06T10:36:32Z</time>
      </trkpt>
      <trkpt lat="42.607979" lon="0.674561">
        <ele>2692.466</ele>
        <time>2019-07-06T10:36:37Z</time>
      </trkpt>
      <trkpt lat="42.607962" lon="0.674630">
        <ele>2691.958</ele>
        <time>2019-07-06T10:36:43Z</time>
      </trkpt>
      <trkpt lat="42.607952" lon="0.674691">
        <ele>2690.852</ele>
        <time>2019-07-06T10:36:50Z</time>
      </trkpt>
      <trkpt lat="42.607926" lon="0.674640">
        <ele>2689.917</ele>
        <time>2019-07-06T10:37:34Z</time>
      </trkpt>
      <trkpt lat="42.607883" lon="0.674664">
        <ele>2688.608</ele>
        <time>2019-07-06T10:37:39Z</time>
      </trkpt>
      <trkpt lat="42.607865" lon="0.674731">
        <ele>2688.178</ele>
        <time>2019-07-06T10:37:46Z</time>
      </trkpt>
      <trkpt lat="42.607831" lon="0.674775">
        <ele>2686.733</ele>
        <time>2019-07-06T10:37:56Z</time>
      </trkpt>
      <trkpt lat="42.607788" lon="0.674792">
        <ele>2686.228</ele>
        <time>2019-07-06T10:38:07Z</time>
      </trkpt>
      <trkpt lat="42.607797" lon="0.674855">
        <ele>2685.043</ele>
        <time>2019-07-06T10:38:19Z</time>
      </trkpt>
      <trkpt lat="42.607791" lon="0.674919">
        <ele>2681.867</ele>
        <time>2019-07-06T10:38:42Z</time>
      </trkpt>
      <trkpt lat="42.607838" lon="0.674897">
        <ele>2676.473</ele>
        <time>2019-07-06T10:39:03Z</time>
      </trkpt>
      <trkpt lat="42.607862" lon="0.674842">
        <ele>2677.437</ele>
        <time>2019-07-06T10:39:24Z</time>
      </trkpt>
      <trkpt lat="42.607907" lon="0.674856">
        <ele>2677.469</ele>
        <time>2019-07-06T10:39:30Z</time>
      </trkpt>
      <trkpt lat="42.607939" lon="0.674811">
        <ele>2676.144</ele>
        <time>2019-07-06T10:39:36Z</time>
      </trkpt>
      <trkpt lat="42.607977" lon="0.674763">
        <ele>2676.305</ele>
        <time>2019-07-06T10:39:46Z</time>
      </trkpt>
      <trkpt lat="42.608017" lon="0.674733">
        <ele>2677.115</ele>
        <time>2019-07-06T10:39:57Z</time>
      </trkpt>
      <trkpt lat="42.608055" lon="0.674694">
        <ele>2677.808</ele>
        <time>2019-07-06T10:40:04Z</time>
      </trkpt>
      <trkpt lat="42.608106" lon="0.674697">
        <ele>2680.137</ele>
        <time>2019-07-06T10:40:20Z</time>
      </trkpt>
      <trkpt lat="42.608150" lon="0.674730">
        <ele>2679.042</ele>
        <time>2019-07-06T10:40:40Z</time>
      </trkpt>
      <trkpt lat="42.608189" lon="0.674770">
        <ele>2677.437</ele>
        <time>2019-07-06T10:40:46Z</time>
      </trkpt>
      <trkpt lat="42.608232" lon="0.674796">
        <ele>2675.972</ele>
        <time>2019-07-06T10:40:52Z</time>
      </trkpt>
      <trkpt lat="42.608274" lon="0.674816">
        <ele>2675.496</ele>
        <time>2019-07-06T10:40:57Z</time>
      </trkpt>
      <trkpt lat="42.608289" lon="0.674874">
        <ele>2676.212</ele>
        <time>2019-07-06T10:42:46Z</time>
      </trkpt>
      <trkpt lat="42.608334" lon="0.674856">
        <ele>2675.966</ele>
        <time>2019-07-06T10:42:56Z</time>
      </trkpt>
      <trkpt lat="42.608379" lon="0.674847">
        <ele>2677.738</ele>
        <time>2019-07-06T10:43:10Z</time>
      </trkpt>
      <trkpt lat="42.608416" lon="0.674806">
        <ele>2678.937</ele>
        <time>2019-07-06T10:43:16Z</time>
      </trkpt>
      <trkpt lat="42.608463" lon="0.674802">
        <ele>2677.549</ele>
        <time>2019-07-06T10:43:35Z</time>
      </trkpt>
      <trkpt lat="42.608475" lon="0.674862">
        <ele>2675.013</ele>
        <time>2019-07-06T10:43:45Z</time>
      </trkpt>
      <trkpt lat="42.608512" lon="0.674902">
        <ele>2672.808</ele>
        <time>2019-07-06T10:43:55Z</time>
      </trkpt>
      <trkpt lat="42.608551" lon="0.674934">
        <ele>2671.136</ele>
        <time>2019-07-06T10:44:07Z</time>
      </trkpt>
      <trkpt lat="42.608595" lon="0.674954">
        <ele>2673.311</ele>
        <time>2019-07-06T10:44:29Z</time>
      </trkpt>
      <trkpt lat="42.608638" lon="0.674930">
        <ele>2676.636</ele>
        <time>2019-07-06T10:44:44Z</time>
      </trkpt>
      <trkpt lat="42.608683" lon="0.674900">
        <ele>2676.781</ele>
        <time>2019-07-06T10:44:51Z</time>
      </trkpt>
      <trkpt lat="42.608730" lon="0.674898">
        <ele>2675.025</ele>
        <time>2019-07-06T10:44:58Z</time>
      </trkpt>
      <trkpt lat="42.608773" lon="0.674878">
        <ele>2673.041</ele>
        <time>2019-07-06T10:45:07Z</time>
      </trkpt>
      <trkpt lat="42.608773" lon="0.674816">
        <ele>2675.025</ele>
        <time>2019-07-06T10:45:15Z</time>
      </trkpt>
      <trkpt lat="42.608778" lon="0.674751">
        <ele>2675.217</ele>
        <time>2019-07-06T10:45:23Z</time>
      </trkpt>
      <trkpt lat="42.608814" lon="0.674714">
        <ele>2675.373</ele>
        <time>2019-07-06T10:45:36Z</time>
      </trkpt>
      <trkpt lat="42.608861" lon="0.674694">
        <ele>2674.985</ele>
        <time>2019-07-06T10:45:41Z</time>
      </trkpt>
      <trkpt lat="42.608909" lon="0.674698">
        <ele>2676.413</ele>
        <time>2019-07-06T10:45:48Z</time>
      </trkpt>
      <trkpt lat="42.608957" lon="0.674698">
        <ele>2674.608</ele>
        <time>2019-07-06T10:46:00Z</time>
      </trkpt>
      <trkpt lat="42.609002" lon="0.674698">
        <ele>2676.710</ele>
        <time>2019-07-06T10:46:16Z</time>
      </trkpt>
      <trkpt lat="42.609047" lon="0.674697">
        <ele>2675.945</ele>
        <time>2019-07-06T10:46:42Z</time>
      </trkpt>
      <trkpt lat="42.609089" lon="0.674720">
        <ele>2677.330</ele>
        <time>2019-07-06T10:48:23Z</time>
      </trkpt>
      <trkpt lat="42.609097" lon="0.674782">
        <ele>2677.165</ele>
        <time>2019-07-06T10:49:15Z</time>
      </trkpt>
      <trkpt lat="42.609073" lon="0.674728">
        <ele>2676.889</ele>
        <time>2019-07-06T10:50:27Z</time>
      </trkpt>
      <trkpt lat="42.609098" lon="0.674781">
        <ele>2675.145</ele>
        <time>2019-07-06T10:52:59Z</time>
      </trkpt>
      <trkpt lat="42.609085" lon="0.674720">
        <ele>2676.419</ele>
        <time>2019-07-06T10:54:02Z</time>
      </trkpt>
      <trkpt lat="42.609063" lon="0.674774">
        <ele>2676.041</ele>
        <time>2019-07-06T10:54:52Z</time>
      </trkpt>
      <trkpt lat="42.609020" lon="0.674799">
        <ele>2676.354</ele>
        <time>2019-07-06T10:55:47Z</time>
      </trkpt>
      <trkpt lat="42.609045" lon="0.674860">
        <ele>2678.656</ele>
        <time>2019-07-06T10:56:45Z</time>
      </trkpt>
      <trkpt lat="42.609090" lon="0.674854">
        <ele>2676.511</ele>
        <time>2019-07-06T10:57:08Z</time>
      </trkpt>
      <trkpt lat="42.609068" lon="0.674790">
        <ele>2674.908</ele>
        <time>2019-07-06T10:57:42Z</time>
      </trkpt>
      <trkpt lat="42.609031" lon="0.674754">
        <ele>2679.098</ele>
        <time>2019-07-06T10:58:09Z</time>
      </trkpt>
      <trkpt lat="42.609071" lon="0.674783">
        <ele>2676.323</ele>
        <time>2019-07-06T10:59:37Z</time>
      </trkpt>
      <trkpt lat="42.609057" lon="0.674845">
        <ele>2676.598</ele>
        <time>2019-07-06T11:00:38Z</time>
      </trkpt>
      <trkpt lat="42.609102" lon="0.674866">
        <ele>2675.553</ele>
        <time>2019-07-06T11:01:33Z</time>
      </trkpt>
      <trkpt lat="42.609149" lon="0.674884">
        <ele>2676.487</ele>
        <time>2019-07-06T11:01:43Z</time>
      </trkpt>
      <trkpt lat="42.609195" lon="0.674896">
        <ele>2677.013</ele>
        <time>2019-07-06T11:01:51Z</time>
      </trkpt>
      <trkpt lat="42.609241" lon="0.674921">
        <ele>2677.067</ele>
        <time>2019-07-06T11:02:01Z</time>
      </trkpt>
      <trkpt lat="42.609285" lon="0.674948">
        <ele>2677.389</ele>
        <time>2019-07-06T11:02:09Z</time>
      </trkpt>
      <trkpt lat="42.609329" lon="0.674972">
        <ele>2679.092</ele>
        <time>2019-07-06T11:02:16Z</time>
      </trkpt>
      <trkpt lat="42.609363" lon="0.675022">
        <ele>2684.473</ele>
        <time>2019-07-06T11:03:05Z</time>
      </trkpt>
      <trkpt lat="42.609407" lon="0.675034">
        <ele>2686.020</ele>
        <time>2019-07-06T11:03:10Z</time>
      </trkpt>
      <trkpt lat="42.609460" lon="0.675032">
        <ele>2685.908</ele>
        <time>2019-07-06T11:03:17Z</time>
      </trkpt>
      <trkpt lat="42.609498" lon="0.675066">
        <ele>2683.952</ele>
        <time>2019-07-06T11:03:35Z</time>
      </trkpt>
      <trkpt lat="42.609532" lon="0.675110">
        <ele>2684.617</ele>
        <time>2019-07-06T11:03:54Z</time>
      </trkpt>
      <trkpt lat="42.609577" lon="0.675129">
        <ele>2683.942</ele>
        <time>2019-07-06T11:04:25Z</time>
      </trkpt>
      <trkpt lat="42.609608" lon="0.675175">
        <ele>2683.437</ele>
        <time>2019-07-06T11:04:36Z</time>
      </trkpt>
      <trkpt lat="42.609656" lon="0.675167">
        <ele>2682.941</ele>
        <time>2019-07-06T11:04:50Z</time>
      </trkpt>
      <trkpt lat="42.609709" lon="0.675160">
        <ele>2683.837</ele>
        <time>2019-07-06T11:05:00Z</time>
      </trkpt>
      <trkpt lat="42.609750" lon="0.675133">
        <ele>2685.451</ele>
        <time>2019-07-06T11:05:04Z</time>
      </trkpt>
      <trkpt lat="42.609723" lon="0.675183">
        <ele>2684.813</ele>
        <time>2019-07-06T11:06:29Z</time>
      </trkpt>
      <trkpt lat="42.609685" lon="0.675221">
        <ele>2684.959</ele>
        <time>2019-07-06T11:06:40Z</time>
      </trkpt>
      <trkpt lat="42.609731" lon="0.675221">
        <ele>2684.303</ele>
        <time>2019-07-06T11:06:59Z</time>
      </trkpt>
      <trkpt lat="42.609776" lon="0.675233">
        <ele>2680.823</ele>
        <time>2019-07-06T11:07:30Z</time>
      </trkpt>
      <trkpt lat="42.609782" lon="0.675295">
        <ele>2686.608</ele>
        <time>2019-07-06T11:08:31Z</time>
      </trkpt>
      <trkpt lat="42.609764" lon="0.675351">
        <ele>2686.998</ele>
        <time>2019-07-06T11:09:01Z</time>
      </trkpt>
      <trkpt lat="42.609760" lon="0.675422">
        <ele>2686.223</ele>
        <time>2019-07-06T11:09:38Z</time>
      </trkpt>
      <trkpt lat="42.609749" lon="0.675493">
        <ele>2686.378</ele>
        <time>2019-07-06T11:09:43Z</time>
      </trkpt>
      <trkpt lat="42.609735" lon="0.675559">
        <ele>2684.983</ele>
        <time>2019-07-06T11:09:54Z</time>
      </trkpt>
      <trkpt lat="42.609726" lon="0.675626">
        <ele>2683.467</ele>
        <time>2019-07-06T11:09:59Z</time>
      </trkpt>
      <trkpt lat="42.609706" lon="0.675690">
        <ele>2683.453</ele>
        <time>2019-07-06T11:10:04Z</time>
      </trkpt>
      <trkpt lat="42.609694" lon="0.675757">
        <ele>2684.857</ele>
        <time>2019-07-06T11:10:10Z</time>
      </trkpt>
      <trkpt lat="42.609698" lon="0.675825">
        <ele>2683.969</ele>
        <time>2019-07-06T11:10:22Z</time>
      </trkpt>
      <trkpt lat="42.609725" lon="0.675877">
        <ele>2684.569</ele>
        <time>2019-07-06T11:10:33Z</time>
      </trkpt>
      <trkpt lat="42.609706" lon="0.675943">
        <ele>2684.204</ele>
        <time>2019-07-06T11:10:49Z</time>
      </trkpt>
      <trkpt lat="42.609675" lon="0.675996">
        <ele>2683.524</ele>
        <time>2019-07-06T11:10:54Z</time>
      </trkpt>
      <trkpt lat="42.609699" lon="0.676051">
        <ele>2685.708</ele>
        <time>2019-07-06T11:11:02Z</time>
      </trkpt>
      <trkpt lat="42.609717" lon="0.676112">
        <ele>2685.239</ele>
        <time>2019-07-06T11:11:07Z</time>
      </trkpt>
      <trkpt lat="42.609760" lon="0.676133">
        <ele>2684.224</ele>
        <time>2019-07-06T11:11:17Z</time>
      </trkpt>
      <trkpt lat="42.609779" lon="0.676191">
        <ele>2684.979</ele>
        <time>2019-07-06T11:11:39Z</time>
      </trkpt>
      <trkpt lat="42.609824" lon="0.676218">
        <ele>2685.074</ele>
        <time>2019-07-06T11:11:58Z</time>
      </trkpt>
      <trkpt lat="42.609870" lon="0.676227">
        <ele>2684.688</ele>
        <time>2019-07-06T11:12:16Z</time>
      </trkpt>
      <trkpt lat="42.609909" lon="0.676188">
        <ele>2682.114</ele>
        <time>2019-07-06T11:12:21Z</time>
      </trkpt>
      <trkpt lat="42.609933" lon="0.676127">
        <ele>2681.868</ele>
        <time>2019-07-06T11:12:25Z</time>
      </trkpt>
      <trkpt lat="42.609964" lon="0.676079">
        <ele>2681.070</ele>
        <time>2019-07-06T11:12:30Z</time>
      </trkpt>
      <trkpt lat="42.610010" lon="0.676049">
        <ele>2681.739</ele>
        <time>2019-07-06T11:12:37Z</time>
      </trkpt>
      <trkpt lat="42.610056" lon="0.676040">
        <ele>2682.101</ele>
        <time>2019-07-06T11:12:42Z</time>
      </trkpt>
      <trkpt lat="42.610093" lon="0.676003">
        <ele>2682.021</ele>
        <time>2019-07-06T11:12:54Z</time>
      </trkpt>
      <trkpt lat="42.610128" lon="0.676044">
        <ele>2680.608</ele>
        <time>2019-07-06T11:13:11Z</time>
      </trkpt>
      <trkpt lat="42.610168" lon="0.676095">
        <ele>2682.026</ele>
        <time>2019-07-06T11:13:19Z</time>
      </trkpt>
      <trkpt lat="42.610203" lon="0.676146">
        <ele>2682.071</ele>
        <time>2019-07-06T11:13:22Z</time>
      </trkpt>
      <trkpt lat="42.610242" lon="0.676195">
        <ele>2682.256</ele>
        <time>2019-07-06T11:13:28Z</time>
      </trkpt>
      <trkpt lat="42.610269" lon="0.676247">
        <ele>2683.521</ele>
        <time>2019-07-06T11:13:34Z</time>
      </trkpt>
      <trkpt lat="42.610316" lon="0.676265">
        <ele>2685.315</ele>
        <time>2019-07-06T11:13:40Z</time>
      </trkpt>
      <trkpt lat="42.610361" lon="0.676282">
        <ele>2684.391</ele>
        <time>2019-07-06T11:13:52Z</time>
      </trkpt>
      <trkpt lat="42.610400" lon="0.676314">
        <ele>2683.265</ele>
        <time>2019-07-06T11:14:08Z</time>
      </trkpt>
      <trkpt lat="42.610446" lon="0.676327">
        <ele>2683.697</ele>
        <time>2019-07-06T11:14:17Z</time>
      </trkpt>
      <trkpt lat="42.610486" lon="0.676375">
        <ele>2683.732</ele>
        <time>2019-07-06T11:14:24Z</time>
      </trkpt>
      <trkpt lat="42.610509" lon="0.676430">
        <ele>2682.992</ele>
        <time>2019-07-06T11:14:31Z</time>
      </trkpt>
      <trkpt lat="42.610545" lon="0.676477">
        <ele>2681.511</ele>
        <time>2019-07-06T11:14:38Z</time>
      </trkpt>
      <trkpt lat="42.610579" lon="0.676526">
        <ele>2683.708</ele>
        <time>2019-07-06T11:14:46Z</time>
      </trkpt>
      <trkpt lat="42.610610" lon="0.676576">
        <ele>2684.816</ele>
        <time>2019-07-06T11:14:56Z</time>
      </trkpt>
      <trkpt lat="42.610636" lon="0.676633">
        <ele>2685.671</ele>
        <time>2019-07-06T11:15:06Z</time>
      </trkpt>
      <trkpt lat="42.610661" lon="0.676687">
        <ele>2686.856</ele>
        <time>2019-07-06T11:15:12Z</time>
      </trkpt>
      <trkpt lat="42.610687" lon="0.676752">
        <ele>2685.081</ele>
        <time>2019-07-06T11:15:16Z</time>
      </trkpt>
      <trkpt lat="42.610703" lon="0.676812">
        <ele>2686.785</ele>
        <time>2019-07-06T11:15:22Z</time>
      </trkpt>
      <trkpt lat="42.610746" lon="0.676850">
        <ele>2688.241</ele>
        <time>2019-07-06T11:15:30Z</time>
      </trkpt>
      <trkpt lat="42.610796" lon="0.676882">
        <ele>2687.245</ele>
        <time>2019-07-06T11:15:34Z</time>
      </trkpt>
      <trkpt lat="42.610841" lon="0.676899">
        <ele>2686.547</ele>
        <time>2019-07-06T11:15:39Z</time>
      </trkpt>
      <trkpt lat="42.610886" lon="0.676915">
        <ele>2683.027</ele>
        <time>2019-07-06T11:15:50Z</time>
      </trkpt>
      <trkpt lat="42.610936" lon="0.676938">
        <ele>2684.168</ele>
        <time>2019-07-06T11:16:00Z</time>
      </trkpt>
      <trkpt lat="42.610977" lon="0.676908">
        <ele>2683.214</ele>
        <time>2019-07-06T11:16:05Z</time>
      </trkpt>
      <trkpt lat="42.611022" lon="0.676875">
        <ele>2682.508</ele>
        <time>2019-07-06T11:16:21Z</time>
      </trkpt>
      <trkpt lat="42.611070" lon="0.676868">
        <ele>2681.745</ele>
        <time>2019-07-06T11:16:24Z</time>
      </trkpt>
      <trkpt lat="42.611115" lon="0.676865">
        <ele>2681.820</ele>
        <time>2019-07-06T11:16:31Z</time>
      </trkpt>
      <trkpt lat="42.611145" lon="0.676915">
        <ele>2681.525</ele>
        <time>2019-07-06T11:17:27Z</time>
      </trkpt>
      <trkpt lat="42.611192" lon="0.676947">
        <ele>2681.130</ele>
        <time>2019-07-06T11:17:32Z</time>
      </trkpt>
      <trkpt lat="42.611225" lon="0.676989">
        <ele>2681.914</ele>
        <time>2019-07-06T11:18:37Z</time>
      </trkpt>
      <trkpt lat="42.611267" lon="0.677023">
        <ele>2679.130</ele>
        <time>2019-07-06T11:20:43Z</time>
      </trkpt>
      <trkpt lat="42.611311" lon="0.677046">
        <ele>2678.264</ele>
        <time>2019-07-06T11:20:51Z</time>
      </trkpt>
      <trkpt lat="42.611351" lon="0.677079">
        <ele>2677.296</ele>
        <time>2019-07-06T11:21:02Z</time>
      </trkpt>
      <trkpt lat="42.611397" lon="0.677098">
        <ele>2677.058</ele>
        <time>2019-07-06T11:21:15Z</time>
      </trkpt>
      <trkpt lat="42.611446" lon="0.677094">
        <ele>2676.052</ele>
        <time>2019-07-06T11:21:25Z</time>
      </trkpt>
      <trkpt lat="42.611492" lon="0.677070">
        <ele>2677.417</ele>
        <time>2019-07-06T11:21:31Z</time>
      </trkpt>
      <trkpt lat="42.611535" lon="0.677052">
        <ele>2678.208</ele>
        <time>2019-07-06T11:21:41Z</time>
      </trkpt>
      <trkpt lat="42.611583" lon="0.677066">
        <ele>2678.168</ele>
        <time>2019-07-06T11:22:11Z</time>
      </trkpt>
      <trkpt lat="42.611625" lon="0.677039">
        <ele>2676.573</ele>
        <time>2019-07-06T11:22:17Z</time>
      </trkpt>
      <trkpt lat="42.611669" lon="0.677012">
        <ele>2676.048</ele>
        <time>2019-07-06T11:22:22Z</time>
      </trkpt>
      <trkpt lat="42.611716" lon="0.677018">
        <ele>2677.793</ele>
        <time>2019-07-06T11:22:40Z</time>
      </trkpt>
      <trkpt lat="42.611729" lon="0.677085">
        <ele>2677.747</ele>
        <time>2019-07-06T11:22:49Z</time>
      </trkpt>
      <trkpt lat="42.611752" lon="0.677143">
        <ele>2673.883</ele>
        <time>2019-07-06T11:22:59Z</time>
      </trkpt>
      <trkpt lat="42.611787" lon="0.677196">
        <ele>2680.777</ele>
        <time>2019-07-06T11:23:07Z</time>
      </trkpt>
      <trkpt lat="42.611831" lon="0.677225">
        <ele>2681.739</ele>
        <time>2019-07-06T11:23:12Z</time>
      </trkpt>
      <trkpt lat="42.611878" lon="0.677224">
        <ele>2682.555</ele>
        <time>2019-07-06T11:23:17Z</time>
      </trkpt>
      <trkpt lat="42.611920" lon="0.677194">
        <ele>2683.507</ele>
        <time>2019-07-06T11:23:26Z</time>
      </trkpt>
      <trkpt lat="42.611892" lon="0.677244">
        <ele>2685.117</ele>
        <time>2019-07-06T11:23:37Z</time>
      </trkpt>
      <trkpt lat="42.611942" lon="0.677249">
        <ele>2687.408</ele>
        <time>2019-07-06T11:24:01Z</time>
      </trkpt>
      <trkpt lat="42.611988" lon="0.677252">
        <ele>2688.648</ele>
        <time>2019-07-06T11:24:10Z</time>
      </trkpt>
      <trkpt lat="42.612006" lon="0.677195">
        <ele>2688.013</ele>
        <time>2019-07-06T11:24:16Z</time>
      </trkpt>
      <trkpt lat="42.612051" lon="0.677188">
        <ele>2687.498</ele>
        <time>2019-07-06T11:24:42Z</time>
      </trkpt>
      <trkpt lat="42.612066" lon="0.677246">
        <ele>2686.533</ele>
        <time>2019-07-06T11:24:58Z</time>
      </trkpt>
      <trkpt lat="42.612079" lon="0.677309">
        <ele>2687.377</ele>
        <time>2019-07-06T11:25:04Z</time>
      </trkpt>
      <trkpt lat="42.612090" lon="0.677374">
        <ele>2688.553</ele>
        <time>2019-07-06T11:25:10Z</time>
      </trkpt>
      <trkpt lat="42.612095" lon="0.677435">
        <ele>2687.457</ele>
        <time>2019-07-06T11:25:17Z</time>
      </trkpt>
      <trkpt lat="42.612079" lon="0.677503">
        <ele>2687.179</ele>
        <time>2019-07-06T11:25:22Z</time>
      </trkpt>
      <trkpt lat="42.612106" lon="0.677570">
        <ele>2688.468</ele>
        <time>2019-07-06T11:25:28Z</time>
      </trkpt>
      <trkpt lat="42.612142" lon="0.677617">
        <ele>2688.542</ele>
        <time>2019-07-06T11:25:33Z</time>
      </trkpt>
      <trkpt lat="42.612181" lon="0.677649">
        <ele>2690.226</ele>
        <time>2019-07-06T11:25:38Z</time>
      </trkpt>
      <trkpt lat="42.612204" lon="0.677703">
        <ele>2689.508</ele>
        <time>2019-07-06T11:25:50Z</time>
      </trkpt>
      <trkpt lat="42.612248" lon="0.677680">
        <ele>2690.299</ele>
        <time>2019-07-06T11:26:09Z</time>
      </trkpt>
      <trkpt lat="42.612294" lon="0.677682">
        <ele>2690.944</ele>
        <time>2019-07-06T11:26:16Z</time>
      </trkpt>
      <trkpt lat="42.612313" lon="0.677738">
        <ele>2692.049</ele>
        <time>2019-07-06T11:26:22Z</time>
      </trkpt>
      <trkpt lat="42.612318" lon="0.677801">
        <ele>2693.724</ele>
        <time>2019-07-06T11:26:29Z</time>
      </trkpt>
      <trkpt lat="42.612330" lon="0.677864">
        <ele>2694.438</ele>
        <time>2019-07-06T11:26:43Z</time>
      </trkpt>
      <trkpt lat="42.612365" lon="0.677903">
        <ele>2694.434</ele>
        <time>2019-07-06T11:27:05Z</time>
      </trkpt>
      <trkpt lat="42.612395" lon="0.677955">
        <ele>2695.378</ele>
        <time>2019-07-06T11:27:24Z</time>
      </trkpt>
      <trkpt lat="42.612437" lon="0.677982">
        <ele>2695.090</ele>
        <time>2019-07-06T11:27:30Z</time>
      </trkpt>
      <trkpt lat="42.612479" lon="0.678006">
        <ele>2695.341</ele>
        <time>2019-07-06T11:27:33Z</time>
      </trkpt>
      <trkpt lat="42.612521" lon="0.677983">
        <ele>2696.281</ele>
        <time>2019-07-06T11:27:48Z</time>
      </trkpt>
      <trkpt lat="42.612548" lon="0.677929">
        <ele>2696.309</ele>
        <time>2019-07-06T11:27:55Z</time>
      </trkpt>
      <trkpt lat="42.612573" lon="0.677874">
        <ele>2693.108</ele>
        <time>2019-07-06T11:28:04Z</time>
      </trkpt>
      <trkpt lat="42.612620" lon="0.677864">
        <ele>2694.257</ele>
        <time>2019-07-06T11:28:12Z</time>
      </trkpt>
      <trkpt lat="42.612667" lon="0.677851">
        <ele>2694.962</ele>
        <time>2019-07-06T11:28:22Z</time>
      </trkpt>
      <trkpt lat="42.612711" lon="0.677833">
        <ele>2690.097</ele>
        <time>2019-07-06T11:28:41Z</time>
      </trkpt>
      <trkpt lat="42.612755" lon="0.677814">
        <ele>2697.942</ele>
        <time>2019-07-06T11:29:04Z</time>
      </trkpt>
      <trkpt lat="42.612796" lon="0.677840">
        <ele>2696.586</ele>
        <time>2019-07-06T11:29:10Z</time>
      </trkpt>
      <trkpt lat="42.612806" lon="0.677901">
        <ele>2698.212</ele>
        <time>2019-07-06T11:29:20Z</time>
      </trkpt>
      <trkpt lat="42.612816" lon="0.677961">
        <ele>2700.536</ele>
        <time>2019-07-06T11:29:35Z</time>
      </trkpt>
      <trkpt lat="42.612861" lon="0.677980">
        <ele>2702.798</ele>
        <time>2019-07-06T11:29:47Z</time>
      </trkpt>
      <trkpt lat="42.612901" lon="0.678017">
        <ele>2703.979</ele>
        <time>2019-07-06T11:30:29Z</time>
      </trkpt>
      <trkpt lat="42.612948" lon="0.678014">
        <ele>2705.505</ele>
        <time>2019-07-06T11:30:41Z</time>
      </trkpt>
      <trkpt lat="42.612992" lon="0.677991">
        <ele>2706.425</ele>
        <time>2019-07-06T11:30:51Z</time>
      </trkpt>
      <trkpt lat="42.613037" lon="0.677993">
        <ele>2706.608</ele>
        <time>2019-07-06T11:30:58Z</time>
      </trkpt>
      <trkpt lat="42.613083" lon="0.677984">
        <ele>2706.720</ele>
        <time>2019-07-06T11:31:06Z</time>
      </trkpt>
      <trkpt lat="42.613129" lon="0.677993">
        <ele>2706.955</ele>
        <time>2019-07-06T11:31:18Z</time>
      </trkpt>
      <trkpt lat="42.613172" lon="0.677959">
        <ele>2709.580</ele>
        <time>2019-07-06T11:31:27Z</time>
      </trkpt>
      <trkpt lat="42.613208" lon="0.677921">
        <ele>2709.615</ele>
        <time>2019-07-06T11:31:40Z</time>
      </trkpt>
      <trkpt lat="42.613243" lon="0.677881">
        <ele>2709.019</ele>
        <time>2019-07-06T11:31:51Z</time>
      </trkpt>
      <trkpt lat="42.613223" lon="0.677938">
        <ele>2709.115</ele>
        <time>2019-07-06T11:32:21Z</time>
      </trkpt>
      <trkpt lat="42.613264" lon="0.677969">
        <ele>2706.829</ele>
        <time>2019-07-06T11:32:39Z</time>
      </trkpt>
      <trkpt lat="42.613305" lon="0.677993">
        <ele>2707.841</ele>
        <time>2019-07-06T11:32:46Z</time>
      </trkpt>
      <trkpt lat="42.613353" lon="0.678012">
        <ele>2708.194</ele>
        <time>2019-07-06T11:32:58Z</time>
      </trkpt>
      <trkpt lat="42.613404" lon="0.678007">
        <ele>2708.657</ele>
        <time>2019-07-06T11:33:05Z</time>
      </trkpt>
      <trkpt lat="42.613448" lon="0.678035">
        <ele>2708.422</ele>
        <time>2019-07-06T11:33:20Z</time>
      </trkpt>
      <trkpt lat="42.613480" lon="0.678082">
        <ele>2709.108</ele>
        <time>2019-07-06T11:33:25Z</time>
      </trkpt>
      <trkpt lat="42.613505" lon="0.678133">
        <ele>2710.932</ele>
        <time>2019-07-06T11:33:33Z</time>
      </trkpt>
      <trkpt lat="42.613553" lon="0.678130">
        <ele>2712.297</ele>
        <time>2019-07-06T11:33:51Z</time>
      </trkpt>
      <trkpt lat="42.613598" lon="0.678101">
        <ele>2713.912</ele>
        <time>2019-07-06T11:34:00Z</time>
      </trkpt>
      <trkpt lat="42.613634" lon="0.678062">
        <ele>2714.877</ele>
        <time>2019-07-06T11:34:10Z</time>
      </trkpt>
      <trkpt lat="42.613666" lon="0.678018">
        <ele>2713.761</ele>
        <time>2019-07-06T11:34:18Z</time>
      </trkpt>
      <trkpt lat="42.613667" lon="0.678097">
        <ele>2713.377</ele>
        <time>2019-07-06T11:35:32Z</time>
      </trkpt>
      <trkpt lat="42.613695" lon="0.678146">
        <ele>2714.451</ele>
        <time>2019-07-06T11:35:39Z</time>
      </trkpt>
      <trkpt lat="42.613723" lon="0.678196">
        <ele>2714.923</ele>
        <time>2019-07-06T11:35:47Z</time>
      </trkpt>
      <trkpt lat="42.613724" lon="0.678261">
        <ele>2715.779</ele>
        <time>2019-07-06T11:35:55Z</time>
      </trkpt>
      <trkpt lat="42.613680" lon="0.678303">
        <ele>2715.805</ele>
        <time>2019-07-06T11:36:15Z</time>
      </trkpt>
      <trkpt lat="42.613640" lon="0.678334">
        <ele>2715.625</ele>
        <time>2019-07-06T11:36:32Z</time>
      </trkpt>
      <trkpt lat="42.613593" lon="0.678349">
        <ele>2717.308</ele>
        <time>2019-07-06T11:36:39Z</time>
      </trkpt>
      <trkpt lat="42.613551" lon="0.678374">
        <ele>2717.260</ele>
        <time>2019-07-06T11:36:47Z</time>
      </trkpt>
      <trkpt lat="42.613533" lon="0.678433">
        <ele>2716.825</ele>
        <time>2019-07-06T11:36:52Z</time>
      </trkpt>
      <trkpt lat="42.613512" lon="0.678489">
        <ele>2717.760</ele>
        <time>2019-07-06T11:36:59Z</time>
      </trkpt>
      <trkpt lat="42.613507" lon="0.678561">
        <ele>2718.335</ele>
        <time>2019-07-06T11:37:04Z</time>
      </trkpt>
      <trkpt lat="42.613518" lon="0.678625">
        <ele>2718.789</ele>
        <time>2019-07-06T11:37:15Z</time>
      </trkpt>
      <trkpt lat="42.613497" lon="0.678684">
        <ele>2721.745</ele>
        <time>2019-07-06T11:37:51Z</time>
      </trkpt>
      <trkpt lat="42.613496" lon="0.678745">
        <ele>2722.999</ele>
        <time>2019-07-06T11:37:57Z</time>
      </trkpt>
      <trkpt lat="42.613487" lon="0.678812">
        <ele>2724.271</ele>
        <time>2019-07-06T11:38:02Z</time>
      </trkpt>
      <trkpt lat="42.613484" lon="0.678874">
        <ele>2725.837</ele>
        <time>2019-07-06T11:38:08Z</time>
      </trkpt>
      <trkpt lat="42.613496" lon="0.678935">
        <ele>2726.349</ele>
        <time>2019-07-06T11:38:17Z</time>
      </trkpt>
      <trkpt lat="42.613543" lon="0.678939">
        <ele>2728.813</ele>
        <time>2019-07-06T11:38:29Z</time>
      </trkpt>
      <trkpt lat="42.613592" lon="0.678947">
        <ele>2733.408</ele>
        <time>2019-07-06T11:38:42Z</time>
      </trkpt>
      <trkpt lat="42.613637" lon="0.678904">
        <ele>2732.956</ele>
        <time>2019-07-06T11:38:52Z</time>
      </trkpt>
      <trkpt lat="42.613674" lon="0.678858">
        <ele>2730.521</ele>
        <time>2019-07-06T11:39:00Z</time>
      </trkpt>
      <trkpt lat="42.613722" lon="0.678835">
        <ele>2733.716</ele>
        <time>2019-07-06T11:39:09Z</time>
      </trkpt>
      <trkpt lat="42.613771" lon="0.678825">
        <ele>2733.131</ele>
        <time>2019-07-06T11:39:21Z</time>
      </trkpt>
      <trkpt lat="42.613816" lon="0.678807">
        <ele>2737.765</ele>
        <time>2019-07-06T11:39:37Z</time>
      </trkpt>
      <trkpt lat="42.613853" lon="0.678849">
        <ele>2736.021</ele>
        <time>2019-07-06T11:40:17Z</time>
      </trkpt>
      <trkpt lat="42.613880" lon="0.678904">
        <ele>2737.495</ele>
        <time>2019-07-06T11:40:21Z</time>
      </trkpt>
      <trkpt lat="42.613929" lon="0.678903">
        <ele>2738.787</ele>
        <time>2019-07-06T11:40:28Z</time>
      </trkpt>
      <trkpt lat="42.613974" lon="0.678878">
        <ele>2738.114</ele>
        <time>2019-07-06T11:40:36Z</time>
      </trkpt>
      <trkpt lat="42.614017" lon="0.678851">
        <ele>2739.854</ele>
        <time>2019-07-06T11:40:50Z</time>
      </trkpt>
      <trkpt lat="42.614063" lon="0.678845">
        <ele>2738.309</ele>
        <time>2019-07-06T11:40:59Z</time>
      </trkpt>
      <trkpt lat="42.614110" lon="0.678838">
        <ele>2739.708</ele>
        <time>2019-07-06T11:41:06Z</time>
      </trkpt>
      <trkpt lat="42.614160" lon="0.678855">
        <ele>2745.044</ele>
        <time>2019-07-06T11:41:32Z</time>
      </trkpt>
      <trkpt lat="42.614207" lon="0.678869">
        <ele>2744.959</ele>
        <time>2019-07-06T11:41:39Z</time>
      </trkpt>
      <trkpt lat="42.614240" lon="0.678827">
        <ele>2746.744</ele>
        <time>2019-07-06T11:41:44Z</time>
      </trkpt>
      <trkpt lat="42.614280" lon="0.678780">
        <ele>2747.989</ele>
        <time>2019-07-06T11:41:50Z</time>
      </trkpt>
      <trkpt lat="42.614324" lon="0.678806">
        <ele>2750.153</ele>
        <time>2019-07-06T11:42:04Z</time>
      </trkpt>
      <trkpt lat="42.614361" lon="0.678770">
        <ele>2755.169</ele>
        <time>2019-07-06T11:42:38Z</time>
      </trkpt>
      <trkpt lat="42.614410" lon="0.678762">
        <ele>2755.893</ele>
        <time>2019-07-06T11:42:49Z</time>
      </trkpt>
      <trkpt lat="42.614417" lon="0.678700">
        <ele>2758.525</ele>
        <time>2019-07-06T11:43:15Z</time>
      </trkpt>
      <trkpt lat="42.614460" lon="0.678722">
        <ele>2759.977</ele>
        <time>2019-07-06T11:43:42Z</time>
      </trkpt>
      <trkpt lat="42.614503" lon="0.678701">
        <ele>2764.061</ele>
        <time>2019-07-06T11:44:59Z</time>
      </trkpt>
      <trkpt lat="42.614505" lon="0.678640">
        <ele>2759.527</ele>
        <time>2019-07-06T11:46:23Z</time>
      </trkpt>
      <trkpt lat="42.614479" lon="0.678692">
        <ele>2764.208</ele>
        <time>2019-07-06T11:46:52Z</time>
      </trkpt>
      <trkpt lat="42.614523" lon="0.678677">
        <ele>2762.390</ele>
        <time>2019-07-06T11:47:47Z</time>
      </trkpt>
      <trkpt lat="42.614497" lon="0.678729">
        <ele>2760.165</ele>
        <time>2019-07-06T11:48:16Z</time>
      </trkpt>
      <trkpt lat="42.614461" lon="0.678775">
        <ele>2759.870</ele>
        <time>2019-07-06T11:48:43Z</time>
      </trkpt>
      <trkpt lat="42.614425" lon="0.678731">
        <ele>2753.845</ele>
        <time>2019-07-06T11:49:15Z</time>
      </trkpt>
      <trkpt lat="42.614385" lon="0.678759">
        <ele>2749.159</ele>
        <time>2019-07-06T11:50:50Z</time>
      </trkpt>
      <trkpt lat="42.614338" lon="0.678775">
        <ele>2747.925</ele>
        <time>2019-07-06T11:50:56Z</time>
      </trkpt>
      <trkpt lat="42.614290" lon="0.678764">
        <ele>2747.489</ele>
        <time>2019-07-06T11:51:08Z</time>
      </trkpt>
      <trkpt lat="42.614243" lon="0.678771">
        <ele>2746.941</ele>
        <time>2019-07-06T11:51:18Z</time>
      </trkpt>
      <trkpt lat="42.614195" lon="0.678780">
        <ele>2745.345</ele>
        <time>2019-07-06T11:51:27Z</time>
      </trkpt>
      <trkpt lat="42.614150" lon="0.678762">
        <ele>2742.947</ele>
        <time>2019-07-06T11:51:41Z</time>
      </trkpt>
      <trkpt lat="42.614106" lon="0.678782">
        <ele>2739.611</ele>
        <time>2019-07-06T11:51:52Z</time>
      </trkpt>
      <trkpt lat="42.614061" lon="0.678798">
        <ele>2738.208</ele>
        <time>2019-07-06T11:52:02Z</time>
      </trkpt>
      <trkpt lat="42.614014" lon="0.678831">
        <ele>2739.017</ele>
        <time>2019-07-06T11:52:07Z</time>
      </trkpt>
      <trkpt lat="42.613971" lon="0.678855">
        <ele>2738.262</ele>
        <time>2019-07-06T11:52:12Z</time>
      </trkpt>
      <trkpt lat="42.613932" lon="0.678892">
        <ele>2739.047</ele>
        <time>2019-07-06T11:52:18Z</time>
      </trkpt>
      <trkpt lat="42.613885" lon="0.678886">
        <ele>2737.712</ele>
        <time>2019-07-06T11:52:28Z</time>
      </trkpt>
      <trkpt lat="42.613840" lon="0.678898">
        <ele>2736.076</ele>
        <time>2019-07-06T11:52:36Z</time>
      </trkpt>
      <trkpt lat="42.613794" lon="0.678888">
        <ele>2733.522</ele>
        <time>2019-07-06T11:52:47Z</time>
      </trkpt>
      <trkpt lat="42.613744" lon="0.678874">
        <ele>2731.116</ele>
        <time>2019-07-06T11:52:57Z</time>
      </trkpt>
      <trkpt lat="42.613701" lon="0.678856">
        <ele>2730.228</ele>
        <time>2019-07-06T11:53:03Z</time>
      </trkpt>
      <trkpt lat="42.613657" lon="0.678829">
        <ele>2727.583</ele>
        <time>2019-07-06T11:53:28Z</time>
      </trkpt>
      <trkpt lat="42.613627" lon="0.678775">
        <ele>2723.925</ele>
        <time>2019-07-06T11:53:42Z</time>
      </trkpt>
      <trkpt lat="42.613609" lon="0.678716">
        <ele>2721.417</ele>
        <time>2019-07-06T11:53:51Z</time>
      </trkpt>
      <trkpt lat="42.613570" lon="0.678667">
        <ele>2720.008</ele>
        <time>2019-07-06T11:53:57Z</time>
      </trkpt>
      <trkpt lat="42.613519" lon="0.678646">
        <ele>2719.041</ele>
        <time>2019-07-06T11:54:05Z</time>
      </trkpt>
      <trkpt lat="42.613486" lon="0.678601">
        <ele>2718.286</ele>
        <time>2019-07-06T11:54:12Z</time>
      </trkpt>
      <trkpt lat="42.613458" lon="0.678550">
        <ele>2718.841</ele>
        <time>2019-07-06T11:54:21Z</time>
      </trkpt>
      <trkpt lat="42.613439" lon="0.678493">
        <ele>2718.226</ele>
        <time>2019-07-06T11:54:26Z</time>
      </trkpt>
      <trkpt lat="42.613421" lon="0.678426">
        <ele>2716.960</ele>
        <time>2019-07-06T11:54:32Z</time>
      </trkpt>
      <trkpt lat="42.613397" lon="0.678371">
        <ele>2717.436</ele>
        <time>2019-07-06T11:54:37Z</time>
      </trkpt>
      <trkpt lat="42.613366" lon="0.678325">
        <ele>2716.760</ele>
        <time>2019-07-06T11:54:58Z</time>
      </trkpt>
      <trkpt lat="42.613363" lon="0.678263">
        <ele>2715.982</ele>
        <time>2019-07-06T11:55:08Z</time>
      </trkpt>
      <trkpt lat="42.613339" lon="0.678208">
        <ele>2712.848</ele>
        <time>2019-07-06T11:56:02Z</time>
      </trkpt>
      <trkpt lat="42.613297" lon="0.678185">
        <ele>2709.961</ele>
        <time>2019-07-06T11:57:09Z</time>
      </trkpt>
      <trkpt lat="42.613258" lon="0.678218">
        <ele>2709.617</ele>
        <time>2019-07-06T11:57:21Z</time>
      </trkpt>
      <trkpt lat="42.613212" lon="0.678236">
        <ele>2710.408</ele>
        <time>2019-07-06T11:57:25Z</time>
      </trkpt>
      <trkpt lat="42.613176" lon="0.678276">
        <ele>2711.587</ele>
        <time>2019-07-06T11:57:32Z</time>
      </trkpt>
      <trkpt lat="42.613131" lon="0.678261">
        <ele>2709.452</ele>
        <time>2019-07-06T11:57:45Z</time>
      </trkpt>
      <trkpt lat="42.613082" lon="0.678256">
        <ele>2709.877</ele>
        <time>2019-07-06T11:57:56Z</time>
      </trkpt>
      <trkpt lat="42.613051" lon="0.678210">
        <ele>2707.452</ele>
        <time>2019-07-06T11:58:03Z</time>
      </trkpt>
      <trkpt lat="42.613030" lon="0.678153">
        <ele>2707.696</ele>
        <time>2019-07-06T11:58:20Z</time>
      </trkpt>
      <trkpt lat="42.613008" lon="0.678095">
        <ele>2704.562</ele>
        <time>2019-07-06T11:58:30Z</time>
      </trkpt>
      <trkpt lat="42.612964" lon="0.678064">
        <ele>2701.816</ele>
        <time>2019-07-06T11:58:41Z</time>
      </trkpt>
      <trkpt lat="42.612934" lon="0.678015">
        <ele>2700.658</ele>
        <time>2019-07-06T11:58:49Z</time>
      </trkpt>
      <trkpt lat="42.612898" lon="0.677970">
        <ele>2698.342</ele>
        <time>2019-07-06T11:59:01Z</time>
      </trkpt>
      <trkpt lat="42.612896" lon="0.677908">
        <ele>2696.822</ele>
        <time>2019-07-06T11:59:13Z</time>
      </trkpt>
      <trkpt lat="42.612875" lon="0.677850">
        <ele>2695.714</ele>
        <time>2019-07-06T11:59:30Z</time>
      </trkpt>
      <trkpt lat="42.612855" lon="0.677792">
        <ele>2695.608</ele>
        <time>2019-07-06T11:59:40Z</time>
      </trkpt>
      <trkpt lat="42.612831" lon="0.677738">
        <ele>2694.287</ele>
        <time>2019-07-06T11:59:50Z</time>
      </trkpt>
      <trkpt lat="42.612839" lon="0.677677">
        <ele>2692.192</ele>
        <time>2019-07-06T11:59:56Z</time>
      </trkpt>
      <trkpt lat="42.612821" lon="0.677611">
        <ele>2691.277</ele>
        <time>2019-07-06T12:00:06Z</time>
      </trkpt>
      <trkpt lat="42.612841" lon="0.677550">
        <ele>2691.042</ele>
        <time>2019-07-06T12:00:11Z</time>
      </trkpt>
      <trkpt lat="42.612853" lon="0.677490">
        <ele>2691.266</ele>
        <time>2019-07-06T12:00:17Z</time>
      </trkpt>
      <trkpt lat="42.612816" lon="0.677455">
        <ele>2690.162</ele>
        <time>2019-07-06T12:00:38Z</time>
      </trkpt>
      <trkpt lat="42.612859" lon="0.677423">
        <ele>2688.636</ele>
        <time>2019-07-06T12:01:47Z</time>
      </trkpt>
      <trkpt lat="42.612904" lon="0.677420">
        <ele>2689.878</ele>
        <time>2019-07-06T12:02:02Z</time>
      </trkpt>
      <trkpt lat="42.612920" lon="0.677477">
        <ele>2688.465</ele>
        <time>2019-07-06T12:02:21Z</time>
      </trkpt>
      <trkpt lat="42.612920" lon="0.677541">
        <ele>2691.468</ele>
        <time>2019-07-06T12:02:31Z</time>
      </trkpt>
      <trkpt lat="42.612898" lon="0.677599">
        <ele>2691.914</ele>
        <time>2019-07-06T12:02:38Z</time>
      </trkpt>
      <trkpt lat="42.612854" lon="0.677634">
        <ele>2691.908</ele>
        <time>2019-07-06T12:02:45Z</time>
      </trkpt>
      <trkpt lat="42.612809" lon="0.677597">
        <ele>2691.859</ele>
        <time>2019-07-06T12:02:58Z</time>
      </trkpt>
      <trkpt lat="42.612767" lon="0.677571">
        <ele>2692.234</ele>
        <time>2019-07-06T12:03:05Z</time>
      </trkpt>
      <trkpt lat="42.612713" lon="0.677581">
        <ele>2692.589</ele>
        <time>2019-07-06T12:03:11Z</time>
      </trkpt>
      <trkpt lat="42.612665" lon="0.677589">
        <ele>2692.334</ele>
        <time>2019-07-06T12:03:17Z</time>
      </trkpt>
      <trkpt lat="42.612616" lon="0.677606">
        <ele>2692.648</ele>
        <time>2019-07-06T12:03:23Z</time>
      </trkpt>
      <trkpt lat="42.612569" lon="0.677619">
        <ele>2692.334</ele>
        <time>2019-07-06T12:03:32Z</time>
      </trkpt>
      <trkpt lat="42.612524" lon="0.677622">
        <ele>2691.838</ele>
        <time>2019-07-06T12:03:40Z</time>
      </trkpt>
      <trkpt lat="42.612478" lon="0.677643">
        <ele>2692.290</ele>
        <time>2019-07-06T12:03:46Z</time>
      </trkpt>
      <trkpt lat="42.612437" lon="0.677670">
        <ele>2691.928</ele>
        <time>2019-07-06T12:03:50Z</time>
      </trkpt>
      <trkpt lat="42.612388" lon="0.677681">
        <ele>2691.789</ele>
        <time>2019-07-06T12:03:55Z</time>
      </trkpt>
      <trkpt lat="42.612358" lon="0.677623">
        <ele>2691.917</ele>
        <time>2019-07-06T12:04:03Z</time>
      </trkpt>
      <trkpt lat="42.612373" lon="0.677560">
        <ele>2691.808</ele>
        <time>2019-07-06T12:04:11Z</time>
      </trkpt>
      <trkpt lat="42.612334" lon="0.677517">
        <ele>2692.135</ele>
        <time>2019-07-06T12:04:20Z</time>
      </trkpt>
      <trkpt lat="42.612321" lon="0.677456">
        <ele>2691.870</ele>
        <time>2019-07-06T12:04:27Z</time>
      </trkpt>
      <trkpt lat="42.612325" lon="0.677389">
        <ele>2692.125</ele>
        <time>2019-07-06T12:04:33Z</time>
      </trkpt>
      <trkpt lat="42.612323" lon="0.677326">
        <ele>2692.880</ele>
        <time>2019-07-06T12:04:38Z</time>
      </trkpt>
      <trkpt lat="42.612324" lon="0.677250">
        <ele>2690.714</ele>
        <time>2019-07-06T12:04:48Z</time>
      </trkpt>
      <trkpt lat="42.612328" lon="0.677181">
        <ele>2690.360</ele>
        <time>2019-07-06T12:04:51Z</time>
      </trkpt>
      <trkpt lat="42.612347" lon="0.677117">
        <ele>2691.014</ele>
        <time>2019-07-06T12:04:54Z</time>
      </trkpt>
      <trkpt lat="42.612386" lon="0.677070">
        <ele>2688.776</ele>
        <time>2019-07-06T12:05:01Z</time>
      </trkpt>
      <trkpt lat="42.612430" lon="0.677056">
        <ele>2689.759</ele>
        <time>2019-07-06T12:05:04Z</time>
      </trkpt>
      <trkpt lat="42.612467" lon="0.677010">
        <ele>2688.803</ele>
        <time>2019-07-06T12:05:09Z</time>
      </trkpt>
      <trkpt lat="42.612512" lon="0.676984">
        <ele>2688.323</ele>
        <time>2019-07-06T12:05:22Z</time>
      </trkpt>
      <trkpt lat="42.612534" lon="0.676928">
        <ele>2688.208</ele>
        <time>2019-07-06T12:05:43Z</time>
      </trkpt>
      <trkpt lat="42.612560" lon="0.676877">
        <ele>2692.458</ele>
        <time>2019-07-06T12:06:08Z</time>
      </trkpt>
      <trkpt lat="42.612515" lon="0.676869">
        <ele>2688.353</ele>
        <time>2019-07-06T12:06:29Z</time>
      </trkpt>
      <trkpt lat="42.612448" lon="0.676815">
        <ele>2689.838</ele>
        <time>2019-07-06T12:49:30Z</time>
      </trkpt>
      <trkpt lat="42.612402" lon="0.676801">
        <ele>2688.813</ele>
        <time>2019-07-06T12:50:04Z</time>
      </trkpt>
      <trkpt lat="42.612406" lon="0.676737">
        <ele>2688.927</ele>
        <time>2019-07-06T12:50:19Z</time>
      </trkpt>
      <trkpt lat="42.612398" lon="0.676677">
        <ele>2687.833</ele>
        <time>2019-07-06T12:50:33Z</time>
      </trkpt>
      <trkpt lat="42.612382" lon="0.676743">
        <ele>2688.397</ele>
        <time>2019-07-06T12:50:54Z</time>
      </trkpt>
      <trkpt lat="42.612358" lon="0.676803">
        <ele>2688.119</ele>
        <time>2019-07-06T12:50:59Z</time>
      </trkpt>
      <trkpt lat="42.612322" lon="0.676856">
        <ele>2690.593</ele>
        <time>2019-07-06T12:51:06Z</time>
      </trkpt>
      <trkpt lat="42.612303" lon="0.676912">
        <ele>2689.065</ele>
        <time>2019-07-06T12:51:13Z</time>
      </trkpt>
      <trkpt lat="42.612285" lon="0.676969">
        <ele>2688.121</ele>
        <time>2019-07-06T12:51:24Z</time>
      </trkpt>
      <trkpt lat="42.612237" lon="0.676968">
        <ele>2687.508</ele>
        <time>2019-07-06T12:51:38Z</time>
      </trkpt>
      <trkpt lat="42.612184" lon="0.676953">
        <ele>2686.382</ele>
        <time>2019-07-06T12:51:45Z</time>
      </trkpt>
      <trkpt lat="42.612149" lon="0.676911">
        <ele>2686.127</ele>
        <time>2019-07-06T12:51:51Z</time>
      </trkpt>
      <trkpt lat="42.612117" lon="0.676863">
        <ele>2685.932</ele>
        <time>2019-07-06T12:51:57Z</time>
      </trkpt>
      <trkpt lat="42.612069" lon="0.676837">
        <ele>2685.317</ele>
        <time>2019-07-06T12:52:08Z</time>
      </trkpt>
      <trkpt lat="42.612026" lon="0.676811">
        <ele>2683.331</ele>
        <time>2019-07-06T12:52:22Z</time>
      </trkpt>
      <trkpt lat="42.611979" lon="0.676816">
        <ele>2682.217</ele>
        <time>2019-07-06T12:52:29Z</time>
      </trkpt>
      <trkpt lat="42.611942" lon="0.676866">
        <ele>2681.821</ele>
        <time>2019-07-06T12:52:35Z</time>
      </trkpt>
      <trkpt lat="42.611908" lon="0.676908">
        <ele>2682.053</ele>
        <time>2019-07-06T12:52:43Z</time>
      </trkpt>
      <trkpt lat="42.611871" lon="0.676956">
        <ele>2683.112</ele>
        <time>2019-07-06T12:52:49Z</time>
      </trkpt>
      <trkpt lat="42.611831" lon="0.676997">
        <ele>2681.432</ele>
        <time>2019-07-06T12:53:04Z</time>
      </trkpt>
      <trkpt lat="42.611786" lon="0.676980">
        <ele>2680.605</ele>
        <time>2019-07-06T12:53:15Z</time>
      </trkpt>
      <trkpt lat="42.611739" lon="0.676947">
        <ele>2679.208</ele>
        <time>2019-07-06T12:53:27Z</time>
      </trkpt>
      <trkpt lat="42.611696" lon="0.676925">
        <ele>2678.474</ele>
        <time>2019-07-06T12:53:33Z</time>
      </trkpt>
      <trkpt lat="42.611648" lon="0.676937">
        <ele>2678.789</ele>
        <time>2019-07-06T12:53:39Z</time>
      </trkpt>
      <trkpt lat="42.611621" lon="0.676993">
        <ele>2678.544</ele>
        <time>2019-07-06T12:53:44Z</time>
      </trkpt>
      <trkpt lat="42.611579" lon="0.677017">
        <ele>2679.959</ele>
        <time>2019-07-06T12:53:51Z</time>
      </trkpt>
      <trkpt lat="42.611538" lon="0.676985">
        <ele>2678.863</ele>
        <time>2019-07-06T12:54:06Z</time>
      </trkpt>
      <trkpt lat="42.611506" lon="0.676939">
        <ele>2678.469</ele>
        <time>2019-07-06T12:54:13Z</time>
      </trkpt>
      <trkpt lat="42.611478" lon="0.676885">
        <ele>2678.623</ele>
        <time>2019-07-06T12:54:31Z</time>
      </trkpt>
      <trkpt lat="42.611489" lon="0.676824">
        <ele>2677.355</ele>
        <time>2019-07-06T12:54:40Z</time>
      </trkpt>
      <trkpt lat="42.611456" lon="0.676779">
        <ele>2678.837</ele>
        <time>2019-07-06T12:54:52Z</time>
      </trkpt>
      <trkpt lat="42.611408" lon="0.676755">
        <ele>2679.149</ele>
        <time>2019-07-06T12:54:59Z</time>
      </trkpt>
      <trkpt lat="42.611373" lon="0.676712">
        <ele>2680.313</ele>
        <time>2019-07-06T12:55:08Z</time>
      </trkpt>
      <trkpt lat="42.611332" lon="0.676687">
        <ele>2680.508</ele>
        <time>2019-07-06T12:55:14Z</time>
      </trkpt>
      <trkpt lat="42.611289" lon="0.676656">
        <ele>2682.696</ele>
        <time>2019-07-06T12:55:20Z</time>
      </trkpt>
      <trkpt lat="42.611252" lon="0.676612">
        <ele>2683.951</ele>
        <time>2019-07-06T12:55:28Z</time>
      </trkpt>
      <trkpt lat="42.611220" lon="0.676557">
        <ele>2684.776</ele>
        <time>2019-07-06T12:55:36Z</time>
      </trkpt>
      <trkpt lat="42.611175" lon="0.676537">
        <ele>2686.731</ele>
        <time>2019-07-06T12:55:58Z</time>
      </trkpt>
      <trkpt lat="42.611130" lon="0.676528">
        <ele>2687.865</ele>
        <time>2019-07-06T12:56:06Z</time>
      </trkpt>
      <trkpt lat="42.611085" lon="0.676508">
        <ele>2687.361</ele>
        <time>2019-07-06T12:56:14Z</time>
      </trkpt>
      <trkpt lat="42.611039" lon="0.676499">
        <ele>2686.455</ele>
        <time>2019-07-06T12:56:21Z</time>
      </trkpt>
      <trkpt lat="42.610991" lon="0.676476">
        <ele>2686.327</ele>
        <time>2019-07-06T12:56:27Z</time>
      </trkpt>
      <trkpt lat="42.610945" lon="0.676463">
        <ele>2686.387</ele>
        <time>2019-07-06T12:56:31Z</time>
      </trkpt>
      <trkpt lat="42.610895" lon="0.676470">
        <ele>2684.742</ele>
        <time>2019-07-06T12:56:38Z</time>
      </trkpt>
      <trkpt lat="42.610850" lon="0.676481">
        <ele>2685.526</ele>
        <time>2019-07-06T12:56:46Z</time>
      </trkpt>
      <trkpt lat="42.610806" lon="0.676512">
        <ele>2685.908</ele>
        <time>2019-07-06T12:56:52Z</time>
      </trkpt>
      <trkpt lat="42.610762" lon="0.676535">
        <ele>2685.391</ele>
        <time>2019-07-06T12:56:57Z</time>
      </trkpt>
      <trkpt lat="42.610719" lon="0.676560">
        <ele>2685.026</ele>
        <time>2019-07-06T12:57:03Z</time>
      </trkpt>
      <trkpt lat="42.610669" lon="0.676561">
        <ele>2685.621</ele>
        <time>2019-07-06T12:57:09Z</time>
      </trkpt>
      <trkpt lat="42.610625" lon="0.676575">
        <ele>2685.516</ele>
        <time>2019-07-06T12:57:14Z</time>
      </trkpt>
      <trkpt lat="42.610579" lon="0.676594">
        <ele>2684.450</ele>
        <time>2019-07-06T12:57:28Z</time>
      </trkpt>
      <trkpt lat="42.610545" lon="0.676635">
        <ele>2684.026</ele>
        <time>2019-07-06T12:57:35Z</time>
      </trkpt>
      <trkpt lat="42.610575" lon="0.676588">
        <ele>2685.020</ele>
        <time>2019-07-06T12:57:57Z</time>
      </trkpt>
      <trkpt lat="42.610616" lon="0.676561">
        <ele>2685.432</ele>
        <time>2019-07-06T12:58:01Z</time>
      </trkpt>
      <trkpt lat="42.610643" lon="0.676510">
        <ele>2684.237</ele>
        <time>2019-07-06T12:58:08Z</time>
      </trkpt>
      <trkpt lat="42.610611" lon="0.676458">
        <ele>2682.749</ele>
        <time>2019-07-06T12:58:21Z</time>
      </trkpt>
      <trkpt lat="42.610586" lon="0.676405">
        <ele>2682.513</ele>
        <time>2019-07-06T12:58:29Z</time>
      </trkpt>
      <trkpt lat="42.610558" lon="0.676351">
        <ele>2684.608</ele>
        <time>2019-07-06T12:58:38Z</time>
      </trkpt>
      <trkpt lat="42.610507" lon="0.676346">
        <ele>2684.636</ele>
        <time>2019-07-06T12:58:48Z</time>
      </trkpt>
      <trkpt lat="42.610472" lon="0.676307">
        <ele>2684.651</ele>
        <time>2019-07-06T12:58:58Z</time>
      </trkpt>
      <trkpt lat="42.610427" lon="0.676275">
        <ele>2683.946</ele>
        <time>2019-07-06T12:59:05Z</time>
      </trkpt>
      <trkpt lat="42.610381" lon="0.676252">
        <ele>2684.291</ele>
        <time>2019-07-06T12:59:10Z</time>
      </trkpt>
      <trkpt lat="42.610340" lon="0.676221">
        <ele>2684.255</ele>
        <time>2019-07-06T12:59:16Z</time>
      </trkpt>
      <trkpt lat="42.610307" lon="0.676171">
        <ele>2683.471</ele>
        <time>2019-07-06T12:59:23Z</time>
      </trkpt>
      <trkpt lat="42.610281" lon="0.676113">
        <ele>2681.885</ele>
        <time>2019-07-06T12:59:32Z</time>
      </trkpt>
      <trkpt lat="42.610259" lon="0.676054">
        <ele>2681.447</ele>
        <time>2019-07-06T12:59:37Z</time>
      </trkpt>
      <trkpt lat="42.610229" lon="0.675997">
        <ele>2680.659</ele>
        <time>2019-07-06T12:59:47Z</time>
      </trkpt>
      <trkpt lat="42.610188" lon="0.675966">
        <ele>2681.203</ele>
        <time>2019-07-06T12:59:55Z</time>
      </trkpt>
      <trkpt lat="42.610138" lon="0.675981">
        <ele>2681.123</ele>
        <time>2019-07-06T13:00:01Z</time>
      </trkpt>
      <trkpt lat="42.610085" lon="0.675989">
        <ele>2682.608</ele>
        <time>2019-07-06T13:00:07Z</time>
      </trkpt>
      <trkpt lat="42.610035" lon="0.675983">
        <ele>2683.938</ele>
        <time>2019-07-06T13:00:13Z</time>
      </trkpt>
      <trkpt lat="42.609993" lon="0.675956">
        <ele>2681.873</ele>
        <time>2019-07-06T13:00:23Z</time>
      </trkpt>
      <trkpt lat="42.609946" lon="0.675985">
        <ele>2683.178</ele>
        <time>2019-07-06T13:00:30Z</time>
      </trkpt>
      <trkpt lat="42.609908" lon="0.675950">
        <ele>2683.153</ele>
        <time>2019-07-06T13:00:47Z</time>
      </trkpt>
      <trkpt lat="42.609859" lon="0.675964">
        <ele>2685.537</ele>
        <time>2019-07-06T13:00:58Z</time>
      </trkpt>
      <trkpt lat="42.609814" lon="0.675988">
        <ele>2685.093</ele>
        <time>2019-07-06T13:01:06Z</time>
      </trkpt>
      <trkpt lat="42.609780" lon="0.676031">
        <ele>2684.157</ele>
        <time>2019-07-06T13:01:15Z</time>
      </trkpt>
      <trkpt lat="42.609743" lon="0.675995">
        <ele>2684.589</ele>
        <time>2019-07-06T13:01:23Z</time>
      </trkpt>
      <trkpt lat="42.609746" lon="0.675929">
        <ele>2684.974</ele>
        <time>2019-07-06T13:01:29Z</time>
      </trkpt>
      <trkpt lat="42.609749" lon="0.675860">
        <ele>2684.956</ele>
        <time>2019-07-06T13:01:34Z</time>
      </trkpt>
      <trkpt lat="42.609737" lon="0.675796">
        <ele>2685.421</ele>
        <time>2019-07-06T13:01:41Z</time>
      </trkpt>
      <trkpt lat="42.609714" lon="0.675734">
        <ele>2684.308</ele>
        <time>2019-07-06T13:01:51Z</time>
      </trkpt>
      <trkpt lat="42.609675" lon="0.675700">
        <ele>2683.920</ele>
        <time>2019-07-06T13:01:55Z</time>
      </trkpt>
      <trkpt lat="42.609657" lon="0.675638">
        <ele>2683.985</ele>
        <time>2019-07-06T13:02:00Z</time>
      </trkpt>
      <trkpt lat="42.609662" lon="0.675569">
        <ele>2684.310</ele>
        <time>2019-07-06T13:02:07Z</time>
      </trkpt>
      <trkpt lat="42.609685" lon="0.675509">
        <ele>2684.275</ele>
        <time>2019-07-06T13:02:16Z</time>
      </trkpt>
      <trkpt lat="42.609690" lon="0.675447">
        <ele>2685.529</ele>
        <time>2019-07-06T13:02:23Z</time>
      </trkpt>
      <trkpt lat="42.609717" lon="0.675392">
        <ele>2686.155</ele>
        <time>2019-07-06T13:02:28Z</time>
      </trkpt>
      <trkpt lat="42.609711" lon="0.675330">
        <ele>2686.329</ele>
        <time>2019-07-06T13:02:47Z</time>
      </trkpt>
      <trkpt lat="42.609679" lon="0.675282">
        <ele>2687.131</ele>
        <time>2019-07-06T13:03:06Z</time>
      </trkpt>
      <trkpt lat="42.609637" lon="0.675260">
        <ele>2686.478</ele>
        <time>2019-07-06T13:03:27Z</time>
      </trkpt>
      <trkpt lat="42.609592" lon="0.675238">
        <ele>2684.733</ele>
        <time>2019-07-06T13:03:42Z</time>
      </trkpt>
      <trkpt lat="42.609546" lon="0.675224">
        <ele>2682.726</ele>
        <time>2019-07-06T13:03:50Z</time>
      </trkpt>
      <trkpt lat="42.609499" lon="0.675220">
        <ele>2684.108</ele>
        <time>2019-07-06T13:03:57Z</time>
      </trkpt>
      <trkpt lat="42.609458" lon="0.675244">
        <ele>2683.360</ele>
        <time>2019-07-06T13:04:06Z</time>
      </trkpt>
      <trkpt lat="42.609416" lon="0.675273">
        <ele>2680.745</ele>
        <time>2019-07-06T13:04:18Z</time>
      </trkpt>
      <trkpt lat="42.609369" lon="0.675260">
        <ele>2681.080</ele>
        <time>2019-07-06T13:04:32Z</time>
      </trkpt>
      <trkpt lat="42.609350" lon="0.675202">
        <ele>2679.045</ele>
        <time>2019-07-06T13:04:51Z</time>
      </trkpt>
      <trkpt lat="42.609331" lon="0.675143">
        <ele>2679.239</ele>
        <time>2019-07-06T13:05:01Z</time>
      </trkpt>
      <trkpt lat="42.609315" lon="0.675078">
        <ele>2679.425</ele>
        <time>2019-07-06T13:05:16Z</time>
      </trkpt>
      <trkpt lat="42.609267" lon="0.675073">
        <ele>2677.129</ele>
        <time>2019-07-06T13:05:31Z</time>
      </trkpt>
      <trkpt lat="42.609234" lon="0.675117">
        <ele>2676.141</ele>
        <time>2019-07-06T13:05:40Z</time>
      </trkpt>
      <trkpt lat="42.609188" lon="0.675132">
        <ele>2675.914</ele>
        <time>2019-07-06T13:06:32Z</time>
      </trkpt>
      <trkpt lat="42.609148" lon="0.675160">
        <ele>2676.854</ele>
        <time>2019-07-06T13:06:47Z</time>
      </trkpt>
      <trkpt lat="42.609101" lon="0.675147">
        <ele>2671.809</ele>
        <time>2019-07-06T13:10:49Z</time>
      </trkpt>
      <trkpt lat="42.609056" lon="0.675169">
        <ele>2669.908</ele>
        <time>2019-07-06T13:10:57Z</time>
      </trkpt>
      <trkpt lat="42.609017" lon="0.675202">
        <ele>2668.534</ele>
        <time>2019-07-06T13:11:06Z</time>
      </trkpt>
      <trkpt lat="42.608993" lon="0.675261">
        <ele>2666.879</ele>
        <time>2019-07-06T13:11:24Z</time>
      </trkpt>
      <trkpt lat="42.608957" lon="0.675303">
        <ele>2665.484</ele>
        <time>2019-07-06T13:11:34Z</time>
      </trkpt>
      <trkpt lat="42.608925" lon="0.675352">
        <ele>2664.999</ele>
        <time>2019-07-06T13:11:55Z</time>
      </trkpt>
      <trkpt lat="42.608909" lon="0.675295">
        <ele>2663.963</ele>
        <time>2019-07-06T13:12:19Z</time>
      </trkpt>
      <trkpt lat="42.608904" lon="0.675225">
        <ele>2664.679</ele>
        <time>2019-07-06T13:12:25Z</time>
      </trkpt>
      <trkpt lat="42.608868" lon="0.675187">
        <ele>2666.253</ele>
        <time>2019-07-06T13:12:34Z</time>
      </trkpt>
      <trkpt lat="42.608836" lon="0.675142">
        <ele>2669.155</ele>
        <time>2019-07-06T13:12:52Z</time>
      </trkpt>
      <trkpt lat="42.608792" lon="0.675117">
        <ele>2668.178</ele>
        <time>2019-07-06T13:13:02Z</time>
      </trkpt>
      <trkpt lat="42.608770" lon="0.675058">
        <ele>2670.633</ele>
        <time>2019-07-06T13:13:15Z</time>
      </trkpt>
      <trkpt lat="42.608738" lon="0.675012">
        <ele>2669.626</ele>
        <time>2019-07-06T13:13:24Z</time>
      </trkpt>
      <trkpt lat="42.608694" lon="0.674992">
        <ele>2673.108</ele>
        <time>2019-07-06T13:13:34Z</time>
      </trkpt>
      <trkpt lat="42.608649" lon="0.674963">
        <ele>2672.590</ele>
        <time>2019-07-06T13:14:02Z</time>
      </trkpt>
      <trkpt lat="42.608617" lon="0.674919">
        <ele>2671.545</ele>
        <time>2019-07-06T13:14:37Z</time>
      </trkpt>
      <trkpt lat="42.608574" lon="0.674889">
        <ele>2670.840</ele>
        <time>2019-07-06T13:14:43Z</time>
      </trkpt>
      <trkpt lat="42.608544" lon="0.674937">
        <ele>2671.415</ele>
        <time>2019-07-06T13:14:56Z</time>
      </trkpt>
      <trkpt lat="42.608516" lon="0.674889">
        <ele>2672.479</ele>
        <time>2019-07-06T13:15:14Z</time>
      </trkpt>
      <trkpt lat="42.608482" lon="0.674838">
        <ele>2673.885</ele>
        <time>2019-07-06T13:15:29Z</time>
      </trkpt>
      <trkpt lat="42.608483" lon="0.674774">
        <ele>2676.039</ele>
        <time>2019-07-06T13:15:36Z</time>
      </trkpt>
      <trkpt lat="42.608437" lon="0.674776">
        <ele>2675.521</ele>
        <time>2019-07-06T13:16:01Z</time>
      </trkpt>
      <trkpt lat="42.608391" lon="0.674790">
        <ele>2676.072</ele>
        <time>2019-07-06T13:16:08Z</time>
      </trkpt>
      <trkpt lat="42.608343" lon="0.674811">
        <ele>2676.313</ele>
        <time>2019-07-06T13:16:16Z</time>
      </trkpt>
      <trkpt lat="42.608297" lon="0.674840">
        <ele>2678.914</ele>
        <time>2019-07-06T13:16:25Z</time>
      </trkpt>
      <trkpt lat="42.608252" lon="0.674850">
        <ele>2678.308</ele>
        <time>2019-07-06T13:16:34Z</time>
      </trkpt>
      <trkpt lat="42.608222" lon="0.674899">
        <ele>2674.670</ele>
        <time>2019-07-06T13:17:16Z</time>
      </trkpt>
      <trkpt lat="42.608254" lon="0.674833">
        <ele>2675.595</ele>
        <time>2019-07-06T13:17:22Z</time>
      </trkpt>
      <trkpt lat="42.608227" lon="0.674780">
        <ele>2678.020</ele>
        <time>2019-07-06T13:17:35Z</time>
      </trkpt>
      <trkpt lat="42.608192" lon="0.674742">
        <ele>2677.925</ele>
        <time>2019-07-06T13:17:41Z</time>
      </trkpt>
      <trkpt lat="42.608161" lon="0.674694">
        <ele>2680.989</ele>
        <time>2019-07-06T13:17:58Z</time>
      </trkpt>
      <trkpt lat="42.608121" lon="0.674663">
        <ele>2683.655</ele>
        <time>2019-07-06T13:18:21Z</time>
      </trkpt>
      <trkpt lat="42.608095" lon="0.674613">
        <ele>2685.529</ele>
        <time>2019-07-06T13:18:40Z</time>
      </trkpt>
      <trkpt lat="42.608088" lon="0.674552">
        <ele>2686.481</ele>
        <time>2019-07-06T13:19:00Z</time>
      </trkpt>
      <trkpt lat="42.608058" lon="0.674506">
        <ele>2688.889</ele>
        <time>2019-07-06T13:19:15Z</time>
      </trkpt>
      <trkpt lat="42.608054" lon="0.674443">
        <ele>2691.706</ele>
        <time>2019-07-06T13:19:27Z</time>
      </trkpt>
      <trkpt lat="42.608008" lon="0.674432">
        <ele>2691.826</ele>
        <time>2019-07-06T13:20:25Z</time>
      </trkpt>
      <trkpt lat="42.607976" lon="0.674486">
        <ele>2691.808</ele>
        <time>2019-07-06T13:20:59Z</time>
      </trkpt>
      <trkpt lat="42.607943" lon="0.674536">
        <ele>2689.961</ele>
        <time>2019-07-06T13:21:12Z</time>
      </trkpt>
      <trkpt lat="42.607918" lon="0.674597">
        <ele>2690.356</ele>
        <time>2019-07-06T13:21:24Z</time>
      </trkpt>
      <trkpt lat="42.607870" lon="0.674582">
        <ele>2686.971</ele>
        <time>2019-07-06T13:21:44Z</time>
      </trkpt>
      <trkpt lat="42.607835" lon="0.674624">
        <ele>2684.746</ele>
        <time>2019-07-06T13:22:00Z</time>
      </trkpt>
      <trkpt lat="42.607808" lon="0.674674">
        <ele>2685.860</ele>
        <time>2019-07-06T13:22:05Z</time>
      </trkpt>
      <trkpt lat="42.607767" lon="0.674726">
        <ele>2685.936</ele>
        <time>2019-07-06T13:22:11Z</time>
      </trkpt>
      <trkpt lat="42.607732" lon="0.674769">
        <ele>2685.360</ele>
        <time>2019-07-06T13:22:16Z</time>
      </trkpt>
      <trkpt lat="42.607697" lon="0.674813">
        <ele>2686.252</ele>
        <time>2019-07-06T13:22:22Z</time>
      </trkpt>
      <trkpt lat="42.607666" lon="0.674875">
        <ele>2685.339</ele>
        <time>2019-07-06T13:22:45Z</time>
      </trkpt>
      <trkpt lat="42.607643" lon="0.674935">
        <ele>2685.701</ele>
        <time>2019-07-06T13:22:50Z</time>
      </trkpt>
      <trkpt lat="42.607601" lon="0.674963">
        <ele>2684.321</ele>
        <time>2019-07-06T13:23:00Z</time>
      </trkpt>
      <trkpt lat="42.607555" lon="0.674988">
        <ele>2682.708</ele>
        <time>2019-07-06T13:23:09Z</time>
      </trkpt>
      <trkpt lat="42.607520" lon="0.675044">
        <ele>2682.666</ele>
        <time>2019-07-06T13:23:13Z</time>
      </trkpt>
      <trkpt lat="42.607498" lon="0.675110">
        <ele>2683.791</ele>
        <time>2019-07-06T13:23:18Z</time>
      </trkpt>
      <trkpt lat="42.607471" lon="0.675162">
        <ele>2682.676</ele>
        <time>2019-07-06T13:23:24Z</time>
      </trkpt>
      <trkpt lat="42.607444" lon="0.675214">
        <ele>2681.931</ele>
        <time>2019-07-06T13:23:38Z</time>
      </trkpt>
      <trkpt lat="42.607400" lon="0.675227">
        <ele>2681.275</ele>
        <time>2019-07-06T13:23:54Z</time>
      </trkpt>
      <trkpt lat="42.607360" lon="0.675198">
        <ele>2679.531</ele>
        <time>2019-07-06T13:24:07Z</time>
      </trkpt>
      <trkpt lat="42.607315" lon="0.675179">
        <ele>2679.535</ele>
        <time>2019-07-06T13:24:22Z</time>
      </trkpt>
      <trkpt lat="42.607282" lon="0.675223">
        <ele>2678.887</ele>
        <time>2019-07-06T13:24:33Z</time>
      </trkpt>
      <trkpt lat="42.607255" lon="0.675285">
        <ele>2676.892</ele>
        <time>2019-07-06T13:24:38Z</time>
      </trkpt>
      <trkpt lat="42.607210" lon="0.675299">
        <ele>2677.873</ele>
        <time>2019-07-06T13:24:42Z</time>
      </trkpt>
      <trkpt lat="42.607167" lon="0.675319">
        <ele>2676.520</ele>
        <time>2019-07-06T13:24:47Z</time>
      </trkpt>
      <trkpt lat="42.607139" lon="0.675270">
        <ele>2679.108</ele>
        <time>2019-07-06T13:25:04Z</time>
      </trkpt>
      <trkpt lat="42.607094" lon="0.675290">
        <ele>2677.622</ele>
        <time>2019-07-06T13:25:14Z</time>
      </trkpt>
      <trkpt lat="42.607049" lon="0.675316">
        <ele>2675.287</ele>
        <time>2019-07-06T13:25:23Z</time>
      </trkpt>
      <trkpt lat="42.607009" lon="0.675351">
        <ele>2674.542</ele>
        <time>2019-07-06T13:25:28Z</time>
      </trkpt>
      <trkpt lat="42.606975" lon="0.675391">
        <ele>2674.587</ele>
        <time>2019-07-06T13:25:34Z</time>
      </trkpt>
      <trkpt lat="42.606945" lon="0.675440">
        <ele>2674.021</ele>
        <time>2019-07-06T13:25:43Z</time>
      </trkpt>
      <trkpt lat="42.606900" lon="0.675479">
        <ele>2674.537</ele>
        <time>2019-07-06T13:25:49Z</time>
      </trkpt>
      <trkpt lat="42.606859" lon="0.675515">
        <ele>2673.351</ele>
        <time>2019-07-06T13:25:54Z</time>
      </trkpt>
      <trkpt lat="42.606813" lon="0.675538">
        <ele>2672.493</ele>
        <time>2019-07-06T13:26:00Z</time>
      </trkpt>
      <trkpt lat="42.606773" lon="0.675580">
        <ele>2671.853</ele>
        <time>2019-07-06T13:26:06Z</time>
      </trkpt>
      <trkpt lat="42.606732" lon="0.675619">
        <ele>2672.204</ele>
        <time>2019-07-06T13:26:21Z</time>
      </trkpt>
      <trkpt lat="42.606684" lon="0.675650">
        <ele>2672.114</ele>
        <time>2019-07-06T13:26:26Z</time>
      </trkpt>
      <trkpt lat="42.606642" lon="0.675685">
        <ele>2670.608</ele>
        <time>2019-07-06T13:26:32Z</time>
      </trkpt>
      <trkpt lat="42.606608" lon="0.675735">
        <ele>2670.248</ele>
        <time>2019-07-06T13:26:39Z</time>
      </trkpt>
      <trkpt lat="42.606566" lon="0.675761">
        <ele>2668.143</ele>
        <time>2019-07-06T13:26:47Z</time>
      </trkpt>
      <trkpt lat="42.606521" lon="0.675771">
        <ele>2668.118</ele>
        <time>2019-07-06T13:26:56Z</time>
      </trkpt>
      <trkpt lat="42.606478" lon="0.675798">
        <ele>2665.073</ele>
        <time>2019-07-06T13:27:07Z</time>
      </trkpt>
      <trkpt lat="42.606438" lon="0.675836">
        <ele>2666.487</ele>
        <time>2019-07-06T13:27:14Z</time>
      </trkpt>
      <trkpt lat="42.606397" lon="0.675875">
        <ele>2666.393</ele>
        <time>2019-07-06T13:27:21Z</time>
      </trkpt>
      <trkpt lat="42.606368" lon="0.675932">
        <ele>2666.247</ele>
        <time>2019-07-06T13:27:27Z</time>
      </trkpt>
      <trkpt lat="42.606326" lon="0.675966">
        <ele>2666.369</ele>
        <time>2019-07-06T13:27:37Z</time>
      </trkpt>
      <trkpt lat="42.606285" lon="0.675939">
        <ele>2666.114</ele>
        <time>2019-07-06T13:27:47Z</time>
      </trkpt>
      <trkpt lat="42.606247" lon="0.675898">
        <ele>2665.654</ele>
        <time>2019-07-06T13:27:59Z</time>
      </trkpt>
      <trkpt lat="42.606198" lon="0.675907">
        <ele>2664.309</ele>
        <time>2019-07-06T13:28:07Z</time>
      </trkpt>
      <trkpt lat="42.606182" lon="0.675849">
        <ele>2659.908</ele>
        <time>2019-07-06T13:28:41Z</time>
      </trkpt>
      <trkpt lat="42.606135" lon="0.675852">
        <ele>2658.454</ele>
        <time>2019-07-06T13:28:52Z</time>
      </trkpt>
      <trkpt lat="42.606085" lon="0.675845">
        <ele>2656.739</ele>
        <time>2019-07-06T13:29:00Z</time>
      </trkpt>
      <trkpt lat="42.606052" lon="0.675799">
        <ele>2655.444</ele>
        <time>2019-07-06T13:29:06Z</time>
      </trkpt>
      <trkpt lat="42.606012" lon="0.675834">
        <ele>2653.329</ele>
        <time>2019-07-06T13:29:20Z</time>
      </trkpt>
      <trkpt lat="42.605970" lon="0.675865">
        <ele>2653.333</ele>
        <time>2019-07-06T13:29:26Z</time>
      </trkpt>
      <trkpt lat="42.605925" lon="0.675862">
        <ele>2653.969</ele>
        <time>2019-07-06T13:30:35Z</time>
      </trkpt>
      <trkpt lat="42.605877" lon="0.675841">
        <ele>2654.443</ele>
        <time>2019-07-06T13:30:54Z</time>
      </trkpt>
      <trkpt lat="42.605832" lon="0.675857">
        <ele>2654.435</ele>
        <time>2019-07-06T13:31:00Z</time>
      </trkpt>
      <trkpt lat="42.605791" lon="0.675824">
        <ele>2652.268</ele>
        <time>2019-07-06T13:31:15Z</time>
      </trkpt>
      <trkpt lat="42.605836" lon="0.675837">
        <ele>2652.742</ele>
        <time>2019-07-06T13:31:27Z</time>
      </trkpt>
      <trkpt lat="42.605838" lon="0.675900">
        <ele>2656.126</ele>
        <time>2019-07-06T13:31:39Z</time>
      </trkpt>
      <trkpt lat="42.605813" lon="0.675958">
        <ele>2657.908</ele>
        <time>2019-07-06T13:31:47Z</time>
      </trkpt>
      <trkpt lat="42.605803" lon="0.676024">
        <ele>2657.919</ele>
        <time>2019-07-06T13:31:54Z</time>
      </trkpt>
      <trkpt lat="42.605768" lon="0.676071">
        <ele>2659.484</ele>
        <time>2019-07-06T13:32:02Z</time>
      </trkpt>
      <trkpt lat="42.605722" lon="0.676087">
        <ele>2659.059</ele>
        <time>2019-07-06T13:32:20Z</time>
      </trkpt>
      <trkpt lat="42.605674" lon="0.676082">
        <ele>2657.514</ele>
        <time>2019-07-06T13:32:31Z</time>
      </trkpt>
      <trkpt lat="42.605626" lon="0.676075">
        <ele>2658.038</ele>
        <time>2019-07-06T13:32:40Z</time>
      </trkpt>
      <trkpt lat="42.605587" lon="0.676041">
        <ele>2655.184</ele>
        <time>2019-07-06T13:32:54Z</time>
      </trkpt>
      <trkpt lat="42.605543" lon="0.676026">
        <ele>2652.828</ele>
        <time>2019-07-06T13:33:07Z</time>
      </trkpt>
      <trkpt lat="42.605489" lon="0.676013">
        <ele>2654.010</ele>
        <time>2019-07-06T13:33:16Z</time>
      </trkpt>
      <trkpt lat="42.605444" lon="0.675991">
        <ele>2653.576</ele>
        <time>2019-07-06T13:33:26Z</time>
      </trkpt>
      <trkpt lat="42.605438" lon="0.675930">
        <ele>2652.790</ele>
        <time>2019-07-06T13:33:39Z</time>
      </trkpt>
      <trkpt lat="42.605440" lon="0.675865">
        <ele>2652.019</ele>
        <time>2019-07-06T13:33:46Z</time>
      </trkpt>
      <trkpt lat="42.605390" lon="0.675837">
        <ele>2648.008</ele>
        <time>2019-07-06T13:34:05Z</time>
      </trkpt>
      <trkpt lat="42.605343" lon="0.675833">
        <ele>2645.650</ele>
        <time>2019-07-06T13:35:12Z</time>
      </trkpt>
      <trkpt lat="42.605302" lon="0.675807">
        <ele>2644.815</ele>
        <time>2019-07-06T13:35:24Z</time>
      </trkpt>
      <trkpt lat="42.605265" lon="0.675843">
        <ele>2644.160</ele>
        <time>2019-07-06T13:35:44Z</time>
      </trkpt>
      <trkpt lat="42.605219" lon="0.675857">
        <ele>2642.595</ele>
        <time>2019-07-06T13:36:09Z</time>
      </trkpt>
      <trkpt lat="42.605205" lon="0.675798">
        <ele>2641.859</ele>
        <time>2019-07-06T13:36:17Z</time>
      </trkpt>
      <trkpt lat="42.605159" lon="0.675771">
        <ele>2641.535</ele>
        <time>2019-07-06T13:36:36Z</time>
      </trkpt>
      <trkpt lat="42.605121" lon="0.675806">
        <ele>2642.129</ele>
        <time>2019-07-06T13:36:55Z</time>
      </trkpt>
      <trkpt lat="42.605076" lon="0.675822">
        <ele>2641.931</ele>
        <time>2019-07-06T13:37:04Z</time>
      </trkpt>
      <trkpt lat="42.605050" lon="0.675875">
        <ele>2643.047</ele>
        <time>2019-07-06T13:37:13Z</time>
      </trkpt>
      <trkpt lat="42.605005" lon="0.675890">
        <ele>2643.029</ele>
        <time>2019-07-06T13:37:20Z</time>
      </trkpt>
      <trkpt lat="42.604967" lon="0.675935">
        <ele>2641.921</ele>
        <time>2019-07-06T13:37:28Z</time>
      </trkpt>
      <trkpt lat="42.604935" lon="0.675981">
        <ele>2641.008</ele>
        <time>2019-07-06T13:37:46Z</time>
      </trkpt>
      <trkpt lat="42.604888" lon="0.675978">
        <ele>2640.227</ele>
        <time>2019-07-06T13:37:55Z</time>
      </trkpt>
      <trkpt lat="42.604843" lon="0.675964">
        <ele>2639.512</ele>
        <time>2019-07-06T13:38:07Z</time>
      </trkpt>
      <trkpt lat="42.604800" lon="0.675944">
        <ele>2638.887</ele>
        <time>2019-07-06T13:38:20Z</time>
      </trkpt>
      <trkpt lat="42.604753" lon="0.675967">
        <ele>2639.362</ele>
        <time>2019-07-06T13:38:45Z</time>
      </trkpt>
      <trkpt lat="42.604708" lon="0.675958">
        <ele>2638.486</ele>
        <time>2019-07-06T13:38:54Z</time>
      </trkpt>
      <trkpt lat="42.604654" lon="0.675942">
        <ele>2637.542</ele>
        <time>2019-07-06T13:39:03Z</time>
      </trkpt>
      <trkpt lat="42.604607" lon="0.675949">
        <ele>2636.876</ele>
        <time>2019-07-06T13:39:13Z</time>
      </trkpt>
      <trkpt lat="42.604577" lon="0.675899">
        <ele>2632.858</ele>
        <time>2019-07-06T13:39:48Z</time>
      </trkpt>
      <trkpt lat="42.604536" lon="0.675932">
        <ele>2632.177</ele>
        <time>2019-07-06T13:40:00Z</time>
      </trkpt>
      <trkpt lat="42.604486" lon="0.675936">
        <ele>2630.761</ele>
        <time>2019-07-06T13:40:12Z</time>
      </trkpt>
      <trkpt lat="42.604459" lon="0.675987">
        <ele>2627.427</ele>
        <time>2019-07-06T13:40:47Z</time>
      </trkpt>
      <trkpt lat="42.604416" lon="0.675966">
        <ele>2626.408</ele>
        <time>2019-07-06T13:40:56Z</time>
      </trkpt>
      <trkpt lat="42.604368" lon="0.675966">
        <ele>2625.660</ele>
        <time>2019-07-06T13:41:03Z</time>
      </trkpt>
      <trkpt lat="42.604324" lon="0.675939">
        <ele>2624.915</ele>
        <time>2019-07-06T13:41:11Z</time>
      </trkpt>
      <trkpt lat="42.604277" lon="0.675931">
        <ele>2624.330</ele>
        <time>2019-07-06T13:42:00Z</time>
      </trkpt>
      <trkpt lat="42.604229" lon="0.675914">
        <ele>2622.335</ele>
        <time>2019-07-06T13:42:10Z</time>
      </trkpt>
      <trkpt lat="42.604184" lon="0.675925">
        <ele>2620.029</ele>
        <time>2019-07-06T13:42:28Z</time>
      </trkpt>
      <trkpt lat="42.604133" lon="0.675917">
        <ele>2619.225</ele>
        <time>2019-07-06T13:42:37Z</time>
      </trkpt>
      <trkpt lat="42.604082" lon="0.675912">
        <ele>2619.199</ele>
        <time>2019-07-06T13:42:42Z</time>
      </trkpt>
      <trkpt lat="42.604032" lon="0.675897">
        <ele>2619.451</ele>
        <time>2019-07-06T13:42:47Z</time>
      </trkpt>
      <trkpt lat="42.603984" lon="0.675890">
        <ele>2619.761</ele>
        <time>2019-07-06T13:42:52Z</time>
      </trkpt>
      <trkpt lat="42.603934" lon="0.675879">
        <ele>2615.721</ele>
        <time>2019-07-06T13:43:19Z</time>
      </trkpt>
      <trkpt lat="42.603937" lon="0.675812">
        <ele>2614.113</ele>
        <time>2019-07-06T13:43:34Z</time>
      </trkpt>
      <trkpt lat="42.603982" lon="0.675789">
        <ele>2612.408</ele>
        <time>2019-07-06T13:43:56Z</time>
      </trkpt>
      <trkpt lat="42.603940" lon="0.675765">
        <ele>2608.319</ele>
        <time>2019-07-06T13:44:20Z</time>
      </trkpt>
      <trkpt lat="42.603901" lon="0.675797">
        <ele>2606.354</ele>
        <time>2019-07-06T13:44:38Z</time>
      </trkpt>
      <trkpt lat="42.603860" lon="0.675765">
        <ele>2605.639</ele>
        <time>2019-07-06T13:44:57Z</time>
      </trkpt>
      <trkpt lat="42.603821" lon="0.675734">
        <ele>2603.714</ele>
        <time>2019-07-06T13:45:22Z</time>
      </trkpt>
      <trkpt lat="42.603770" lon="0.675734">
        <ele>2602.458</ele>
        <time>2019-07-06T13:45:48Z</time>
      </trkpt>
      <trkpt lat="42.603779" lon="0.675672">
        <ele>2601.274</ele>
        <time>2019-07-06T13:46:02Z</time>
      </trkpt>
      <trkpt lat="42.603746" lon="0.675631">
        <ele>2599.068</ele>
        <time>2019-07-06T13:47:31Z</time>
      </trkpt>
      <trkpt lat="42.603702" lon="0.675600">
        <ele>2596.660</ele>
        <time>2019-07-06T13:47:42Z</time>
      </trkpt>
      <trkpt lat="42.603680" lon="0.675544">
        <ele>2596.171</ele>
        <time>2019-07-06T13:47:49Z</time>
      </trkpt>
      <trkpt lat="42.603714" lon="0.675503">
        <ele>2595.741</ele>
        <time>2019-07-06T13:49:21Z</time>
      </trkpt>
      <trkpt lat="42.603668" lon="0.675500">
        <ele>2594.115</ele>
        <time>2019-07-06T13:49:48Z</time>
      </trkpt>
      <trkpt lat="42.603630" lon="0.675465">
        <ele>2593.408</ele>
        <time>2019-07-06T13:50:10Z</time>
      </trkpt>
      <trkpt lat="42.603589" lon="0.675430">
        <ele>2593.910</ele>
        <time>2019-07-06T13:50:26Z</time>
      </trkpt>
      <trkpt lat="42.603542" lon="0.675417">
        <ele>2593.555</ele>
        <time>2019-07-06T13:50:47Z</time>
      </trkpt>
      <trkpt lat="42.603495" lon="0.675443">
        <ele>2594.410</ele>
        <time>2019-07-06T13:50:54Z</time>
      </trkpt>
      <trkpt lat="42.603451" lon="0.675420">
        <ele>2592.825</ele>
        <time>2019-07-06T13:51:18Z</time>
      </trkpt>
      <trkpt lat="42.603410" lon="0.675382">
        <ele>2592.619</ele>
        <time>2019-07-06T13:51:38Z</time>
      </trkpt>
      <trkpt lat="42.603380" lon="0.675334">
        <ele>2590.625</ele>
        <time>2019-07-06T13:51:57Z</time>
      </trkpt>
      <trkpt lat="42.603339" lon="0.675304">
        <ele>2589.639</ele>
        <time>2019-07-06T13:52:11Z</time>
      </trkpt>
      <trkpt lat="42.603290" lon="0.675292">
        <ele>2588.511</ele>
        <time>2019-07-06T13:52:19Z</time>
      </trkpt>
      <trkpt lat="42.603241" lon="0.675282">
        <ele>2587.825</ele>
        <time>2019-07-06T13:52:24Z</time>
      </trkpt>
      <trkpt lat="42.603197" lon="0.675259">
        <ele>2586.726</ele>
        <time>2019-07-06T13:52:43Z</time>
      </trkpt>
      <trkpt lat="42.603153" lon="0.675240">
        <ele>2586.508</ele>
        <time>2019-07-06T13:52:54Z</time>
      </trkpt>
      <trkpt lat="42.603106" lon="0.675216">
        <ele>2584.908</ele>
        <time>2019-07-06T13:53:05Z</time>
      </trkpt>
      <trkpt lat="42.603066" lon="0.675184">
        <ele>2583.135</ele>
        <time>2019-07-06T13:53:17Z</time>
      </trkpt>
      <trkpt lat="42.603026" lon="0.675156">
        <ele>2582.150</ele>
        <time>2019-07-06T13:53:30Z</time>
      </trkpt>
      <trkpt lat="42.602989" lon="0.675116">
        <ele>2583.735</ele>
        <time>2019-07-06T13:53:42Z</time>
      </trkpt>
      <trkpt lat="42.602940" lon="0.675127">
        <ele>2585.880</ele>
        <time>2019-07-06T13:53:50Z</time>
      </trkpt>
      <trkpt lat="42.602914" lon="0.675183">
        <ele>2588.274</ele>
        <time>2019-07-06T13:54:01Z</time>
      </trkpt>
      <trkpt lat="42.602874" lon="0.675153">
        <ele>2591.850</ele>
        <time>2019-07-06T13:54:41Z</time>
      </trkpt>
      <trkpt lat="42.602830" lon="0.675122">
        <ele>2589.044</ele>
        <time>2019-07-06T13:57:02Z</time>
      </trkpt>
      <trkpt lat="42.602813" lon="0.675056">
        <ele>2589.176</ele>
        <time>2019-07-06T13:57:54Z</time>
      </trkpt>
      <trkpt lat="42.602778" lon="0.675099">
        <ele>2586.256</ele>
        <time>2019-07-06T13:58:08Z</time>
      </trkpt>
      <trkpt lat="42.602742" lon="0.675142">
        <ele>2583.759</ele>
        <time>2019-07-06T13:58:19Z</time>
      </trkpt>
      <trkpt lat="42.602697" lon="0.675161">
        <ele>2581.914</ele>
        <time>2019-07-06T13:58:27Z</time>
      </trkpt>
      <trkpt lat="42.602657" lon="0.675189">
        <ele>2580.208</ele>
        <time>2019-07-06T13:58:37Z</time>
      </trkpt>
      <trkpt lat="42.602649" lon="0.675251">
        <ele>2578.088</ele>
        <time>2019-07-06T13:58:45Z</time>
      </trkpt>
      <trkpt lat="42.602606" lon="0.675279">
        <ele>2576.983</ele>
        <time>2019-07-06T13:58:55Z</time>
      </trkpt>
      <trkpt lat="42.602634" lon="0.675331">
        <ele>2574.058</ele>
        <time>2019-07-06T13:59:25Z</time>
      </trkpt>
      <trkpt lat="42.602631" lon="0.675392">
        <ele>2573.123</ele>
        <time>2019-07-06T13:59:36Z</time>
      </trkpt>
      <trkpt lat="42.602669" lon="0.675434">
        <ele>2573.747</ele>
        <time>2019-07-06T14:00:38Z</time>
      </trkpt>
      <trkpt lat="42.602707" lon="0.675467">
        <ele>2573.753</ele>
        <time>2019-07-06T14:01:52Z</time>
      </trkpt>
      <trkpt lat="42.602737" lon="0.675420">
        <ele>2573.157</ele>
        <time>2019-07-06T14:02:43Z</time>
      </trkpt>
      <trkpt lat="42.602721" lon="0.675360">
        <ele>2573.189</ele>
        <time>2019-07-06T14:04:11Z</time>
      </trkpt>
      <trkpt lat="42.602684" lon="0.675324">
        <ele>2572.525</ele>
        <time>2019-07-06T14:04:33Z</time>
      </trkpt>
      <trkpt lat="42.602649" lon="0.675365">
        <ele>2572.526</ele>
        <time>2019-07-06T14:05:43Z</time>
      </trkpt>
      <trkpt lat="42.602693" lon="0.675348">
        <ele>2572.508</ele>
        <time>2019-07-06T14:06:04Z</time>
      </trkpt>
      <trkpt lat="42.602648" lon="0.675364">
        <ele>2572.208</ele>
        <time>2019-07-06T14:08:29Z</time>
      </trkpt>
      <trkpt lat="42.602645" lon="0.675301">
        <ele>2572.045</ele>
        <time>2019-07-06T14:09:21Z</time>
      </trkpt>
      <trkpt lat="42.602687" lon="0.675325">
        <ele>2571.970</ele>
        <time>2019-07-06T14:10:42Z</time>
      </trkpt>
      <trkpt lat="42.602648" lon="0.675359">
        <ele>2571.995</ele>
        <time>2019-07-06T14:11:12Z</time>
      </trkpt>
      <trkpt lat="42.602628" lon="0.675300">
        <ele>2571.890</ele>
        <time>2019-07-06T14:15:37Z</time>
      </trkpt>
      <trkpt lat="42.602619" lon="0.675367">
        <ele>2571.294</ele>
        <time>2019-07-06T14:16:09Z</time>
      </trkpt>
      <trkpt lat="42.602636" lon="0.675435">
        <ele>2567.930</ele>
        <time>2019-07-06T14:16:32Z</time>
      </trkpt>
      <trkpt lat="42.602653" lon="0.675495">
        <ele>2568.054</ele>
        <time>2019-07-06T14:16:38Z</time>
      </trkpt>
      <trkpt lat="42.602616" lon="0.675539">
        <ele>2566.236</ele>
        <time>2019-07-06T14:17:01Z</time>
      </trkpt>
      <trkpt lat="42.602571" lon="0.675517">
        <ele>2564.924</ele>
        <time>2019-07-06T14:17:16Z</time>
      </trkpt>
      <trkpt lat="42.602531" lon="0.675475">
        <ele>2563.104</ele>
        <time>2019-07-06T14:17:25Z</time>
      </trkpt>
      <trkpt lat="42.602488" lon="0.675497">
        <ele>2559.414</ele>
        <time>2019-07-06T14:17:44Z</time>
      </trkpt>
      <trkpt lat="42.602473" lon="0.675564">
        <ele>2555.508</ele>
        <time>2019-07-06T14:18:02Z</time>
      </trkpt>
      <trkpt lat="42.602447" lon="0.675619">
        <ele>2554.215</ele>
        <time>2019-07-06T14:18:11Z</time>
      </trkpt>
      <trkpt lat="42.602444" lon="0.675692">
        <ele>2553.050</ele>
        <time>2019-07-06T14:18:22Z</time>
      </trkpt>
      <trkpt lat="42.602412" lon="0.675736">
        <ele>2549.925</ele>
        <time>2019-07-06T14:18:37Z</time>
      </trkpt>
      <trkpt lat="42.602363" lon="0.675755">
        <ele>2548.460</ele>
        <time>2019-07-06T14:18:49Z</time>
      </trkpt>
      <trkpt lat="42.602316" lon="0.675746">
        <ele>2543.924</ele>
        <time>2019-07-06T14:19:26Z</time>
      </trkpt>
      <trkpt lat="42.602271" lon="0.675767">
        <ele>2543.290</ele>
        <time>2019-07-06T14:19:39Z</time>
      </trkpt>
      <trkpt lat="42.602263" lon="0.675829">
        <ele>2542.474</ele>
        <time>2019-07-06T14:19:49Z</time>
      </trkpt>
      <trkpt lat="42.602243" lon="0.675885">
        <ele>2540.586</ele>
        <time>2019-07-06T14:19:58Z</time>
      </trkpt>
      <trkpt lat="42.602196" lon="0.675896">
        <ele>2538.751</ele>
        <time>2019-07-06T14:20:18Z</time>
      </trkpt>
      <trkpt lat="42.602147" lon="0.675884">
        <ele>2536.401</ele>
        <time>2019-07-06T14:20:36Z</time>
      </trkpt>
      <trkpt lat="42.602114" lon="0.675936">
        <ele>2535.411</ele>
        <time>2019-07-06T14:20:57Z</time>
      </trkpt>
      <trkpt lat="42.602093" lon="0.675878">
        <ele>2533.208</ele>
        <time>2019-07-06T14:21:36Z</time>
      </trkpt>
      <trkpt lat="42.602051" lon="0.675906">
        <ele>2531.918</ele>
        <time>2019-07-06T14:21:44Z</time>
      </trkpt>
      <trkpt lat="42.602014" lon="0.675948">
        <ele>2530.243</ele>
        <time>2019-07-06T14:21:58Z</time>
      </trkpt>
      <trkpt lat="42.601972" lon="0.675973">
        <ele>2529.768</ele>
        <time>2019-07-06T14:22:12Z</time>
      </trkpt>
      <trkpt lat="42.602001" lon="0.676021">
        <ele>2527.993</ele>
        <time>2019-07-06T14:22:51Z</time>
      </trkpt>
      <trkpt lat="42.601972" lon="0.676069">
        <ele>2527.377</ele>
        <time>2019-07-06T14:23:14Z</time>
      </trkpt>
      <trkpt lat="42.601971" lon="0.676008">
        <ele>2526.783</ele>
        <time>2019-07-06T14:25:29Z</time>
      </trkpt>
      <trkpt lat="42.601945" lon="0.676070">
        <ele>2524.347</ele>
        <time>2019-07-06T14:33:11Z</time>
      </trkpt>
      <trkpt lat="42.601946" lon="0.676132">
        <ele>2523.029</ele>
        <time>2019-07-06T14:33:17Z</time>
      </trkpt>
      <trkpt lat="42.601931" lon="0.676195">
        <ele>2521.017</ele>
        <time>2019-07-06T14:33:26Z</time>
      </trkpt>
      <trkpt lat="42.601921" lon="0.676258">
        <ele>2519.087</ele>
        <time>2019-07-06T14:33:34Z</time>
      </trkpt>
      <trkpt lat="42.601915" lon="0.676327">
        <ele>2518.215</ele>
        <time>2019-07-06T14:33:40Z</time>
      </trkpt>
      <trkpt lat="42.601905" lon="0.676391">
        <ele>2517.908</ele>
        <time>2019-07-06T14:33:46Z</time>
      </trkpt>
      <trkpt lat="42.601873" lon="0.676450">
        <ele>2517.394</ele>
        <time>2019-07-06T14:33:53Z</time>
      </trkpt>
      <trkpt lat="42.601855" lon="0.676522">
        <ele>2516.349</ele>
        <time>2019-07-06T14:33:58Z</time>
      </trkpt>
      <trkpt lat="42.601844" lon="0.676583">
        <ele>2515.924</ele>
        <time>2019-07-06T14:34:03Z</time>
      </trkpt>
      <trkpt lat="42.601834" lon="0.676646">
        <ele>2514.679</ele>
        <time>2019-07-06T14:34:08Z</time>
      </trkpt>
      <trkpt lat="42.601832" lon="0.676710">
        <ele>2514.833</ele>
        <time>2019-07-06T14:34:12Z</time>
      </trkpt>
      <trkpt lat="42.601825" lon="0.676774">
        <ele>2514.419</ele>
        <time>2019-07-06T14:34:16Z</time>
      </trkpt>
      <trkpt lat="42.601805" lon="0.676834">
        <ele>2513.773</ele>
        <time>2019-07-06T14:34:31Z</time>
      </trkpt>
      <trkpt lat="42.601775" lon="0.676882">
        <ele>2512.875</ele>
        <time>2019-07-06T14:35:11Z</time>
      </trkpt>
      <trkpt lat="42.601735" lon="0.676850">
        <ele>2512.339</ele>
        <time>2019-07-06T14:35:28Z</time>
      </trkpt>
      <trkpt lat="42.601690" lon="0.676860">
        <ele>2512.501</ele>
        <time>2019-07-06T14:36:17Z</time>
      </trkpt>
      <trkpt lat="42.601675" lon="0.676801">
        <ele>2512.921</ele>
        <time>2019-07-06T14:38:10Z</time>
      </trkpt>
      <trkpt lat="42.601698" lon="0.676871">
        <ele>2511.808</ele>
        <time>2019-07-06T14:39:49Z</time>
      </trkpt>
      <trkpt lat="42.601701" lon="0.676936">
        <ele>2510.296</ele>
        <time>2019-07-06T14:39:57Z</time>
      </trkpt>
      <trkpt lat="42.601701" lon="0.677001">
        <ele>2509.611</ele>
        <time>2019-07-06T14:40:07Z</time>
      </trkpt>
      <trkpt lat="42.601726" lon="0.677053">
        <ele>2510.586</ele>
        <time>2019-07-06T14:40:19Z</time>
      </trkpt>
      <trkpt lat="42.601742" lon="0.677112">
        <ele>2509.191</ele>
        <time>2019-07-06T14:40:30Z</time>
      </trkpt>
      <trkpt lat="42.601728" lon="0.677171">
        <ele>2508.155</ele>
        <time>2019-07-06T14:40:40Z</time>
      </trkpt>
      <trkpt lat="42.601728" lon="0.677234">
        <ele>2505.441</ele>
        <time>2019-07-06T14:40:56Z</time>
      </trkpt>
      <trkpt lat="42.601718" lon="0.677298">
        <ele>2505.125</ele>
        <time>2019-07-06T14:41:05Z</time>
      </trkpt>
      <trkpt lat="42.601719" lon="0.677360">
        <ele>2502.957</ele>
        <time>2019-07-06T14:41:31Z</time>
      </trkpt>
      <trkpt lat="42.601691" lon="0.677412">
        <ele>2504.185</ele>
        <time>2019-07-06T14:41:49Z</time>
      </trkpt>
      <trkpt lat="42.601652" lon="0.677447">
        <ele>2501.489</ele>
        <time>2019-07-06T14:42:49Z</time>
      </trkpt>
      <trkpt lat="42.601642" lon="0.677508">
        <ele>2500.517</ele>
        <time>2019-07-06T14:43:10Z</time>
      </trkpt>
      <trkpt lat="42.601654" lon="0.677576">
        <ele>2497.808</ele>
        <time>2019-07-06T14:43:28Z</time>
      </trkpt>
      <trkpt lat="42.601656" lon="0.677637">
        <ele>2498.881</ele>
        <time>2019-07-06T14:43:39Z</time>
      </trkpt>
      <trkpt lat="42.601621" lon="0.677684">
        <ele>2498.866</ele>
        <time>2019-07-06T14:43:48Z</time>
      </trkpt>
      <trkpt lat="42.601574" lon="0.677684">
        <ele>2497.611</ele>
        <time>2019-07-06T14:43:52Z</time>
      </trkpt>
      <trkpt lat="42.601527" lon="0.677672">
        <ele>2495.986</ele>
        <time>2019-07-06T14:43:59Z</time>
      </trkpt>
      <trkpt lat="42.601480" lon="0.677680">
        <ele>2496.190</ele>
        <time>2019-07-06T14:44:07Z</time>
      </trkpt>
      <trkpt lat="42.601431" lon="0.677725">
        <ele>2493.096</ele>
        <time>2019-07-06T14:44:33Z</time>
      </trkpt>
      <trkpt lat="42.601391" lon="0.677756">
        <ele>2490.280</ele>
        <time>2019-07-06T14:45:19Z</time>
      </trkpt>
      <trkpt lat="42.601352" lon="0.677799">
        <ele>2489.242</ele>
        <time>2019-07-06T14:45:26Z</time>
      </trkpt>
      <trkpt lat="42.601308" lon="0.677844">
        <ele>2487.395</ele>
        <time>2019-07-06T14:45:40Z</time>
      </trkpt>
      <trkpt lat="42.601272" lon="0.677894">
        <ele>2487.449</ele>
        <time>2019-07-06T14:45:44Z</time>
      </trkpt>
      <trkpt lat="42.601296" lon="0.677947">
        <ele>2488.423</ele>
        <time>2019-07-06T14:46:05Z</time>
      </trkpt>
      <trkpt lat="42.601259" lon="0.677991">
        <ele>2490.108</ele>
        <time>2019-07-06T14:46:24Z</time>
      </trkpt>
      <trkpt lat="42.601205" lon="0.677997">
        <ele>2490.932</ele>
        <time>2019-07-06T14:46:32Z</time>
      </trkpt>
      <trkpt lat="42.601159" lon="0.677961">
        <ele>2491.047</ele>
        <time>2019-07-06T14:46:36Z</time>
      </trkpt>
      <trkpt lat="42.601113" lon="0.677966">
        <ele>2490.052</ele>
        <time>2019-07-06T14:46:42Z</time>
      </trkpt>
      <trkpt lat="42.601070" lon="0.677934">
        <ele>2489.787</ele>
        <time>2019-07-06T14:46:49Z</time>
      </trkpt>
      <trkpt lat="42.601028" lon="0.677894">
        <ele>2489.011</ele>
        <time>2019-07-06T14:47:00Z</time>
      </trkpt>
      <trkpt lat="42.601017" lon="0.677954">
        <ele>2486.147</ele>
        <time>2019-07-06T14:47:13Z</time>
      </trkpt>
      <trkpt lat="42.601002" lon="0.678015">
        <ele>2485.191</ele>
        <time>2019-07-06T14:47:22Z</time>
      </trkpt>
      <trkpt lat="42.600951" lon="0.678032">
        <ele>2484.453</ele>
        <time>2019-07-06T14:47:28Z</time>
      </trkpt>
      <trkpt lat="42.600905" lon="0.678052">
        <ele>2484.266</ele>
        <time>2019-07-06T14:47:32Z</time>
      </trkpt>
      <trkpt lat="42.600868" lon="0.678091">
        <ele>2482.929</ele>
        <time>2019-07-06T14:48:16Z</time>
      </trkpt>
      <trkpt lat="42.600843" lon="0.678040">
        <ele>2483.121</ele>
        <time>2019-07-06T14:51:37Z</time>
      </trkpt>
      <trkpt lat="42.600792" lon="0.678032">
        <ele>2479.308</ele>
        <time>2019-07-06T14:51:53Z</time>
      </trkpt>
      <trkpt lat="42.600748" lon="0.678058">
        <ele>2475.489</ele>
        <time>2019-07-06T14:52:19Z</time>
      </trkpt>
      <trkpt lat="42.600710" lon="0.678096">
        <ele>2473.854</ele>
        <time>2019-07-06T14:52:31Z</time>
      </trkpt>
      <trkpt lat="42.600697" lon="0.678158">
        <ele>2471.769</ele>
        <time>2019-07-06T14:52:50Z</time>
      </trkpt>
      <trkpt lat="42.600695" lon="0.678225">
        <ele>2469.524</ele>
        <time>2019-07-06T14:53:02Z</time>
      </trkpt>
      <trkpt lat="42.600671" lon="0.678289">
        <ele>2467.658</ele>
        <time>2019-07-06T14:53:07Z</time>
      </trkpt>
      <trkpt lat="42.600640" lon="0.678339">
        <ele>2465.964</ele>
        <time>2019-07-06T14:53:14Z</time>
      </trkpt>
      <trkpt lat="42.600616" lon="0.678394">
        <ele>2464.438</ele>
        <time>2019-07-06T14:53:23Z</time>
      </trkpt>
      <trkpt lat="42.600574" lon="0.678425">
        <ele>2463.420</ele>
        <time>2019-07-06T14:53:28Z</time>
      </trkpt>
      <trkpt lat="42.600530" lon="0.678442">
        <ele>2461.912</ele>
        <time>2019-07-06T14:53:36Z</time>
      </trkpt>
      <trkpt lat="42.600538" lon="0.678503">
        <ele>2461.232</ele>
        <time>2019-07-06T14:53:43Z</time>
      </trkpt>
      <trkpt lat="42.600490" lon="0.678495">
        <ele>2459.005</ele>
        <time>2019-07-06T14:53:53Z</time>
      </trkpt>
      <trkpt lat="42.600445" lon="0.678485">
        <ele>2457.908</ele>
        <time>2019-07-06T14:53:59Z</time>
      </trkpt>
      <trkpt lat="42.600430" lon="0.678547">
        <ele>2456.484</ele>
        <time>2019-07-06T14:54:13Z</time>
      </trkpt>
      <trkpt lat="42.600403" lon="0.678602">
        <ele>2454.639</ele>
        <time>2019-07-06T14:54:21Z</time>
      </trkpt>
      <trkpt lat="42.600385" lon="0.678541">
        <ele>2452.654</ele>
        <time>2019-07-06T14:54:33Z</time>
      </trkpt>
      <trkpt lat="42.600345" lon="0.678568">
        <ele>2451.679</ele>
        <time>2019-07-06T14:54:43Z</time>
      </trkpt>
      <trkpt lat="42.600311" lon="0.678611">
        <ele>2449.913</ele>
        <time>2019-07-06T14:55:06Z</time>
      </trkpt>
      <trkpt lat="42.600291" lon="0.678670">
        <ele>2447.739</ele>
        <time>2019-07-06T14:55:15Z</time>
      </trkpt>
      <trkpt lat="42.600257" lon="0.678719">
        <ele>2445.133</ele>
        <time>2019-07-06T14:55:29Z</time>
      </trkpt>
      <trkpt lat="42.600249" lon="0.678786">
        <ele>2443.335</ele>
        <time>2019-07-06T14:55:39Z</time>
      </trkpt>
      <trkpt lat="42.600225" lon="0.678840">
        <ele>2442.828</ele>
        <time>2019-07-06T14:55:46Z</time>
      </trkpt>
      <trkpt lat="42.600186" lon="0.678883">
        <ele>2441.389</ele>
        <time>2019-07-06T14:55:52Z</time>
      </trkpt>
      <trkpt lat="42.600137" lon="0.678904">
        <ele>2441.917</ele>
        <time>2019-07-06T14:55:56Z</time>
      </trkpt>
      <trkpt lat="42.600108" lon="0.678954">
        <ele>2440.608</ele>
        <time>2019-07-06T14:56:06Z</time>
      </trkpt>
      <trkpt lat="42.600069" lon="0.678986">
        <ele>2438.995</ele>
        <time>2019-07-06T14:56:22Z</time>
      </trkpt>
      <trkpt lat="42.600025" lon="0.678975">
        <ele>2436.330</ele>
        <time>2019-07-06T14:56:41Z</time>
      </trkpt>
      <trkpt lat="42.599986" lon="0.679008">
        <ele>2433.975</ele>
        <time>2019-07-06T14:56:54Z</time>
      </trkpt>
      <trkpt lat="42.599938" lon="0.679019">
        <ele>2433.160</ele>
        <time>2019-07-06T14:57:24Z</time>
      </trkpt>
      <trkpt lat="42.599902" lon="0.679060">
        <ele>2430.234</ele>
        <time>2019-07-06T14:57:35Z</time>
      </trkpt>
      <trkpt lat="42.599850" lon="0.679071">
        <ele>2427.320</ele>
        <time>2019-07-06T14:57:53Z</time>
      </trkpt>
      <trkpt lat="42.599806" lon="0.679044">
        <ele>2422.934</ele>
        <time>2019-07-06T14:58:11Z</time>
      </trkpt>
      <trkpt lat="42.599757" lon="0.679070">
        <ele>2421.356</ele>
        <time>2019-07-06T14:58:18Z</time>
      </trkpt>
      <trkpt lat="42.599713" lon="0.679100">
        <ele>2421.758</ele>
        <time>2019-07-06T14:58:25Z</time>
      </trkpt>
      <trkpt lat="42.599668" lon="0.679117">
        <ele>2419.952</ele>
        <time>2019-07-06T14:58:32Z</time>
      </trkpt>
      <trkpt lat="42.599624" lon="0.679155">
        <ele>2418.517</ele>
        <time>2019-07-06T14:58:39Z</time>
      </trkpt>
      <trkpt lat="42.599574" lon="0.679173">
        <ele>2417.508</ele>
        <time>2019-07-06T14:58:44Z</time>
      </trkpt>
      <trkpt lat="42.599532" lon="0.679201">
        <ele>2417.058</ele>
        <time>2019-07-06T14:58:49Z</time>
      </trkpt>
      <trkpt lat="42.599484" lon="0.679214">
        <ele>2416.253</ele>
        <time>2019-07-06T14:58:57Z</time>
      </trkpt>
      <trkpt lat="42.599458" lon="0.679163">
        <ele>2414.238</ele>
        <time>2019-07-06T14:59:07Z</time>
      </trkpt>
      <trkpt lat="42.599424" lon="0.679122">
        <ele>2413.753</ele>
        <time>2019-07-06T14:59:28Z</time>
      </trkpt>
      <trkpt lat="42.599412" lon="0.679061">
        <ele>2412.847</ele>
        <time>2019-07-06T14:59:39Z</time>
      </trkpt>
      <trkpt lat="42.599376" lon="0.679023">
        <ele>2412.363</ele>
        <time>2019-07-06T14:59:47Z</time>
      </trkpt>
      <trkpt lat="42.599337" lon="0.679066">
        <ele>2411.317</ele>
        <time>2019-07-06T14:59:54Z</time>
      </trkpt>
      <trkpt lat="42.599291" lon="0.679071">
        <ele>2411.269</ele>
        <time>2019-07-06T15:00:05Z</time>
      </trkpt>
      <trkpt lat="42.599248" lon="0.679039">
        <ele>2411.333</ele>
        <time>2019-07-06T15:00:15Z</time>
      </trkpt>
      <trkpt lat="42.599204" lon="0.679060">
        <ele>2410.923</ele>
        <time>2019-07-06T15:00:25Z</time>
      </trkpt>
      <trkpt lat="42.599160" lon="0.679015">
        <ele>2410.715</ele>
        <time>2019-07-06T15:00:30Z</time>
      </trkpt>
      <trkpt lat="42.599132" lon="0.678964">
        <ele>2409.308</ele>
        <time>2019-07-06T15:00:41Z</time>
      </trkpt>
      <trkpt lat="42.599090" lon="0.678935">
        <ele>2408.166</ele>
        <time>2019-07-06T15:00:47Z</time>
      </trkpt>
      <trkpt lat="42.599046" lon="0.678912">
        <ele>2407.251</ele>
        <time>2019-07-06T15:00:57Z</time>
      </trkpt>
      <trkpt lat="42.598996" lon="0.678903">
        <ele>2405.466</ele>
        <time>2019-07-06T15:01:04Z</time>
      </trkpt>
      <trkpt lat="42.598957" lon="0.678871">
        <ele>2404.781</ele>
        <time>2019-07-06T15:01:13Z</time>
      </trkpt>
      <trkpt lat="42.598945" lon="0.678808">
        <ele>2403.715</ele>
        <time>2019-07-06T15:01:22Z</time>
      </trkpt>
      <trkpt lat="42.598914" lon="0.678759">
        <ele>2402.681</ele>
        <time>2019-07-06T15:01:32Z</time>
      </trkpt>
      <trkpt lat="42.598875" lon="0.678719">
        <ele>2401.615</ele>
        <time>2019-07-06T15:01:38Z</time>
      </trkpt>
      <trkpt lat="42.598826" lon="0.678717">
        <ele>2403.097</ele>
        <time>2019-07-06T15:01:46Z</time>
      </trkpt>
      <trkpt lat="42.598774" lon="0.678713">
        <ele>2403.472</ele>
        <time>2019-07-06T15:01:52Z</time>
      </trkpt>
      <trkpt lat="42.598724" lon="0.678706">
        <ele>2403.713</ele>
        <time>2019-07-06T15:01:58Z</time>
      </trkpt>
      <trkpt lat="42.598684" lon="0.678738">
        <ele>2404.314</ele>
        <time>2019-07-06T15:02:04Z</time>
      </trkpt>
      <trkpt lat="42.598648" lon="0.678779">
        <ele>2403.308</ele>
        <time>2019-07-06T15:02:11Z</time>
      </trkpt>
      <trkpt lat="42.598604" lon="0.678755">
        <ele>2401.150</ele>
        <time>2019-07-06T15:02:23Z</time>
      </trkpt>
      <trkpt lat="42.598565" lon="0.678717">
        <ele>2400.125</ele>
        <time>2019-07-06T15:02:28Z</time>
      </trkpt>
      <trkpt lat="42.598527" lon="0.678681">
        <ele>2399.590</ele>
        <time>2019-07-06T15:02:33Z</time>
      </trkpt>
      <trkpt lat="42.598488" lon="0.678649">
        <ele>2400.115</ele>
        <time>2019-07-06T15:02:39Z</time>
      </trkpt>
      <trkpt lat="42.598433" lon="0.678652">
        <ele>2397.829</ele>
        <time>2019-07-06T15:02:49Z</time>
      </trkpt>
      <trkpt lat="42.598388" lon="0.678654">
        <ele>2397.285</ele>
        <time>2019-07-06T15:02:54Z</time>
      </trkpt>
      <trkpt lat="42.598343" lon="0.678659">
        <ele>2397.899</ele>
        <time>2019-07-06T15:02:59Z</time>
      </trkpt>
      <trkpt lat="42.598290" lon="0.678666">
        <ele>2397.641</ele>
        <time>2019-07-06T15:03:02Z</time>
      </trkpt>
      <trkpt lat="42.598248" lon="0.678703">
        <ele>2395.597</ele>
        <time>2019-07-06T15:03:07Z</time>
      </trkpt>
      <trkpt lat="42.598199" lon="0.678732">
        <ele>2395.823</ele>
        <time>2019-07-06T15:03:14Z</time>
      </trkpt>
      <trkpt lat="42.598150" lon="0.678757">
        <ele>2394.525</ele>
        <time>2019-07-06T15:03:18Z</time>
      </trkpt>
      <trkpt lat="42.598106" lon="0.678782">
        <ele>2395.008</ele>
        <time>2019-07-06T15:03:22Z</time>
      </trkpt>
      <trkpt lat="42.598062" lon="0.678819">
        <ele>2394.312</ele>
        <time>2019-07-06T15:03:27Z</time>
      </trkpt>
      <trkpt lat="42.598017" lon="0.678842">
        <ele>2392.667</ele>
        <time>2019-07-06T15:03:34Z</time>
      </trkpt>
      <trkpt lat="42.598014" lon="0.678904">
        <ele>2391.742</ele>
        <time>2019-07-06T15:04:12Z</time>
      </trkpt>
      <trkpt lat="42.598049" lon="0.678954">
        <ele>2390.397</ele>
        <time>2019-07-06T15:04:19Z</time>
      </trkpt>
      <trkpt lat="42.598085" lon="0.679002">
        <ele>2390.061</ele>
        <time>2019-07-06T15:04:24Z</time>
      </trkpt>
      <trkpt lat="42.598098" lon="0.679062">
        <ele>2388.417</ele>
        <time>2019-07-06T15:04:30Z</time>
      </trkpt>
      <trkpt lat="42.598099" lon="0.679124">
        <ele>2385.241</ele>
        <time>2019-07-06T15:04:40Z</time>
      </trkpt>
      <trkpt lat="42.598118" lon="0.679185">
        <ele>2383.613</ele>
        <time>2019-07-06T15:04:46Z</time>
      </trkpt>
      <trkpt lat="42.598142" lon="0.679240">
        <ele>2382.268</ele>
        <time>2019-07-06T15:04:54Z</time>
      </trkpt>
      <trkpt lat="42.598162" lon="0.679295">
        <ele>2381.942</ele>
        <time>2019-07-06T15:05:01Z</time>
      </trkpt>
      <trkpt lat="42.598205" lon="0.679330">
        <ele>2379.826</ele>
        <time>2019-07-06T15:05:28Z</time>
      </trkpt>
      <trkpt lat="42.598227" lon="0.679393">
        <ele>2377.908</ele>
        <time>2019-07-06T15:05:41Z</time>
      </trkpt>
      <trkpt lat="42.598230" lon="0.679459">
        <ele>2375.619</ele>
        <time>2019-07-06T15:05:52Z</time>
      </trkpt>
      <trkpt lat="42.598206" lon="0.679517">
        <ele>2374.884</ele>
        <time>2019-07-06T15:06:00Z</time>
      </trkpt>
      <trkpt lat="42.598192" lon="0.679582">
        <ele>2375.169</ele>
        <time>2019-07-06T15:06:05Z</time>
      </trkpt>
      <trkpt lat="42.598191" lon="0.679649">
        <ele>2372.214</ele>
        <time>2019-07-06T15:06:16Z</time>
      </trkpt>
      <trkpt lat="42.598155" lon="0.679693">
        <ele>2371.618</ele>
        <time>2019-07-06T15:06:25Z</time>
      </trkpt>
      <trkpt lat="42.598108" lon="0.679712">
        <ele>2370.594</ele>
        <time>2019-07-06T15:06:32Z</time>
      </trkpt>
      <trkpt lat="42.598094" lon="0.679774">
        <ele>2369.498</ele>
        <time>2019-07-06T15:06:40Z</time>
      </trkpt>
      <trkpt lat="42.598080" lon="0.679837">
        <ele>2367.170</ele>
        <time>2019-07-06T15:06:51Z</time>
      </trkpt>
      <trkpt lat="42.598065" lon="0.679896">
        <ele>2363.266</ele>
        <time>2019-07-06T15:07:03Z</time>
      </trkpt>
      <trkpt lat="42.598070" lon="0.679963">
        <ele>2363.929</ele>
        <time>2019-07-06T15:07:13Z</time>
      </trkpt>
      <trkpt lat="42.598049" lon="0.680026">
        <ele>2361.321</ele>
        <time>2019-07-06T15:07:20Z</time>
      </trkpt>
      <trkpt lat="42.598022" lon="0.680092">
        <ele>2359.308</ele>
        <time>2019-07-06T15:07:30Z</time>
      </trkpt>
      <trkpt lat="42.597991" lon="0.680137">
        <ele>2358.229</ele>
        <time>2019-07-06T15:07:36Z</time>
      </trkpt>
      <trkpt lat="42.597997" lon="0.680200">
        <ele>2354.984</ele>
        <time>2019-07-06T15:08:00Z</time>
      </trkpt>
      <trkpt lat="42.598042" lon="0.680248">
        <ele>2354.269</ele>
        <time>2019-07-06T15:08:07Z</time>
      </trkpt>
      <trkpt lat="42.598081" lon="0.680281">
        <ele>2353.374</ele>
        <time>2019-07-06T15:08:13Z</time>
      </trkpt>
      <trkpt lat="42.598101" lon="0.680345">
        <ele>2350.928</ele>
        <time>2019-07-06T15:08:29Z</time>
      </trkpt>
      <trkpt lat="42.598110" lon="0.680416">
        <ele>2349.284</ele>
        <time>2019-07-06T15:08:39Z</time>
      </trkpt>
      <trkpt lat="42.598142" lon="0.680461">
        <ele>2348.628</ele>
        <time>2019-07-06T15:08:46Z</time>
      </trkpt>
      <trkpt lat="42.598171" lon="0.680508">
        <ele>2348.050</ele>
        <time>2019-07-06T15:08:53Z</time>
      </trkpt>
      <trkpt lat="42.598159" lon="0.680574">
        <ele>2345.757</ele>
        <time>2019-07-06T15:09:03Z</time>
      </trkpt>
      <trkpt lat="42.598188" lon="0.680631">
        <ele>2345.500</ele>
        <time>2019-07-06T15:09:18Z</time>
      </trkpt>
      <trkpt lat="42.598154" lon="0.680674">
        <ele>2343.020</ele>
        <time>2019-07-06T15:09:30Z</time>
      </trkpt>
      <trkpt lat="42.598145" lon="0.680734">
        <ele>2340.308</ele>
        <time>2019-07-06T15:09:36Z</time>
      </trkpt>
      <trkpt lat="42.598128" lon="0.680794">
        <ele>2339.678</ele>
        <time>2019-07-06T15:09:43Z</time>
      </trkpt>
      <trkpt lat="42.598156" lon="0.680844">
        <ele>2337.073</ele>
        <time>2019-07-06T15:09:58Z</time>
      </trkpt>
      <trkpt lat="42.598181" lon="0.680901">
        <ele>2336.348</ele>
        <time>2019-07-06T15:10:06Z</time>
      </trkpt>
      <trkpt lat="42.598222" lon="0.680940">
        <ele>2335.113</ele>
        <time>2019-07-06T15:10:13Z</time>
      </trkpt>
      <trkpt lat="42.598224" lon="0.681006">
        <ele>2334.017</ele>
        <time>2019-07-06T15:10:20Z</time>
      </trkpt>
      <trkpt lat="42.598240" lon="0.681066">
        <ele>2332.513</ele>
        <time>2019-07-06T15:10:33Z</time>
      </trkpt>
      <trkpt lat="42.598232" lon="0.681129">
        <ele>2328.887</ele>
        <time>2019-07-06T15:10:54Z</time>
      </trkpt>
      <trkpt lat="42.598240" lon="0.681192">
        <ele>2328.259</ele>
        <time>2019-07-06T15:11:11Z</time>
      </trkpt>
      <trkpt lat="42.598209" lon="0.681241">
        <ele>2326.895</ele>
        <time>2019-07-06T15:11:25Z</time>
      </trkpt>
      <trkpt lat="42.598243" lon="0.681288">
        <ele>2326.149</ele>
        <time>2019-07-06T15:11:43Z</time>
      </trkpt>
      <trkpt lat="42.598271" lon="0.681344">
        <ele>2324.923</ele>
        <time>2019-07-06T15:11:51Z</time>
      </trkpt>
      <trkpt lat="42.598287" lon="0.681406">
        <ele>2324.608</ele>
        <time>2019-07-06T15:11:56Z</time>
      </trkpt>
      <trkpt lat="42.598328" lon="0.681443">
        <ele>2325.672</ele>
        <time>2019-07-06T15:12:04Z</time>
      </trkpt>
      <trkpt lat="42.598378" lon="0.681454">
        <ele>2325.987</ele>
        <time>2019-07-06T15:12:11Z</time>
      </trkpt>
      <trkpt lat="42.598422" lon="0.681470">
        <ele>2325.162</ele>
        <time>2019-07-06T15:12:23Z</time>
      </trkpt>
      <trkpt lat="42.598459" lon="0.681513">
        <ele>2324.187</ele>
        <time>2019-07-06T15:12:34Z</time>
      </trkpt>
      <trkpt lat="42.598471" lon="0.681577">
        <ele>2320.111</ele>
        <time>2019-07-06T15:13:12Z</time>
      </trkpt>
      <trkpt lat="42.598465" lon="0.681644">
        <ele>2318.657</ele>
        <time>2019-07-06T15:13:19Z</time>
      </trkpt>
      <trkpt lat="42.598428" lon="0.681685">
        <ele>2316.391</ele>
        <time>2019-07-06T15:13:30Z</time>
      </trkpt>
      <trkpt lat="42.598386" lon="0.681709">
        <ele>2313.483</ele>
        <time>2019-07-06T15:13:46Z</time>
      </trkpt>
      <trkpt lat="42.598349" lon="0.681745">
        <ele>2313.025</ele>
        <time>2019-07-06T15:13:50Z</time>
      </trkpt>
      <trkpt lat="42.598310" lon="0.681783">
        <ele>2311.926</ele>
        <time>2019-07-06T15:13:55Z</time>
      </trkpt>
      <trkpt lat="42.598268" lon="0.681759">
        <ele>2310.308</ele>
        <time>2019-07-06T15:14:04Z</time>
      </trkpt>
      <trkpt lat="42.598246" lon="0.681700">
        <ele>2308.408</ele>
        <time>2019-07-06T15:14:18Z</time>
      </trkpt>
      <trkpt lat="42.598223" lon="0.681754">
        <ele>2307.625</ele>
        <time>2019-07-06T15:14:24Z</time>
      </trkpt>
      <trkpt lat="42.598180" lon="0.681779">
        <ele>2306.440</ele>
        <time>2019-07-06T15:14:32Z</time>
      </trkpt>
      <trkpt lat="42.598135" lon="0.681783">
        <ele>2304.385</ele>
        <time>2019-07-06T15:14:42Z</time>
      </trkpt>
      <trkpt lat="42.598113" lon="0.681841">
        <ele>2300.140</ele>
        <time>2019-07-06T15:15:08Z</time>
      </trkpt>
      <trkpt lat="42.598106" lon="0.681904">
        <ele>2297.514</ele>
        <time>2019-07-06T15:15:16Z</time>
      </trkpt>
      <trkpt lat="42.598110" lon="0.681972">
        <ele>2297.070</ele>
        <time>2019-07-06T15:15:24Z</time>
      </trkpt>
      <trkpt lat="42.598112" lon="0.682043">
        <ele>2295.764</ele>
        <time>2019-07-06T15:15:30Z</time>
      </trkpt>
      <trkpt lat="42.598072" lon="0.682075">
        <ele>2296.036</ele>
        <time>2019-07-06T15:15:38Z</time>
      </trkpt>
      <trkpt lat="42.598023" lon="0.682078">
        <ele>2295.019</ele>
        <time>2019-07-06T15:15:45Z</time>
      </trkpt>
      <trkpt lat="42.597991" lon="0.682123">
        <ele>2294.109</ele>
        <time>2019-07-06T15:15:50Z</time>
      </trkpt>
      <trkpt lat="42.597948" lon="0.682139">
        <ele>2292.919</ele>
        <time>2019-07-06T15:15:55Z</time>
      </trkpt>
      <trkpt lat="42.597912" lon="0.682181">
        <ele>2290.908</ele>
        <time>2019-07-06T15:16:03Z</time>
      </trkpt>
      <trkpt lat="42.597862" lon="0.682186">
        <ele>2290.414</ele>
        <time>2019-07-06T15:16:10Z</time>
      </trkpt>
      <trkpt lat="42.597813" lon="0.682183">
        <ele>2290.429</ele>
        <time>2019-07-06T15:16:15Z</time>
      </trkpt>
      <trkpt lat="42.597769" lon="0.682197">
        <ele>2289.514</ele>
        <time>2019-07-06T15:16:32Z</time>
      </trkpt>
      <trkpt lat="42.597721" lon="0.682206">
        <ele>2289.589</ele>
        <time>2019-07-06T15:16:39Z</time>
      </trkpt>
      <trkpt lat="42.597672" lon="0.682204">
        <ele>2289.743</ele>
        <time>2019-07-06T15:16:43Z</time>
      </trkpt>
      <trkpt lat="42.597617" lon="0.682210">
        <ele>2288.619</ele>
        <time>2019-07-06T15:16:47Z</time>
      </trkpt>
      <trkpt lat="42.597563" lon="0.682198">
        <ele>2288.463</ele>
        <time>2019-07-06T15:16:51Z</time>
      </trkpt>
      <trkpt lat="42.597602" lon="0.682164">
        <ele>2287.845</ele>
        <time>2019-07-06T15:17:08Z</time>
      </trkpt>
      <trkpt lat="42.597556" lon="0.682145">
        <ele>2287.232</ele>
        <time>2019-07-06T15:17:19Z</time>
      </trkpt>
      <trkpt lat="42.597590" lon="0.682190">
        <ele>2285.492</ele>
        <time>2019-07-06T15:18:16Z</time>
      </trkpt>
      <trkpt lat="42.597547" lon="0.682170">
        <ele>2287.511</ele>
        <time>2019-07-06T15:19:21Z</time>
      </trkpt>
      <trkpt lat="42.597520" lon="0.682115">
        <ele>2287.808</ele>
        <time>2019-07-06T15:19:27Z</time>
      </trkpt>
      <trkpt lat="42.597487" lon="0.682066">
        <ele>2289.726</ele>
        <time>2019-07-06T15:20:22Z</time>
      </trkpt>
      <trkpt lat="42.597498" lon="0.682138">
        <ele>2286.941</ele>
        <time>2019-07-06T15:20:37Z</time>
      </trkpt>
      <trkpt lat="42.597475" lon="0.682203">
        <ele>2287.336</ele>
        <time>2019-07-06T15:20:42Z</time>
      </trkpt>
      <trkpt lat="42.597425" lon="0.682198">
        <ele>2287.331</ele>
        <time>2019-07-06T15:20:47Z</time>
      </trkpt>
      <trkpt lat="42.597380" lon="0.682204">
        <ele>2287.155</ele>
        <time>2019-07-06T15:20:51Z</time>
      </trkpt>
      <trkpt lat="42.597332" lon="0.682208">
        <ele>2287.221</ele>
        <time>2019-07-06T15:20:56Z</time>
      </trkpt>
      <trkpt lat="42.597289" lon="0.682187">
        <ele>2287.425</ele>
        <time>2019-07-06T15:21:00Z</time>
      </trkpt>
      <trkpt lat="42.597245" lon="0.682162">
        <ele>2286.677</ele>
        <time>2019-07-06T15:21:04Z</time>
      </trkpt>
      <trkpt lat="42.597205" lon="0.682122">
        <ele>2286.086</ele>
        <time>2019-07-06T15:21:11Z</time>
      </trkpt>
      <trkpt lat="42.597217" lon="0.682059">
        <ele>2280.860</ele>
        <time>2019-07-06T15:21:31Z</time>
      </trkpt>
      <trkpt lat="42.597169" lon="0.682029">
        <ele>2279.626</ele>
        <time>2019-07-06T15:21:39Z</time>
      </trkpt>
      <trkpt lat="42.597121" lon="0.682018">
        <ele>2280.508</ele>
        <time>2019-07-06T15:21:43Z</time>
      </trkpt>
      <trkpt lat="42.597070" lon="0.682019">
        <ele>2278.261</ele>
        <time>2019-07-06T15:21:47Z</time>
      </trkpt>
      <trkpt lat="42.597020" lon="0.682030">
        <ele>2278.246</ele>
        <time>2019-07-06T15:21:51Z</time>
      </trkpt>
      <trkpt lat="42.596966" lon="0.682028">
        <ele>2278.541</ele>
        <time>2019-07-06T15:21:55Z</time>
      </trkpt>
      <trkpt lat="42.596914" lon="0.682022">
        <ele>2277.366</ele>
        <time>2019-07-06T15:22:00Z</time>
      </trkpt>
      <trkpt lat="42.596866" lon="0.682006">
        <ele>2276.880</ele>
        <time>2019-07-06T15:22:04Z</time>
      </trkpt>
      <trkpt lat="42.596819" lon="0.682015">
        <ele>2276.016</ele>
        <time>2019-07-06T15:22:08Z</time>
      </trkpt>
      <trkpt lat="42.596774" lon="0.681988">
        <ele>2276.610</ele>
        <time>2019-07-06T15:22:19Z</time>
      </trkpt>
      <trkpt lat="42.596726" lon="0.681977">
        <ele>2277.252</ele>
        <time>2019-07-06T15:22:23Z</time>
      </trkpt>
      <trkpt lat="42.596706" lon="0.682040">
        <ele>2276.879</ele>
        <time>2019-07-06T15:22:39Z</time>
      </trkpt>
      <trkpt lat="42.596670" lon="0.682078">
        <ele>2275.405</ele>
        <time>2019-07-06T15:22:50Z</time>
      </trkpt>
      <trkpt lat="42.596627" lon="0.682112">
        <ele>2274.125</ele>
        <time>2019-07-06T15:22:56Z</time>
      </trkpt>
      <trkpt lat="42.596570" lon="0.682133">
        <ele>2273.208</ele>
        <time>2019-07-06T15:23:02Z</time>
      </trkpt>
      <trkpt lat="42.596516" lon="0.682143">
        <ele>2273.260</ele>
        <time>2019-07-06T15:23:05Z</time>
      </trkpt>
      <trkpt lat="42.596465" lon="0.682117">
        <ele>2272.295</ele>
        <time>2019-07-06T15:23:08Z</time>
      </trkpt>
      <trkpt lat="42.596423" lon="0.682090">
        <ele>2273.260</ele>
        <time>2019-07-06T15:23:10Z</time>
      </trkpt>
      <trkpt lat="42.596367" lon="0.682074">
        <ele>2274.045</ele>
        <time>2019-07-06T15:23:13Z</time>
      </trkpt>
      <trkpt lat="42.596324" lon="0.682092">
        <ele>2272.929</ele>
        <time>2019-07-06T15:23:17Z</time>
      </trkpt>
      <trkpt lat="42.596275" lon="0.682117">
        <ele>2274.775</ele>
        <time>2019-07-06T15:23:21Z</time>
      </trkpt>
      <trkpt lat="42.596226" lon="0.682106">
        <ele>2273.569</ele>
        <time>2019-07-06T15:23:25Z</time>
      </trkpt>
      <trkpt lat="42.596182" lon="0.682139">
        <ele>2273.481</ele>
        <time>2019-07-06T15:23:30Z</time>
      </trkpt>
      <trkpt lat="42.596134" lon="0.682154">
        <ele>2274.019</ele>
        <time>2019-07-06T15:23:43Z</time>
      </trkpt>
      <trkpt lat="42.596087" lon="0.682152">
        <ele>2272.409</ele>
        <time>2019-07-06T15:23:55Z</time>
      </trkpt>
      <trkpt lat="42.596041" lon="0.682136">
        <ele>2271.319</ele>
        <time>2019-07-06T15:24:02Z</time>
      </trkpt>
      <trkpt lat="42.595995" lon="0.682158">
        <ele>2271.308</ele>
        <time>2019-07-06T15:24:07Z</time>
      </trkpt>
      <trkpt lat="42.595979" lon="0.682217">
        <ele>2269.954</ele>
        <time>2019-07-06T15:24:17Z</time>
      </trkpt>
      <trkpt lat="42.595933" lon="0.682229">
        <ele>2266.549</ele>
        <time>2019-07-06T15:24:39Z</time>
      </trkpt>
      <trkpt lat="42.595895" lon="0.682185">
        <ele>2265.254</ele>
        <time>2019-07-06T15:24:54Z</time>
      </trkpt>
      <trkpt lat="42.595849" lon="0.682185">
        <ele>2267.599</ele>
        <time>2019-07-06T15:25:01Z</time>
      </trkpt>
      <trkpt lat="42.595833" lon="0.682249">
        <ele>2266.233</ele>
        <time>2019-07-06T15:25:20Z</time>
      </trkpt>
      <trkpt lat="42.595786" lon="0.682274">
        <ele>2264.889</ele>
        <time>2019-07-06T15:25:28Z</time>
      </trkpt>
      <trkpt lat="42.595733" lon="0.682293">
        <ele>2264.743</ele>
        <time>2019-07-06T15:25:35Z</time>
      </trkpt>
      <trkpt lat="42.595685" lon="0.682292">
        <ele>2262.785</ele>
        <time>2019-07-06T15:25:41Z</time>
      </trkpt>
      <trkpt lat="42.595638" lon="0.682315">
        <ele>2264.114</ele>
        <time>2019-07-06T15:25:49Z</time>
      </trkpt>
      <trkpt lat="42.595602" lon="0.682364">
        <ele>2263.754</ele>
        <time>2019-07-06T15:26:01Z</time>
      </trkpt>
      <trkpt lat="42.595554" lon="0.682397">
        <ele>2264.409</ele>
        <time>2019-07-06T15:26:09Z</time>
      </trkpt>
      <trkpt lat="42.595507" lon="0.682389">
        <ele>2264.608</ele>
        <time>2019-07-06T15:26:13Z</time>
      </trkpt>
      <trkpt lat="42.595465" lon="0.682357">
        <ele>2263.334</ele>
        <time>2019-07-06T15:26:22Z</time>
      </trkpt>
      <trkpt lat="42.595416" lon="0.682374">
        <ele>2263.699</ele>
        <time>2019-07-06T15:26:28Z</time>
      </trkpt>
      <trkpt lat="42.595370" lon="0.682385">
        <ele>2263.664</ele>
        <time>2019-07-06T15:26:44Z</time>
      </trkpt>
      <trkpt lat="42.595316" lon="0.682374">
        <ele>2262.779</ele>
        <time>2019-07-06T15:26:47Z</time>
      </trkpt>
      <trkpt lat="42.595268" lon="0.682362">
        <ele>2261.633</ele>
        <time>2019-07-06T15:26:51Z</time>
      </trkpt>
      <trkpt lat="42.595214" lon="0.682354">
        <ele>2262.239</ele>
        <time>2019-07-06T15:26:58Z</time>
      </trkpt>
      <trkpt lat="42.595165" lon="0.682352">
        <ele>2261.753</ele>
        <time>2019-07-06T15:27:02Z</time>
      </trkpt>
      <trkpt lat="42.595120" lon="0.682341">
        <ele>2260.945</ele>
        <time>2019-07-06T15:27:07Z</time>
      </trkpt>
      <trkpt lat="42.595066" lon="0.682316">
        <ele>2260.064</ele>
        <time>2019-07-06T15:27:10Z</time>
      </trkpt>
      <trkpt lat="42.595025" lon="0.682291">
        <ele>2260.206</ele>
        <time>2019-07-06T15:27:13Z</time>
      </trkpt>
      <trkpt lat="42.594972" lon="0.682282">
        <ele>2259.616</ele>
        <time>2019-07-06T15:27:18Z</time>
      </trkpt>
      <trkpt lat="42.594920" lon="0.682268">
        <ele>2259.208</ele>
        <time>2019-07-06T15:27:22Z</time>
      </trkpt>
      <trkpt lat="42.594875" lon="0.682263">
        <ele>2259.069</ele>
        <time>2019-07-06T15:27:26Z</time>
      </trkpt>
      <trkpt lat="42.594831" lon="0.682236">
        <ele>2258.134</ele>
        <time>2019-07-06T15:27:34Z</time>
      </trkpt>
      <trkpt lat="42.594786" lon="0.682219">
        <ele>2256.949</ele>
        <time>2019-07-06T15:27:47Z</time>
      </trkpt>
      <trkpt lat="42.594733" lon="0.682203">
        <ele>2255.364</ele>
        <time>2019-07-06T15:27:52Z</time>
      </trkpt>
      <trkpt lat="42.594692" lon="0.682229">
        <ele>2255.138</ele>
        <time>2019-07-06T15:27:58Z</time>
      </trkpt>
      <trkpt lat="42.594645" lon="0.682240">
        <ele>2253.634</ele>
        <time>2019-07-06T15:28:07Z</time>
      </trkpt>
      <trkpt lat="42.594603" lon="0.682279">
        <ele>2251.978</ele>
        <time>2019-07-06T15:28:32Z</time>
      </trkpt>
      <trkpt lat="42.594573" lon="0.682325">
        <ele>2250.350</ele>
        <time>2019-07-06T15:28:40Z</time>
      </trkpt>
      <trkpt lat="42.594521" lon="0.682321">
        <ele>2249.083</ele>
        <time>2019-07-06T15:28:46Z</time>
      </trkpt>
      <trkpt lat="42.594473" lon="0.682305">
        <ele>2248.825</ele>
        <time>2019-07-06T15:28:50Z</time>
      </trkpt>
      <trkpt lat="42.594425" lon="0.682299">
        <ele>2248.617</ele>
        <time>2019-07-06T15:28:55Z</time>
      </trkpt>
      <trkpt lat="42.594380" lon="0.682308">
        <ele>2248.608</ele>
        <time>2019-07-06T15:28:59Z</time>
      </trkpt>
      <trkpt lat="42.594329" lon="0.682292">
        <ele>2248.521</ele>
        <time>2019-07-06T15:29:04Z</time>
      </trkpt>
      <trkpt lat="42.594286" lon="0.682272">
        <ele>2247.996</ele>
        <time>2019-07-06T15:29:07Z</time>
      </trkpt>
      <trkpt lat="42.594247" lon="0.682240">
        <ele>2246.231</ele>
        <time>2019-07-06T15:29:11Z</time>
      </trkpt>
      <trkpt lat="42.594202" lon="0.682207">
        <ele>2244.796</ele>
        <time>2019-07-06T15:29:24Z</time>
      </trkpt>
      <trkpt lat="42.594163" lon="0.682171">
        <ele>2242.470</ele>
        <time>2019-07-06T15:29:31Z</time>
      </trkpt>
      <trkpt lat="42.594121" lon="0.682133">
        <ele>2242.026</ele>
        <time>2019-07-06T15:29:36Z</time>
      </trkpt>
      <trkpt lat="42.594069" lon="0.682104">
        <ele>2241.710</ele>
        <time>2019-07-06T15:29:41Z</time>
      </trkpt>
      <trkpt lat="42.594019" lon="0.682073">
        <ele>2241.062</ele>
        <time>2019-07-06T15:29:44Z</time>
      </trkpt>
      <trkpt lat="42.593992" lon="0.682024">
        <ele>2238.398</ele>
        <time>2019-07-06T15:29:56Z</time>
      </trkpt>
      <trkpt lat="42.593956" lon="0.681977">
        <ele>2239.915</ele>
        <time>2019-07-06T15:30:01Z</time>
      </trkpt>
      <trkpt lat="42.593902" lon="0.681959">
        <ele>2238.226</ele>
        <time>2019-07-06T15:30:06Z</time>
      </trkpt>
      <trkpt lat="42.593847" lon="0.681963">
        <ele>2235.708</ele>
        <time>2019-07-06T15:30:25Z</time>
      </trkpt>
      <trkpt lat="42.593807" lon="0.681992">
        <ele>2236.612</ele>
        <time>2019-07-06T15:30:34Z</time>
      </trkpt>
      <trkpt lat="42.593765" lon="0.682015">
        <ele>2234.837</ele>
        <time>2019-07-06T15:30:38Z</time>
      </trkpt>
      <trkpt lat="42.593714" lon="0.682028">
        <ele>2232.752</ele>
        <time>2019-07-06T15:30:49Z</time>
      </trkpt>
      <trkpt lat="42.593660" lon="0.682021">
        <ele>2230.937</ele>
        <time>2019-07-06T15:30:52Z</time>
      </trkpt>
      <trkpt lat="42.593614" lon="0.682010">
        <ele>2231.111</ele>
        <time>2019-07-06T15:31:01Z</time>
      </trkpt>
      <trkpt lat="42.593577" lon="0.681969">
        <ele>2229.627</ele>
        <time>2019-07-06T15:31:08Z</time>
      </trkpt>
      <trkpt lat="42.593536" lon="0.681930">
        <ele>2229.451</ele>
        <time>2019-07-06T15:31:13Z</time>
      </trkpt>
      <trkpt lat="42.593487" lon="0.681901">
        <ele>2228.023</ele>
        <time>2019-07-06T15:31:19Z</time>
      </trkpt>
      <trkpt lat="42.593441" lon="0.681885">
        <ele>2228.456</ele>
        <time>2019-07-06T15:31:26Z</time>
      </trkpt>
      <trkpt lat="42.593406" lon="0.681837">
        <ele>2227.559</ele>
        <time>2019-07-06T15:31:36Z</time>
      </trkpt>
      <trkpt lat="42.593350" lon="0.681828">
        <ele>2226.914</ele>
        <time>2019-07-06T15:31:40Z</time>
      </trkpt>
      <trkpt lat="42.593295" lon="0.681808">
        <ele>2227.308</ele>
        <time>2019-07-06T15:31:44Z</time>
      </trkpt>
      <trkpt lat="42.593251" lon="0.681788">
        <ele>2226.628</ele>
        <time>2019-07-06T15:31:48Z</time>
      </trkpt>
      <trkpt lat="42.593213" lon="0.681746">
        <ele>2225.133</ele>
        <time>2019-07-06T15:31:56Z</time>
      </trkpt>
      <trkpt lat="42.593184" lon="0.681692">
        <ele>2223.468</ele>
        <time>2019-07-06T15:32:08Z</time>
      </trkpt>
      <trkpt lat="42.593142" lon="0.681666">
        <ele>2221.913</ele>
        <time>2019-07-06T15:32:17Z</time>
      </trkpt>
      <trkpt lat="42.593095" lon="0.681641">
        <ele>2221.217</ele>
        <time>2019-07-06T15:32:23Z</time>
      </trkpt>
      <trkpt lat="42.593060" lon="0.681586">
        <ele>2220.323</ele>
        <time>2019-07-06T15:32:30Z</time>
      </trkpt>
      <trkpt lat="42.593025" lon="0.681544">
        <ele>2218.387</ele>
        <time>2019-07-06T15:32:39Z</time>
      </trkpt>
      <trkpt lat="42.593031" lon="0.681482">
        <ele>2216.259</ele>
        <time>2019-07-06T15:32:56Z</time>
      </trkpt>
      <trkpt lat="42.592991" lon="0.681444">
        <ele>2217.185</ele>
        <time>2019-07-06T15:33:07Z</time>
      </trkpt>
      <trkpt lat="42.592952" lon="0.681405">
        <ele>2218.189</ele>
        <time>2019-07-06T15:33:12Z</time>
      </trkpt>
      <trkpt lat="42.592908" lon="0.681367">
        <ele>2218.117</ele>
        <time>2019-07-06T15:33:17Z</time>
      </trkpt>
      <trkpt lat="42.592867" lon="0.681340">
        <ele>2217.608</ele>
        <time>2019-07-06T15:33:22Z</time>
      </trkpt>
      <trkpt lat="42.592827" lon="0.681308">
        <ele>2218.561</ele>
        <time>2019-07-06T15:33:28Z</time>
      </trkpt>
      <trkpt lat="42.592784" lon="0.681282">
        <ele>2216.466</ele>
        <time>2019-07-06T15:33:32Z</time>
      </trkpt>
      <trkpt lat="42.592739" lon="0.681254">
        <ele>2216.191</ele>
        <time>2019-07-06T15:33:36Z</time>
      </trkpt>
      <trkpt lat="42.592693" lon="0.681246">
        <ele>2216.756</ele>
        <time>2019-07-06T15:33:42Z</time>
      </trkpt>
      <trkpt lat="42.592646" lon="0.681248">
        <ele>2216.720</ele>
        <time>2019-07-06T15:33:48Z</time>
      </trkpt>
      <trkpt lat="42.592599" lon="0.681257">
        <ele>2216.676</ele>
        <time>2019-07-06T15:33:53Z</time>
      </trkpt>
      <trkpt lat="42.592553" lon="0.681267">
        <ele>2215.290</ele>
        <time>2019-07-06T15:33:58Z</time>
      </trkpt>
      <trkpt lat="42.592509" lon="0.681252">
        <ele>2214.532</ele>
        <time>2019-07-06T15:34:03Z</time>
      </trkpt>
      <trkpt lat="42.592470" lon="0.681216">
        <ele>2214.076</ele>
        <time>2019-07-06T15:34:08Z</time>
      </trkpt>
      <trkpt lat="42.592428" lon="0.681181">
        <ele>2212.390</ele>
        <time>2019-07-06T15:34:14Z</time>
      </trkpt>
      <trkpt lat="42.592381" lon="0.681197">
        <ele>2212.219</ele>
        <time>2019-07-06T15:34:22Z</time>
      </trkpt>
      <trkpt lat="42.592331" lon="0.681179">
        <ele>2211.508</ele>
        <time>2019-07-06T15:34:33Z</time>
      </trkpt>
      <trkpt lat="42.592281" lon="0.681181">
        <ele>2211.530</ele>
        <time>2019-07-06T15:34:41Z</time>
      </trkpt>
      <trkpt lat="42.592241" lon="0.681209">
        <ele>2212.315</ele>
        <time>2019-07-06T15:34:50Z</time>
      </trkpt>
      <trkpt lat="42.592195" lon="0.681233">
        <ele>2213.730</ele>
        <time>2019-07-06T15:34:58Z</time>
      </trkpt>
      <trkpt lat="42.592150" lon="0.681233">
        <ele>2214.955</ele>
        <time>2019-07-06T15:35:07Z</time>
      </trkpt>
      <trkpt lat="42.592107" lon="0.681256">
        <ele>2216.819</ele>
        <time>2019-07-06T15:35:37Z</time>
      </trkpt>
      <trkpt lat="42.592061" lon="0.681231">
        <ele>2217.795</ele>
        <time>2019-07-06T15:35:44Z</time>
      </trkpt>
      <trkpt lat="42.592019" lon="0.681207">
        <ele>2216.539</ele>
        <time>2019-07-06T15:35:51Z</time>
      </trkpt>
      <trkpt lat="42.591979" lon="0.681168">
        <ele>2215.631</ele>
        <time>2019-07-06T15:36:09Z</time>
      </trkpt>
      <trkpt lat="42.591936" lon="0.681136">
        <ele>2216.841</ele>
        <time>2019-07-06T15:36:19Z</time>
      </trkpt>
      <trkpt lat="42.591889" lon="0.681143">
        <ele>2216.881</ele>
        <time>2019-07-06T15:36:32Z</time>
      </trkpt>
      <trkpt lat="42.591845" lon="0.681116">
        <ele>2215.809</ele>
        <time>2019-07-06T15:36:55Z</time>
      </trkpt>
      <trkpt lat="42.591792" lon="0.681101">
        <ele>2216.608</ele>
        <time>2019-07-06T15:37:00Z</time>
      </trkpt>
      <trkpt lat="42.591745" lon="0.681088">
        <ele>2217.257</ele>
        <time>2019-07-06T15:37:07Z</time>
      </trkpt>
      <trkpt lat="42.591699" lon="0.681100">
        <ele>2218.492</ele>
        <time>2019-07-06T15:37:13Z</time>
      </trkpt>
      <trkpt lat="42.591653" lon="0.681097">
        <ele>2218.537</ele>
        <time>2019-07-06T15:37:19Z</time>
      </trkpt>
      <trkpt lat="42.591603" lon="0.681075">
        <ele>2216.542</ele>
        <time>2019-07-06T15:37:25Z</time>
      </trkpt>
      <trkpt lat="42.591550" lon="0.681066">
        <ele>2215.556</ele>
        <time>2019-07-06T15:37:30Z</time>
      </trkpt>
      <trkpt lat="42.591499" lon="0.681048">
        <ele>2215.972</ele>
        <time>2019-07-06T15:37:37Z</time>
      </trkpt>
      <trkpt lat="42.591447" lon="0.681032">
        <ele>2216.296</ele>
        <time>2019-07-06T15:37:42Z</time>
      </trkpt>
      <trkpt lat="42.591397" lon="0.681034">
        <ele>2216.658</ele>
        <time>2019-07-06T15:37:46Z</time>
      </trkpt>
      <trkpt lat="42.591352" lon="0.681019">
        <ele>2218.074</ele>
        <time>2019-07-06T15:37:53Z</time>
      </trkpt>
      <trkpt lat="42.591299" lon="0.681037">
        <ele>2218.256</ele>
        <time>2019-07-06T15:38:03Z</time>
      </trkpt>
      <trkpt lat="42.591253" lon="0.681022">
        <ele>2218.521</ele>
        <time>2019-07-06T15:38:15Z</time>
      </trkpt>
      <trkpt lat="42.591205" lon="0.681034">
        <ele>2221.108</ele>
        <time>2019-07-06T15:38:23Z</time>
      </trkpt>
      <trkpt lat="42.591177" lon="0.681085">
        <ele>2221.230</ele>
        <time>2019-07-06T15:38:33Z</time>
      </trkpt>
      <trkpt lat="42.591128" lon="0.681085">
        <ele>2222.265</ele>
        <time>2019-07-06T15:38:50Z</time>
      </trkpt>
      <trkpt lat="42.591080" lon="0.681081">
        <ele>2222.040</ele>
        <time>2019-07-06T15:38:54Z</time>
      </trkpt>
      <trkpt lat="42.591030" lon="0.681082">
        <ele>2221.765</ele>
        <time>2019-07-06T15:39:00Z</time>
      </trkpt>
      <trkpt lat="42.590983" lon="0.681089">
        <ele>2221.829</ele>
        <time>2019-07-06T15:39:05Z</time>
      </trkpt>
      <trkpt lat="42.590932" lon="0.681085">
        <ele>2221.035</ele>
        <time>2019-07-06T15:39:11Z</time>
      </trkpt>
      <trkpt lat="42.590877" lon="0.681087">
        <ele>2220.649</ele>
        <time>2019-07-06T15:39:17Z</time>
      </trkpt>
      <trkpt lat="42.590829" lon="0.681091">
        <ele>2220.221</ele>
        <time>2019-07-06T15:39:22Z</time>
      </trkpt>
      <trkpt lat="42.590789" lon="0.681121">
        <ele>2220.015</ele>
        <time>2019-07-06T15:39:26Z</time>
      </trkpt>
      <trkpt lat="42.590777" lon="0.681186">
        <ele>2220.565</ele>
        <time>2019-07-06T15:39:37Z</time>
      </trkpt>
      <trkpt lat="42.590780" lon="0.681250">
        <ele>2222.711</ele>
        <time>2019-07-06T15:39:47Z</time>
      </trkpt>
      <trkpt lat="42.590738" lon="0.681274">
        <ele>2223.008</ele>
        <time>2019-07-06T15:40:05Z</time>
      </trkpt>
      <trkpt lat="42.590704" lon="0.681321">
        <ele>2222.724</ele>
        <time>2019-07-06T15:40:12Z</time>
      </trkpt>
      <trkpt lat="42.590661" lon="0.681341">
        <ele>2223.689</ele>
        <time>2019-07-06T15:40:17Z</time>
      </trkpt>
      <trkpt lat="42.590622" lon="0.681378">
        <ele>2222.914</ele>
        <time>2019-07-06T15:40:23Z</time>
      </trkpt>
      <trkpt lat="42.590583" lon="0.681421">
        <ele>2223.519</ele>
        <time>2019-07-06T15:40:29Z</time>
      </trkpt>
      <trkpt lat="42.590551" lon="0.681473">
        <ele>2221.623</ele>
        <time>2019-07-06T15:40:37Z</time>
      </trkpt>
      <trkpt lat="42.590505" lon="0.681507">
        <ele>2223.569</ele>
        <time>2019-07-06T15:40:45Z</time>
      </trkpt>
      <trkpt lat="42.590464" lon="0.681534">
        <ele>2226.053</ele>
        <time>2019-07-06T15:40:56Z</time>
      </trkpt>
      <trkpt lat="42.590423" lon="0.681565">
        <ele>2226.895</ele>
        <time>2019-07-06T15:41:09Z</time>
      </trkpt>
      <trkpt lat="42.590375" lon="0.681581">
        <ele>2231.483</ele>
        <time>2019-07-06T15:41:23Z</time>
      </trkpt>
      <trkpt lat="42.590331" lon="0.681612">
        <ele>2230.525</ele>
        <time>2019-07-06T15:41:29Z</time>
      </trkpt>
      <trkpt lat="42.590278" lon="0.681632">
        <ele>2232.117</ele>
        <time>2019-07-06T15:41:35Z</time>
      </trkpt>
      <trkpt lat="42.590229" lon="0.681631">
        <ele>2233.308</ele>
        <time>2019-07-06T15:41:44Z</time>
      </trkpt>
      <trkpt lat="42.590182" lon="0.681627">
        <ele>2232.341</ele>
        <time>2019-07-06T15:41:54Z</time>
      </trkpt>
      <trkpt lat="42.590141" lon="0.681591">
        <ele>2235.146</ele>
        <time>2019-07-06T15:42:03Z</time>
      </trkpt>
      <trkpt lat="42.590093" lon="0.681579">
        <ele>2235.561</ele>
        <time>2019-07-06T15:42:14Z</time>
      </trkpt>
      <trkpt lat="42.590051" lon="0.681615">
        <ele>2236.026</ele>
        <time>2019-07-06T15:42:26Z</time>
      </trkpt>
      <trkpt lat="42.590001" lon="0.681623">
        <ele>2236.360</ele>
        <time>2019-07-06T15:42:33Z</time>
      </trkpt>
      <trkpt lat="42.589957" lon="0.681637">
        <ele>2237.046</ele>
        <time>2019-07-06T15:42:42Z</time>
      </trkpt>
      <trkpt lat="42.589910" lon="0.681668">
        <ele>2239.440</ele>
        <time>2019-07-06T15:42:49Z</time>
      </trkpt>
      <trkpt lat="42.589861" lon="0.681649">
        <ele>2238.762</ele>
        <time>2019-07-06T15:42:52Z</time>
      </trkpt>
      <trkpt lat="42.589824" lon="0.681607">
        <ele>2235.573</ele>
        <time>2019-07-06T15:43:09Z</time>
      </trkpt>
      <trkpt lat="42.589773" lon="0.681626">
        <ele>2232.785</ele>
        <time>2019-07-06T15:43:15Z</time>
      </trkpt>
      <trkpt lat="42.589725" lon="0.681654">
        <ele>2231.513</ele>
        <time>2019-07-06T15:43:21Z</time>
      </trkpt>
      <trkpt lat="42.589674" lon="0.681680">
        <ele>2232.608</ele>
        <time>2019-07-06T15:43:25Z</time>
      </trkpt>
      <trkpt lat="42.589628" lon="0.681691">
        <ele>2233.550</ele>
        <time>2019-07-06T15:43:29Z</time>
      </trkpt>
      <trkpt lat="42.589570" lon="0.681682">
        <ele>2233.275</ele>
        <time>2019-07-06T15:43:33Z</time>
      </trkpt>
      <trkpt lat="42.589522" lon="0.681656">
        <ele>2233.790</ele>
        <time>2019-07-06T15:43:38Z</time>
      </trkpt>
      <trkpt lat="42.589478" lon="0.681626">
        <ele>2235.055</ele>
        <time>2019-07-06T15:43:44Z</time>
      </trkpt>
      <trkpt lat="42.589428" lon="0.681610">
        <ele>2233.259</ele>
        <time>2019-07-06T15:43:53Z</time>
      </trkpt>
      <trkpt lat="42.589460" lon="0.681565">
        <ele>2230.615</ele>
        <time>2019-07-06T15:44:10Z</time>
      </trkpt>
      <trkpt lat="42.589458" lon="0.681628">
        <ele>2230.719</ele>
        <time>2019-07-06T15:44:28Z</time>
      </trkpt>
      <trkpt lat="42.589412" lon="0.681623">
        <ele>2230.981</ele>
        <time>2019-07-06T15:44:59Z</time>
      </trkpt>
      <trkpt lat="42.589424" lon="0.681559">
        <ele>2228.163</ele>
        <time>2019-07-06T15:45:11Z</time>
      </trkpt>
      <trkpt lat="42.589400" lon="0.681505">
        <ele>2226.444</ele>
        <time>2019-07-06T15:45:15Z</time>
      </trkpt>
      <trkpt lat="42.589367" lon="0.681449">
        <ele>2226.418</ele>
        <time>2019-07-06T15:45:23Z</time>
      </trkpt>
      <trkpt lat="42.589362" lon="0.681380">
        <ele>2226.408</ele>
        <time>2019-07-06T15:45:28Z</time>
      </trkpt>
      <trkpt lat="42.589375" lon="0.681317">
        <ele>2224.229</ele>
        <time>2019-07-06T15:45:37Z</time>
      </trkpt>
      <trkpt lat="42.589386" lon="0.681250">
        <ele>2223.264</ele>
        <time>2019-07-06T15:45:44Z</time>
      </trkpt>
      <trkpt lat="42.589391" lon="0.681188">
        <ele>2222.969</ele>
        <time>2019-07-06T15:45:52Z</time>
      </trkpt>
      <trkpt lat="42.589344" lon="0.681177">
        <ele>2220.744</ele>
        <time>2019-07-06T15:46:00Z</time>
      </trkpt>
      <trkpt lat="42.589294" lon="0.681181">
        <ele>2217.658</ele>
        <time>2019-07-06T15:46:10Z</time>
      </trkpt>
      <trkpt lat="42.589260" lon="0.681226">
        <ele>2217.644</ele>
        <time>2019-07-06T15:46:16Z</time>
      </trkpt>
      <trkpt lat="42.589217" lon="0.681205">
        <ele>2215.668</ele>
        <time>2019-07-06T15:46:21Z</time>
      </trkpt>
      <trkpt lat="42.589185" lon="0.681158">
        <ele>2213.870</ele>
        <time>2019-07-06T15:46:28Z</time>
      </trkpt>
      <trkpt lat="42.589150" lon="0.681106">
        <ele>2213.155</ele>
        <time>2019-07-06T15:46:34Z</time>
      </trkpt>
      <trkpt lat="42.589122" lon="0.681051">
        <ele>2211.407</ele>
        <time>2019-07-06T15:46:42Z</time>
      </trkpt>
      <trkpt lat="42.589116" lon="0.680990">
        <ele>2211.117</ele>
        <time>2019-07-06T15:46:47Z</time>
      </trkpt>
      <trkpt lat="42.589103" lon="0.680925">
        <ele>2208.808</ele>
        <time>2019-07-06T15:47:00Z</time>
      </trkpt>
      <trkpt lat="42.589068" lon="0.680875">
        <ele>2206.338</ele>
        <time>2019-07-06T15:47:06Z</time>
      </trkpt>
      <trkpt lat="42.589017" lon="0.680875">
        <ele>2205.323</ele>
        <time>2019-07-06T15:47:14Z</time>
      </trkpt>
      <trkpt lat="42.588970" lon="0.680846">
        <ele>2204.488</ele>
        <time>2019-07-06T15:47:21Z</time>
      </trkpt>
      <trkpt lat="42.588919" lon="0.680814">
        <ele>2203.453</ele>
        <time>2019-07-06T15:47:26Z</time>
      </trkpt>
      <trkpt lat="42.588874" lon="0.680794">
        <ele>2201.367</ele>
        <time>2019-07-06T15:47:30Z</time>
      </trkpt>
      <trkpt lat="42.588832" lon="0.680767">
        <ele>2201.423</ele>
        <time>2019-07-06T15:47:34Z</time>
      </trkpt>
      <trkpt lat="42.588801" lon="0.680722">
        <ele>2200.437</ele>
        <time>2019-07-06T15:47:44Z</time>
      </trkpt>
      <trkpt lat="42.588776" lon="0.680669">
        <ele>2198.549</ele>
        <time>2019-07-06T15:47:51Z</time>
      </trkpt>
      <trkpt lat="42.588747" lon="0.680619">
        <ele>2200.862</ele>
        <time>2019-07-06T15:47:58Z</time>
      </trkpt>
      <trkpt lat="42.588717" lon="0.680566">
        <ele>2197.883</ele>
        <time>2019-07-06T15:48:03Z</time>
      </trkpt>
      <trkpt lat="42.588710" lon="0.680499">
        <ele>2198.011</ele>
        <time>2019-07-06T15:48:08Z</time>
      </trkpt>
      <trkpt lat="42.588669" lon="0.680459">
        <ele>2195.608</ele>
        <time>2019-07-06T15:48:20Z</time>
      </trkpt>
      <trkpt lat="42.588655" lon="0.680399">
        <ele>2195.789</ele>
        <time>2019-07-06T15:48:27Z</time>
      </trkpt>
      <trkpt lat="42.588632" lon="0.680338">
        <ele>2196.744</ele>
        <time>2019-07-06T15:49:06Z</time>
      </trkpt>
      <trkpt lat="42.588591" lon="0.680304">
        <ele>2192.789</ele>
        <time>2019-07-06T15:49:14Z</time>
      </trkpt>
      <trkpt lat="42.588568" lon="0.680250">
        <ele>2192.214</ele>
        <time>2019-07-06T15:49:20Z</time>
      </trkpt>
      <trkpt lat="42.588534" lon="0.680196">
        <ele>2191.538</ele>
        <time>2019-07-06T15:49:25Z</time>
      </trkpt>
      <trkpt lat="42.588492" lon="0.680154">
        <ele>2190.764</ele>
        <time>2019-07-06T15:49:33Z</time>
      </trkpt>
      <trkpt lat="42.588462" lon="0.680099">
        <ele>2189.548</ele>
        <time>2019-07-06T15:49:39Z</time>
      </trkpt>
      <trkpt lat="42.588440" lon="0.680038">
        <ele>2185.920</ele>
        <time>2019-07-06T15:49:45Z</time>
      </trkpt>
      <trkpt lat="42.588432" lon="0.679973">
        <ele>2185.114</ele>
        <time>2019-07-06T15:49:51Z</time>
      </trkpt>
      <trkpt lat="42.588416" lon="0.679912">
        <ele>2181.854</ele>
        <time>2019-07-06T15:49:57Z</time>
      </trkpt>
      <trkpt lat="42.588396" lon="0.679848">
        <ele>2182.409</ele>
        <time>2019-07-06T15:50:03Z</time>
      </trkpt>
      <trkpt lat="42.588376" lon="0.679790">
        <ele>2181.108</ele>
        <time>2019-07-06T15:50:09Z</time>
      </trkpt>
      <trkpt lat="42.588354" lon="0.679736">
        <ele>2178.974</ele>
        <time>2019-07-06T15:50:15Z</time>
      </trkpt>
      <trkpt lat="42.588336" lon="0.679669">
        <ele>2176.889</ele>
        <time>2019-07-06T15:50:23Z</time>
      </trkpt>
      <trkpt lat="42.588314" lon="0.679615">
        <ele>2175.394</ele>
        <time>2019-07-06T15:50:28Z</time>
      </trkpt>
      <trkpt lat="42.588279" lon="0.679558">
        <ele>2175.179</ele>
        <time>2019-07-06T15:50:35Z</time>
      </trkpt>
      <trkpt lat="42.588245" lon="0.679517">
        <ele>2172.963</ele>
        <time>2019-07-06T15:50:40Z</time>
      </trkpt>
      <trkpt lat="42.588212" lon="0.679466">
        <ele>2171.889</ele>
        <time>2019-07-06T15:50:45Z</time>
      </trkpt>
      <trkpt lat="42.588180" lon="0.679417">
        <ele>2172.463</ele>
        <time>2019-07-06T15:50:49Z</time>
      </trkpt>
      <trkpt lat="42.588153" lon="0.679365">
        <ele>2169.595</ele>
        <time>2019-07-06T15:50:54Z</time>
      </trkpt>
      <trkpt lat="42.588134" lon="0.679309">
        <ele>2167.759</ele>
        <time>2019-07-06T15:51:01Z</time>
      </trkpt>
      <trkpt lat="42.588088" lon="0.679323">
        <ele>2166.403</ele>
        <time>2019-07-06T15:51:12Z</time>
      </trkpt>
      <trkpt lat="42.588045" lon="0.679285">
        <ele>2164.523</ele>
        <time>2019-07-06T15:51:19Z</time>
      </trkpt>
      <trkpt lat="42.587997" lon="0.679277">
        <ele>2162.508</ele>
        <time>2019-07-06T15:51:26Z</time>
      </trkpt>
      <trkpt lat="42.587950" lon="0.679271">
        <ele>2161.668</ele>
        <time>2019-07-06T15:51:32Z</time>
      </trkpt>
      <trkpt lat="42.587905" lon="0.679233">
        <ele>2158.533</ele>
        <time>2019-07-06T15:51:51Z</time>
      </trkpt>
      <trkpt lat="42.587858" lon="0.679216">
        <ele>2158.068</ele>
        <time>2019-07-06T15:51:55Z</time>
      </trkpt>
      <trkpt lat="42.587814" lon="0.679204">
        <ele>2156.383</ele>
        <time>2019-07-06T15:51:59Z</time>
      </trkpt>
      <trkpt lat="42.587758" lon="0.679223">
        <ele>2154.827</ele>
        <time>2019-07-06T15:52:03Z</time>
      </trkpt>
      <trkpt lat="42.587711" lon="0.679222">
        <ele>2154.253</ele>
        <time>2019-07-06T15:52:08Z</time>
      </trkpt>
      <trkpt lat="42.587668" lon="0.679261">
        <ele>2152.697</ele>
        <time>2019-07-06T15:52:14Z</time>
      </trkpt>
      <trkpt lat="42.587634" lon="0.679307">
        <ele>2151.379</ele>
        <time>2019-07-06T15:52:19Z</time>
      </trkpt>
      <trkpt lat="42.587608" lon="0.679366">
        <ele>2148.496</ele>
        <time>2019-07-06T15:52:27Z</time>
      </trkpt>
      <trkpt lat="42.587553" lon="0.679372">
        <ele>2144.331</ele>
        <time>2019-07-06T15:52:32Z</time>
      </trkpt>
      <trkpt lat="42.587506" lon="0.679375">
        <ele>2143.824</ele>
        <time>2019-07-06T15:52:37Z</time>
      </trkpt>
      <trkpt lat="42.587459" lon="0.679398">
        <ele>2141.008</ele>
        <time>2019-07-06T15:52:43Z</time>
      </trkpt>
      <trkpt lat="42.587424" lon="0.679452">
        <ele>2142.512</ele>
        <time>2019-07-06T15:52:49Z</time>
      </trkpt>
      <trkpt lat="42.587381" lon="0.679482">
        <ele>2140.677</ele>
        <time>2019-07-06T15:52:53Z</time>
      </trkpt>
      <trkpt lat="42.587328" lon="0.679487">
        <ele>2139.792</ele>
        <time>2019-07-06T15:53:05Z</time>
      </trkpt>
      <trkpt lat="42.587283" lon="0.679469">
        <ele>2137.617</ele>
        <time>2019-07-06T15:53:13Z</time>
      </trkpt>
      <trkpt lat="42.587235" lon="0.679471">
        <ele>2134.791</ele>
        <time>2019-07-06T15:53:21Z</time>
      </trkpt>
      <trkpt lat="42.587190" lon="0.679497">
        <ele>2133.557</ele>
        <time>2019-07-06T15:53:28Z</time>
      </trkpt>
      <trkpt lat="42.587140" lon="0.679487">
        <ele>2131.451</ele>
        <time>2019-07-06T15:53:35Z</time>
      </trkpt>
      <trkpt lat="42.587092" lon="0.679509">
        <ele>2130.713</ele>
        <time>2019-07-06T15:53:41Z</time>
      </trkpt>
      <trkpt lat="42.587058" lon="0.679549">
        <ele>2129.739</ele>
        <time>2019-07-06T15:53:53Z</time>
      </trkpt>
      <trkpt lat="42.587026" lon="0.679595">
        <ele>2128.001</ele>
        <time>2019-07-06T15:53:58Z</time>
      </trkpt>
      <trkpt lat="42.586978" lon="0.679599">
        <ele>2126.121</ele>
        <time>2019-07-06T15:54:03Z</time>
      </trkpt>
      <trkpt lat="42.586926" lon="0.679605">
        <ele>2127.408</ele>
        <time>2019-07-06T15:54:13Z</time>
      </trkpt>
      <trkpt lat="42.586896" lon="0.679654">
        <ele>2124.156</ele>
        <time>2019-07-06T15:54:16Z</time>
      </trkpt>
      <trkpt lat="42.586848" lon="0.679669">
        <ele>2122.121</ele>
        <time>2019-07-06T15:54:25Z</time>
      </trkpt>
      <trkpt lat="42.586807" lon="0.679708">
        <ele>2120.196</ele>
        <time>2019-07-06T15:54:36Z</time>
      </trkpt>
      <trkpt lat="42.586768" lon="0.679738">
        <ele>2118.391</ele>
        <time>2019-07-06T15:54:40Z</time>
      </trkpt>
      <trkpt lat="42.586723" lon="0.679750">
        <ele>2114.715</ele>
        <time>2019-07-06T15:54:45Z</time>
      </trkpt>
      <trkpt lat="42.586684" lon="0.679788">
        <ele>2110.791</ele>
        <time>2019-07-06T15:54:51Z</time>
      </trkpt>
      <trkpt lat="42.586649" lon="0.679750">
        <ele>2109.265</ele>
        <time>2019-07-06T15:55:10Z</time>
      </trkpt>
      <trkpt lat="42.586686" lon="0.679785">
        <ele>2109.367</ele>
        <time>2019-07-06T15:55:24Z</time>
      </trkpt>
      <trkpt lat="42.586655" lon="0.679832">
        <ele>2107.568</ele>
        <time>2019-07-06T15:55:48Z</time>
      </trkpt>
      <trkpt lat="42.586612" lon="0.679854">
        <ele>2106.042</ele>
        <time>2019-07-06T15:55:54Z</time>
      </trkpt>
      <trkpt lat="42.586601" lon="0.679914">
        <ele>2105.026</ele>
        <time>2019-07-06T15:56:00Z</time>
      </trkpt>
      <trkpt lat="42.586606" lon="0.679977">
        <ele>2103.108</ele>
        <time>2019-07-06T15:56:09Z</time>
      </trkpt>
      <trkpt lat="42.586629" lon="0.680033">
        <ele>2102.259</ele>
        <time>2019-07-06T15:56:16Z</time>
      </trkpt>
      <trkpt lat="42.586666" lon="0.680082">
        <ele>2100.634</ele>
        <time>2019-07-06T15:56:23Z</time>
      </trkpt>
      <trkpt lat="42.586705" lon="0.680132">
        <ele>2097.839</ele>
        <time>2019-07-06T15:56:29Z</time>
      </trkpt>
      <trkpt lat="42.586744" lon="0.680189">
        <ele>2098.934</ele>
        <time>2019-07-06T15:56:33Z</time>
      </trkpt>
      <trkpt lat="42.586770" lon="0.680241">
        <ele>2099.118</ele>
        <time>2019-07-06T15:56:37Z</time>
      </trkpt>
      <trkpt lat="42.586786" lon="0.680305">
        <ele>2098.824</ele>
        <time>2019-07-06T15:56:45Z</time>
      </trkpt>
      <trkpt lat="42.586820" lon="0.680353">
        <ele>2098.668</ele>
        <time>2019-07-06T15:56:53Z</time>
      </trkpt>
      <trkpt lat="42.586840" lon="0.680425">
        <ele>2097.820</ele>
        <time>2019-07-06T15:56:58Z</time>
      </trkpt>
      <trkpt lat="42.586845" lon="0.680497">
        <ele>2097.571</ele>
        <time>2019-07-06T15:57:03Z</time>
      </trkpt>
      <trkpt lat="42.586880" lon="0.680547">
        <ele>2098.941</ele>
        <time>2019-07-06T15:57:08Z</time>
      </trkpt>
      <trkpt lat="42.586920" lon="0.680600">
        <ele>2097.615</ele>
        <time>2019-07-06T15:57:13Z</time>
      </trkpt>
      <trkpt lat="42.586937" lon="0.680666">
        <ele>2095.908</ele>
        <time>2019-07-06T15:57:18Z</time>
      </trkpt>
      <trkpt lat="42.586953" lon="0.680724">
        <ele>2095.780</ele>
        <time>2019-07-06T15:57:24Z</time>
      </trkpt>
      <trkpt lat="42.586961" lon="0.680791">
        <ele>2095.515</ele>
        <time>2019-07-06T15:57:30Z</time>
      </trkpt>
      <trkpt lat="42.586970" lon="0.680858">
        <ele>2094.630</ele>
        <time>2019-07-06T15:57:35Z</time>
      </trkpt>
      <trkpt lat="42.586957" lon="0.680920">
        <ele>2092.855</ele>
        <time>2019-07-06T15:57:42Z</time>
      </trkpt>
      <trkpt lat="42.586948" lon="0.680992">
        <ele>2092.669</ele>
        <time>2019-07-06T15:57:47Z</time>
      </trkpt>
      <trkpt lat="42.586950" lon="0.681077">
        <ele>2093.285</ele>
        <time>2019-07-06T15:57:52Z</time>
      </trkpt>
      <trkpt lat="42.586955" lon="0.681147">
        <ele>2092.889</ele>
        <time>2019-07-06T15:57:57Z</time>
      </trkpt>
      <trkpt lat="42.586953" lon="0.681210">
        <ele>2090.941</ele>
        <time>2019-07-06T15:58:03Z</time>
      </trkpt>
      <trkpt lat="42.586941" lon="0.681270">
        <ele>2091.012</ele>
        <time>2019-07-06T15:58:07Z</time>
      </trkpt>
      <trkpt lat="42.586939" lon="0.681340">
        <ele>2091.232</ele>
        <time>2019-07-06T15:58:13Z</time>
      </trkpt>
      <trkpt lat="42.586945" lon="0.681410">
        <ele>2093.505</ele>
        <time>2019-07-06T15:58:21Z</time>
      </trkpt>
      <trkpt lat="42.586947" lon="0.681481">
        <ele>2093.008</ele>
        <time>2019-07-06T15:58:26Z</time>
      </trkpt>
      <trkpt lat="42.586934" lon="0.681543">
        <ele>2092.964</ele>
        <time>2019-07-06T15:58:32Z</time>
      </trkpt>
      <trkpt lat="42.586914" lon="0.681602">
        <ele>2093.039</ele>
        <time>2019-07-06T15:58:35Z</time>
      </trkpt>
      <trkpt lat="42.586879" lon="0.681655">
        <ele>2094.774</ele>
        <time>2019-07-06T15:58:39Z</time>
      </trkpt>
      <trkpt lat="42.586838" lon="0.681703">
        <ele>2095.119</ele>
        <time>2019-07-06T15:58:43Z</time>
      </trkpt>
      <trkpt lat="42.586800" lon="0.681760">
        <ele>2095.123</ele>
        <time>2019-07-06T15:58:47Z</time>
      </trkpt>
      <trkpt lat="42.586762" lon="0.681811">
        <ele>2096.079</ele>
        <time>2019-07-06T15:58:51Z</time>
      </trkpt>
      <trkpt lat="42.586724" lon="0.681858">
        <ele>2095.243</ele>
        <time>2019-07-06T15:58:55Z</time>
      </trkpt>
      <trkpt lat="42.586696" lon="0.681911">
        <ele>2095.695</ele>
        <time>2019-07-06T15:58:59Z</time>
      </trkpt>
      <trkpt lat="42.586679" lon="0.681983">
        <ele>2093.739</ele>
        <time>2019-07-06T15:59:04Z</time>
      </trkpt>
      <trkpt lat="42.586663" lon="0.682041">
        <ele>2095.201</ele>
        <time>2019-07-06T15:59:09Z</time>
      </trkpt>
      <trkpt lat="42.586650" lon="0.682103">
        <ele>2096.621</ele>
        <time>2019-07-06T15:59:20Z</time>
      </trkpt>
      <trkpt lat="42.586612" lon="0.682156">
        <ele>2096.008</ele>
        <time>2019-07-06T15:59:32Z</time>
      </trkpt>
      <trkpt lat="42.586588" lon="0.682231">
        <ele>2097.656</ele>
        <time>2019-07-06T15:59:36Z</time>
      </trkpt>
      <trkpt lat="42.586576" lon="0.682291">
        <ele>2097.111</ele>
        <time>2019-07-06T15:59:39Z</time>
      </trkpt>
      <trkpt lat="42.586559" lon="0.682357">
        <ele>2095.676</ele>
        <time>2019-07-06T15:59:43Z</time>
      </trkpt>
      <trkpt lat="42.586539" lon="0.682419">
        <ele>2096.151</ele>
        <time>2019-07-06T15:59:47Z</time>
      </trkpt>
      <trkpt lat="42.586517" lon="0.682474">
        <ele>2096.865</ele>
        <time>2019-07-06T15:59:51Z</time>
      </trkpt>
      <trkpt lat="42.586489" lon="0.682533">
        <ele>2096.631</ele>
        <time>2019-07-06T15:59:55Z</time>
      </trkpt>
      <trkpt lat="42.586463" lon="0.682588">
        <ele>2096.545</ele>
        <time>2019-07-06T15:59:59Z</time>
      </trkpt>
      <trkpt lat="42.586434" lon="0.682636">
        <ele>2097.147</ele>
        <time>2019-07-06T16:00:03Z</time>
      </trkpt>
      <trkpt lat="42.586397" lon="0.682690">
        <ele>2096.777</ele>
        <time>2019-07-06T16:00:07Z</time>
      </trkpt>
      <trkpt lat="42.586372" lon="0.682747">
        <ele>2096.761</ele>
        <time>2019-07-06T16:00:12Z</time>
      </trkpt>
      <trkpt lat="42.586353" lon="0.682808">
        <ele>2096.627</ele>
        <time>2019-07-06T16:00:16Z</time>
      </trkpt>
      <trkpt lat="42.586321" lon="0.682881">
        <ele>2095.408</ele>
        <time>2019-07-06T16:00:21Z</time>
      </trkpt>
      <trkpt lat="42.586296" lon="0.682933">
        <ele>2096.710</ele>
        <time>2019-07-06T16:00:28Z</time>
      </trkpt>
      <trkpt lat="42.586263" lon="0.682993">
        <ele>2096.645</ele>
        <time>2019-07-06T16:00:36Z</time>
      </trkpt>
      <trkpt lat="42.586246" lon="0.683063">
        <ele>2097.690</ele>
        <time>2019-07-06T16:00:41Z</time>
      </trkpt>
      <trkpt lat="42.586240" lon="0.683126">
        <ele>2097.225</ele>
        <time>2019-07-06T16:00:46Z</time>
      </trkpt>
      <trkpt lat="42.586218" lon="0.683193">
        <ele>2095.359</ele>
        <time>2019-07-06T16:00:51Z</time>
      </trkpt>
      <trkpt lat="42.586207" lon="0.683264">
        <ele>2094.295</ele>
        <time>2019-07-06T16:00:57Z</time>
      </trkpt>
      <trkpt lat="42.586185" lon="0.683319">
        <ele>2095.529</ele>
        <time>2019-07-06T16:01:02Z</time>
      </trkpt>
      <trkpt lat="42.586162" lon="0.683375">
        <ele>2096.281</ele>
        <time>2019-07-06T16:01:07Z</time>
      </trkpt>
      <trkpt lat="42.586134" lon="0.683438">
        <ele>2096.727</ele>
        <time>2019-07-06T16:01:12Z</time>
      </trkpt>
      <trkpt lat="42.586104" lon="0.683488">
        <ele>2096.368</ele>
        <time>2019-07-06T16:01:21Z</time>
      </trkpt>
      <trkpt lat="42.586071" lon="0.683550">
        <ele>2096.914</ele>
        <time>2019-07-06T16:01:26Z</time>
      </trkpt>
      <trkpt lat="42.586054" lon="0.683610">
        <ele>2096.708</ele>
        <time>2019-07-06T16:01:31Z</time>
      </trkpt>
      <trkpt lat="42.586042" lon="0.683682">
        <ele>2095.715</ele>
        <time>2019-07-06T16:01:36Z</time>
      </trkpt>
      <trkpt lat="42.586023" lon="0.683751">
        <ele>2095.780</ele>
        <time>2019-07-06T16:01:41Z</time>
      </trkpt>
      <trkpt lat="42.586000" lon="0.683812">
        <ele>2095.615</ele>
        <time>2019-07-06T16:01:46Z</time>
      </trkpt>
      <trkpt lat="42.585972" lon="0.683867">
        <ele>2097.060</ele>
        <time>2019-07-06T16:01:52Z</time>
      </trkpt>
      <trkpt lat="42.585939" lon="0.683909">
        <ele>2097.354</ele>
        <time>2019-07-06T16:01:57Z</time>
      </trkpt>
      <trkpt lat="42.585914" lon="0.683972">
        <ele>2096.130</ele>
        <time>2019-07-06T16:02:02Z</time>
      </trkpt>
      <trkpt lat="42.585899" lon="0.684041">
        <ele>2096.814</ele>
        <time>2019-07-06T16:02:08Z</time>
      </trkpt>
      <trkpt lat="42.585884" lon="0.684112">
        <ele>2097.526</ele>
        <time>2019-07-06T16:02:13Z</time>
      </trkpt>
      <trkpt lat="42.585869" lon="0.684180">
        <ele>2096.513</ele>
        <time>2019-07-06T16:02:18Z</time>
      </trkpt>
      <trkpt lat="42.585856" lon="0.684246">
        <ele>2096.543</ele>
        <time>2019-07-06T16:02:22Z</time>
      </trkpt>
      <trkpt lat="42.585848" lon="0.684319">
        <ele>2096.407</ele>
        <time>2019-07-06T16:02:29Z</time>
      </trkpt>
      <trkpt lat="42.585828" lon="0.684382">
        <ele>2095.208</ele>
        <time>2019-07-06T16:02:36Z</time>
      </trkpt>
      <trkpt lat="42.585790" lon="0.684423">
        <ele>2095.284</ele>
        <time>2019-07-06T16:02:40Z</time>
      </trkpt>
      <trkpt lat="42.585762" lon="0.684476">
        <ele>2095.759</ele>
        <time>2019-07-06T16:02:47Z</time>
      </trkpt>
      <trkpt lat="42.585755" lon="0.684541">
        <ele>2093.884</ele>
        <time>2019-07-06T16:02:53Z</time>
      </trkpt>
      <trkpt lat="42.585745" lon="0.684602">
        <ele>2094.059</ele>
        <time>2019-07-06T16:02:59Z</time>
      </trkpt>
      <trkpt lat="42.585730" lon="0.684671">
        <ele>2094.873</ele>
        <time>2019-07-06T16:03:07Z</time>
      </trkpt>
      <trkpt lat="42.585717" lon="0.684737">
        <ele>2093.739</ele>
        <time>2019-07-06T16:03:13Z</time>
      </trkpt>
      <trkpt lat="42.585698" lon="0.684810">
        <ele>2093.633</ele>
        <time>2019-07-06T16:03:19Z</time>
      </trkpt>
      <trkpt lat="42.585686" lon="0.684879">
        <ele>2094.685</ele>
        <time>2019-07-06T16:03:24Z</time>
      </trkpt>
      <trkpt lat="42.585672" lon="0.684947">
        <ele>2094.849</ele>
        <time>2019-07-06T16:03:29Z</time>
      </trkpt>
      <trkpt lat="42.585650" lon="0.685007">
        <ele>2094.102</ele>
        <time>2019-07-06T16:03:35Z</time>
      </trkpt>
      <trkpt lat="42.585617" lon="0.685058">
        <ele>2092.122</ele>
        <time>2019-07-06T16:03:42Z</time>
      </trkpt>
      <trkpt lat="42.585594" lon="0.685125">
        <ele>2093.908</ele>
        <time>2019-07-06T16:03:49Z</time>
      </trkpt>
      <trkpt lat="42.585582" lon="0.685188">
        <ele>2094.187</ele>
        <time>2019-07-06T16:03:56Z</time>
      </trkpt>
      <trkpt lat="42.585586" lon="0.685251">
        <ele>2095.432</ele>
        <time>2019-07-06T16:04:04Z</time>
      </trkpt>
      <trkpt lat="42.585596" lon="0.685311">
        <ele>2097.137</ele>
        <time>2019-07-06T16:04:12Z</time>
      </trkpt>
      <trkpt lat="42.585606" lon="0.685380">
        <ele>2097.642</ele>
        <time>2019-07-06T16:04:19Z</time>
      </trkpt>
      <trkpt lat="42.585604" lon="0.685448">
        <ele>2099.376</ele>
        <time>2019-07-06T16:04:25Z</time>
      </trkpt>
      <trkpt lat="42.585605" lon="0.685515">
        <ele>2101.952</ele>
        <time>2019-07-06T16:04:35Z</time>
      </trkpt>
      <trkpt lat="42.585605" lon="0.685580">
        <ele>2102.256</ele>
        <time>2019-07-06T16:04:42Z</time>
      </trkpt>
      <trkpt lat="42.585612" lon="0.685651">
        <ele>2102.748</ele>
        <time>2019-07-06T16:04:48Z</time>
      </trkpt>
      <trkpt lat="42.585619" lon="0.685712">
        <ele>2104.239</ele>
        <time>2019-07-06T16:04:59Z</time>
      </trkpt>
      <trkpt lat="42.585621" lon="0.685774">
        <ele>2104.701</ele>
        <time>2019-07-06T16:05:07Z</time>
      </trkpt>
      <trkpt lat="42.585621" lon="0.685838">
        <ele>2107.121</ele>
        <time>2019-07-06T16:05:19Z</time>
      </trkpt>
      <trkpt lat="42.585605" lon="0.685898">
        <ele>2108.408</ele>
        <time>2019-07-06T16:05:28Z</time>
      </trkpt>
      <trkpt lat="42.585595" lon="0.685960">
        <ele>2110.066</ele>
        <time>2019-07-06T16:05:43Z</time>
      </trkpt>
      <trkpt lat="42.585629" lon="0.686005">
        <ele>2112.431</ele>
        <time>2019-07-06T16:06:10Z</time>
      </trkpt>
      <trkpt lat="42.585638" lon="0.686067">
        <ele>2114.126</ele>
        <time>2019-07-06T16:06:19Z</time>
      </trkpt>
      <trkpt lat="42.585642" lon="0.686134">
        <ele>2113.441</ele>
        <time>2019-07-06T16:06:27Z</time>
      </trkpt>
      <trkpt lat="42.585642" lon="0.686196">
        <ele>2114.245</ele>
        <time>2019-07-06T16:06:33Z</time>
      </trkpt>
      <trkpt lat="42.585631" lon="0.686264">
        <ele>2113.051</ele>
        <time>2019-07-06T16:06:55Z</time>
      </trkpt>
      <trkpt lat="42.585619" lon="0.686325">
        <ele>2113.555</ele>
        <time>2019-07-06T16:07:01Z</time>
      </trkpt>
      <trkpt lat="42.585621" lon="0.686391">
        <ele>2115.557</ele>
        <time>2019-07-06T16:07:11Z</time>
      </trkpt>
      <trkpt lat="42.585622" lon="0.686458">
        <ele>2116.929</ele>
        <time>2019-07-06T16:07:19Z</time>
      </trkpt>
      <trkpt lat="42.585628" lon="0.686521">
        <ele>2117.700</ele>
        <time>2019-07-06T16:07:26Z</time>
      </trkpt>
      <trkpt lat="42.585636" lon="0.686589">
        <ele>2119.620</ele>
        <time>2019-07-06T16:07:34Z</time>
      </trkpt>
      <trkpt lat="42.585635" lon="0.686652">
        <ele>2120.108</ele>
        <time>2019-07-06T16:07:43Z</time>
      </trkpt>
      <trkpt lat="42.585646" lon="0.686712">
        <ele>2122.175</ele>
        <time>2019-07-06T16:07:52Z</time>
      </trkpt>
      <trkpt lat="42.585654" lon="0.686777">
        <ele>2123.590</ele>
        <time>2019-07-06T16:08:01Z</time>
      </trkpt>
      <trkpt lat="42.585659" lon="0.686839">
        <ele>2123.595</ele>
        <time>2019-07-06T16:08:06Z</time>
      </trkpt>
      <trkpt lat="42.585674" lon="0.686905">
        <ele>2124.170</ele>
        <time>2019-07-06T16:08:13Z</time>
      </trkpt>
      <trkpt lat="42.585673" lon="0.686970">
        <ele>2124.134</ele>
        <time>2019-07-06T16:08:20Z</time>
      </trkpt>
      <trkpt lat="42.585676" lon="0.687036">
        <ele>2123.690</ele>
        <time>2019-07-06T16:08:25Z</time>
      </trkpt>
      <trkpt lat="42.585659" lon="0.687102">
        <ele>2123.334</ele>
        <time>2019-07-06T16:08:34Z</time>
      </trkpt>
      <trkpt lat="42.585646" lon="0.687167">
        <ele>2122.956</ele>
        <time>2019-07-06T16:08:41Z</time>
      </trkpt>
      <trkpt lat="42.585628" lon="0.687227">
        <ele>2124.672</ele>
        <time>2019-07-06T16:08:49Z</time>
      </trkpt>
      <trkpt lat="42.585631" lon="0.687296">
        <ele>2127.213</ele>
        <time>2019-07-06T16:08:58Z</time>
      </trkpt>
      <trkpt lat="42.585664" lon="0.687340">
        <ele>2130.214</ele>
        <time>2019-07-06T16:09:12Z</time>
      </trkpt>
      <trkpt lat="42.585634" lon="0.687386">
        <ele>2132.308</ele>
        <time>2019-07-06T16:09:40Z</time>
      </trkpt>
      <trkpt lat="42.585665" lon="0.687446">
        <ele>2131.730</ele>
        <time>2019-07-06T16:10:35Z</time>
      </trkpt>
      <trkpt lat="42.585694" lon="0.687508">
        <ele>2132.655</ele>
        <time>2019-07-06T16:10:41Z</time>
      </trkpt>
      <trkpt lat="42.585729" lon="0.687553">
        <ele>2132.220</ele>
        <time>2019-07-06T16:10:48Z</time>
      </trkpt>
      <trkpt lat="42.585742" lon="0.687627">
        <ele>2130.875</ele>
        <time>2019-07-06T16:10:56Z</time>
      </trkpt>
      <trkpt lat="42.585753" lon="0.687688">
        <ele>2131.949</ele>
        <time>2019-07-06T16:11:01Z</time>
      </trkpt>
      <trkpt lat="42.585755" lon="0.687762">
        <ele>2133.865</ele>
        <time>2019-07-06T16:11:14Z</time>
      </trkpt>
      <trkpt lat="42.585779" lon="0.687821">
        <ele>2133.929</ele>
        <time>2019-07-06T16:11:18Z</time>
      </trkpt>
      <trkpt lat="42.585807" lon="0.687878">
        <ele>2134.871</ele>
        <time>2019-07-06T16:11:23Z</time>
      </trkpt>
      <trkpt lat="42.585813" lon="0.687940">
        <ele>2134.099</ele>
        <time>2019-07-06T16:11:34Z</time>
      </trkpt>
      <trkpt lat="42.585821" lon="0.688002">
        <ele>2134.307</ele>
        <time>2019-07-06T16:11:40Z</time>
      </trkpt>
      <trkpt lat="42.585801" lon="0.688060">
        <ele>2134.127</ele>
        <time>2019-07-06T16:11:45Z</time>
      </trkpt>
      <trkpt lat="42.585771" lon="0.688108">
        <ele>2134.508</ele>
        <time>2019-07-06T16:11:49Z</time>
      </trkpt>
      <trkpt lat="42.585737" lon="0.688160">
        <ele>2134.252</ele>
        <time>2019-07-06T16:11:53Z</time>
      </trkpt>
      <trkpt lat="42.585714" lon="0.688216">
        <ele>2134.277</ele>
        <time>2019-07-06T16:11:59Z</time>
      </trkpt>
      <trkpt lat="42.585682" lon="0.688269">
        <ele>2134.212</ele>
        <time>2019-07-06T16:12:05Z</time>
      </trkpt>
      <trkpt lat="42.585646" lon="0.688310">
        <ele>2134.397</ele>
        <time>2019-07-06T16:12:11Z</time>
      </trkpt>
      <trkpt lat="42.585612" lon="0.688355">
        <ele>2132.841</ele>
        <time>2019-07-06T16:12:17Z</time>
      </trkpt>
      <trkpt lat="42.585583" lon="0.688417">
        <ele>2132.947</ele>
        <time>2019-07-06T16:12:24Z</time>
      </trkpt>
      <trkpt lat="42.585564" lon="0.688476">
        <ele>2133.281</ele>
        <time>2019-07-06T16:12:28Z</time>
      </trkpt>
      <trkpt lat="42.585546" lon="0.688543">
        <ele>2133.953</ele>
        <time>2019-07-06T16:12:33Z</time>
      </trkpt>
      <trkpt lat="42.585538" lon="0.688603">
        <ele>2132.064</ele>
        <time>2019-07-06T16:12:39Z</time>
      </trkpt>
      <trkpt lat="42.585530" lon="0.688668">
        <ele>2131.806</ele>
        <time>2019-07-06T16:12:48Z</time>
      </trkpt>
      <trkpt lat="42.585523" lon="0.688731">
        <ele>2129.416</ele>
        <time>2019-07-06T16:12:58Z</time>
      </trkpt>
      <trkpt lat="42.585502" lon="0.688795">
        <ele>2131.408</ele>
        <time>2019-07-06T16:13:20Z</time>
      </trkpt>
      <trkpt lat="42.585481" lon="0.688851">
        <ele>2127.879</ele>
        <time>2019-07-06T16:13:28Z</time>
      </trkpt>
      <trkpt lat="42.585463" lon="0.688912">
        <ele>2128.354</ele>
        <time>2019-07-06T16:13:41Z</time>
      </trkpt>
      <trkpt lat="42.585456" lon="0.688980">
        <ele>2124.779</ele>
        <time>2019-07-06T16:13:46Z</time>
      </trkpt>
      <trkpt lat="42.585456" lon="0.689044">
        <ele>2122.134</ele>
        <time>2019-07-06T16:13:51Z</time>
      </trkpt>
      <trkpt lat="42.585489" lon="0.689093">
        <ele>2118.878</ele>
        <time>2019-07-06T16:14:00Z</time>
      </trkpt>
      <trkpt lat="42.585536" lon="0.689106">
        <ele>2117.924</ele>
        <time>2019-07-06T16:14:05Z</time>
      </trkpt>
      <trkpt lat="42.585525" lon="0.689174">
        <ele>2116.858</ele>
        <time>2019-07-06T16:14:20Z</time>
      </trkpt>
      <trkpt lat="42.585499" lon="0.689226">
        <ele>2111.790</ele>
        <time>2019-07-06T16:14:25Z</time>
      </trkpt>
      <trkpt lat="42.585473" lon="0.689278">
        <ele>2110.265</ele>
        <time>2019-07-06T16:14:29Z</time>
      </trkpt>
      <trkpt lat="42.585487" lon="0.689341">
        <ele>2108.268</ele>
        <time>2019-07-06T16:14:43Z</time>
      </trkpt>
      <trkpt lat="42.585478" lon="0.689410">
        <ele>2106.914</ele>
        <time>2019-07-06T16:14:52Z</time>
      </trkpt>
      <trkpt lat="42.585460" lon="0.689471">
        <ele>2106.808</ele>
        <time>2019-07-06T16:15:02Z</time>
      </trkpt>
      <trkpt lat="42.585456" lon="0.689534">
        <ele>2104.119</ele>
        <time>2019-07-06T16:15:11Z</time>
      </trkpt>
      <trkpt lat="42.585428" lon="0.689585">
        <ele>2101.234</ele>
        <time>2019-07-06T16:15:26Z</time>
      </trkpt>
      <trkpt lat="42.585400" lon="0.689635">
        <ele>2099.099</ele>
        <time>2019-07-06T16:15:34Z</time>
      </trkpt>
      <trkpt lat="42.585364" lon="0.689679">
        <ele>2100.114</ele>
        <time>2019-07-06T16:15:45Z</time>
      </trkpt>
      <trkpt lat="42.585354" lon="0.689743">
        <ele>2100.198</ele>
        <time>2019-07-06T16:15:50Z</time>
      </trkpt>
      <trkpt lat="42.585346" lon="0.689804">
        <ele>2101.074</ele>
        <time>2019-07-06T16:15:54Z</time>
      </trkpt>
      <trkpt lat="42.585334" lon="0.689864">
        <ele>2101.118</ele>
        <time>2019-07-06T16:15:59Z</time>
      </trkpt>
      <trkpt lat="42.585324" lon="0.689928">
        <ele>2100.830</ele>
        <time>2019-07-06T16:16:06Z</time>
      </trkpt>
      <trkpt lat="42.585307" lon="0.689992">
        <ele>2098.767</ele>
        <time>2019-07-06T16:16:15Z</time>
      </trkpt>
      <trkpt lat="42.585290" lon="0.690057">
        <ele>2097.381</ele>
        <time>2019-07-06T16:16:20Z</time>
      </trkpt>
      <trkpt lat="42.585287" lon="0.690122">
        <ele>2095.919</ele>
        <time>2019-07-06T16:16:26Z</time>
      </trkpt>
      <trkpt lat="42.585293" lon="0.690202">
        <ele>2094.708</ele>
        <time>2019-07-06T16:16:31Z</time>
      </trkpt>
      <trkpt lat="42.585297" lon="0.690272">
        <ele>2095.469</ele>
        <time>2019-07-06T16:16:38Z</time>
      </trkpt>
      <trkpt lat="42.585300" lon="0.690342">
        <ele>2096.744</ele>
        <time>2019-07-06T16:16:45Z</time>
      </trkpt>
      <trkpt lat="42.585297" lon="0.690403">
        <ele>2094.999</ele>
        <time>2019-07-06T16:16:50Z</time>
      </trkpt>
      <trkpt lat="42.585292" lon="0.690472">
        <ele>2095.124</ele>
        <time>2019-07-06T16:16:55Z</time>
      </trkpt>
      <trkpt lat="42.585284" lon="0.690543">
        <ele>2095.688</ele>
        <time>2019-07-06T16:16:59Z</time>
      </trkpt>
      <trkpt lat="42.585279" lon="0.690621">
        <ele>2095.624</ele>
        <time>2019-07-06T16:17:03Z</time>
      </trkpt>
      <trkpt lat="42.585278" lon="0.690688">
        <ele>2095.138</ele>
        <time>2019-07-06T16:17:07Z</time>
      </trkpt>
      <trkpt lat="42.585278" lon="0.690764">
        <ele>2096.980</ele>
        <time>2019-07-06T16:17:12Z</time>
      </trkpt>
      <trkpt lat="42.585261" lon="0.690823">
        <ele>2095.797</ele>
        <time>2019-07-06T16:17:19Z</time>
      </trkpt>
      <trkpt lat="42.585270" lon="0.690896">
        <ele>2095.723</ele>
        <time>2019-07-06T16:17:26Z</time>
      </trkpt>
      <trkpt lat="42.585291" lon="0.690961">
        <ele>2095.625</ele>
        <time>2019-07-06T16:17:31Z</time>
      </trkpt>
      <trkpt lat="42.585279" lon="0.691041">
        <ele>2096.708</ele>
        <time>2019-07-06T16:17:38Z</time>
      </trkpt>
      <trkpt lat="42.585261" lon="0.691103">
        <ele>2098.032</ele>
        <time>2019-07-06T16:17:48Z</time>
      </trkpt>
      <trkpt lat="42.585271" lon="0.691168">
        <ele>2099.217</ele>
        <time>2019-07-06T16:17:56Z</time>
      </trkpt>
      <trkpt lat="42.585277" lon="0.691238">
        <ele>2098.322</ele>
        <time>2019-07-06T16:18:01Z</time>
      </trkpt>
      <trkpt lat="42.585277" lon="0.691305">
        <ele>2098.067</ele>
        <time>2019-07-06T16:18:11Z</time>
      </trkpt>
      <trkpt lat="42.585271" lon="0.691367">
        <ele>2098.081</ele>
        <time>2019-07-06T16:18:17Z</time>
      </trkpt>
      <trkpt lat="42.585249" lon="0.691433">
        <ele>2098.257</ele>
        <time>2019-07-06T16:18:25Z</time>
      </trkpt>
      <trkpt lat="42.585226" lon="0.691486">
        <ele>2097.861</ele>
        <time>2019-07-06T16:18:29Z</time>
      </trkpt>
      <trkpt lat="42.585221" lon="0.691553">
        <ele>2097.363</ele>
        <time>2019-07-06T16:18:36Z</time>
      </trkpt>
      <trkpt lat="42.585199" lon="0.691617">
        <ele>2097.011</ele>
        <time>2019-07-06T16:18:42Z</time>
      </trkpt>
      <trkpt lat="42.585169" lon="0.691666">
        <ele>2095.721</ele>
        <time>2019-07-06T16:18:48Z</time>
      </trkpt>
      <trkpt lat="42.585150" lon="0.691735">
        <ele>2096.003</ele>
        <time>2019-07-06T16:18:53Z</time>
      </trkpt>
      <trkpt lat="42.585123" lon="0.691789">
        <ele>2095.408</ele>
        <time>2019-07-06T16:18:59Z</time>
      </trkpt>
      <trkpt lat="42.585100" lon="0.691851">
        <ele>2096.314</ele>
        <time>2019-07-06T16:19:06Z</time>
      </trkpt>
      <trkpt lat="42.585094" lon="0.691917">
        <ele>2096.769</ele>
        <time>2019-07-06T16:19:12Z</time>
      </trkpt>
      <trkpt lat="42.585074" lon="0.691979">
        <ele>2095.844</ele>
        <time>2019-07-06T16:19:18Z</time>
      </trkpt>
      <trkpt lat="42.585053" lon="0.692033">
        <ele>2094.559</ele>
        <time>2019-07-06T16:19:23Z</time>
      </trkpt>
      <trkpt lat="42.585017" lon="0.692077">
        <ele>2094.813</ele>
        <time>2019-07-06T16:19:31Z</time>
      </trkpt>
      <trkpt lat="42.585011" lon="0.692146">
        <ele>2093.959</ele>
        <time>2019-07-06T16:19:38Z</time>
      </trkpt>
      <trkpt lat="42.584994" lon="0.692206">
        <ele>2094.183</ele>
        <time>2019-07-06T16:19:45Z</time>
      </trkpt>
      <trkpt lat="42.584989" lon="0.692271">
        <ele>2096.075</ele>
        <time>2019-07-06T16:19:59Z</time>
      </trkpt>
      <trkpt lat="42.584969" lon="0.692330">
        <ele>2096.459</ele>
        <time>2019-07-06T16:20:09Z</time>
      </trkpt>
      <trkpt lat="42.584968" lon="0.692396">
        <ele>2095.903</ele>
        <time>2019-07-06T16:20:18Z</time>
      </trkpt>
      <trkpt lat="42.584939" lon="0.692444">
        <ele>2096.023</ele>
        <time>2019-07-06T16:20:26Z</time>
      </trkpt>
      <trkpt lat="42.584907" lon="0.692491">
        <ele>2096.408</ele>
        <time>2019-07-06T16:20:41Z</time>
      </trkpt>
      <trkpt lat="42.584908" lon="0.692559">
        <ele>2094.898</ele>
        <time>2019-07-06T16:20:46Z</time>
      </trkpt>
      <trkpt lat="42.584902" lon="0.692623">
        <ele>2095.493</ele>
        <time>2019-07-06T16:20:51Z</time>
      </trkpt>
      <trkpt lat="42.584888" lon="0.692687">
        <ele>2094.798</ele>
        <time>2019-07-06T16:20:56Z</time>
      </trkpt>
      <trkpt lat="42.584860" lon="0.692745">
        <ele>2091.513</ele>
        <time>2019-07-06T16:21:01Z</time>
      </trkpt>
      <trkpt lat="42.584823" lon="0.692802">
        <ele>2094.217</ele>
        <time>2019-07-06T16:21:06Z</time>
      </trkpt>
      <trkpt lat="42.584782" lon="0.692830">
        <ele>2094.513</ele>
        <time>2019-07-06T16:21:10Z</time>
      </trkpt>
      <trkpt lat="42.584736" lon="0.692867">
        <ele>2093.397</ele>
        <time>2019-07-06T16:21:16Z</time>
      </trkpt>
      <trkpt lat="42.584698" lon="0.692903">
        <ele>2092.889</ele>
        <time>2019-07-06T16:21:20Z</time>
      </trkpt>
      <trkpt lat="42.584665" lon="0.692952">
        <ele>2093.786</ele>
        <time>2019-07-06T16:21:26Z</time>
      </trkpt>
      <trkpt lat="42.584629" lon="0.692993">
        <ele>2093.260</ele>
        <time>2019-07-06T16:21:32Z</time>
      </trkpt>
      <trkpt lat="42.584618" lon="0.693056">
        <ele>2092.026</ele>
        <time>2019-07-06T16:21:50Z</time>
      </trkpt>
      <trkpt lat="42.584608" lon="0.693119">
        <ele>2092.808</ele>
        <time>2019-07-06T16:21:59Z</time>
      </trkpt>
      <trkpt lat="42.584597" lon="0.693179">
        <ele>2091.981</ele>
        <time>2019-07-06T16:22:06Z</time>
      </trkpt>
      <trkpt lat="42.584586" lon="0.693244">
        <ele>2090.946</ele>
        <time>2019-07-06T16:22:15Z</time>
      </trkpt>
      <trkpt lat="42.584548" lon="0.693283">
        <ele>2090.191</ele>
        <time>2019-07-06T16:22:20Z</time>
      </trkpt>
      <trkpt lat="42.584522" lon="0.693333">
        <ele>2090.126</ele>
        <time>2019-07-06T16:22:24Z</time>
      </trkpt>
      <trkpt lat="42.584492" lon="0.693389">
        <ele>2090.710</ele>
        <time>2019-07-06T16:22:30Z</time>
      </trkpt>
      <trkpt lat="42.584490" lon="0.693454">
        <ele>2089.716</ele>
        <time>2019-07-06T16:22:39Z</time>
      </trkpt>
      <trkpt lat="42.584500" lon="0.693515">
        <ele>2090.260</ele>
        <time>2019-07-06T16:22:49Z</time>
      </trkpt>
      <trkpt lat="42.584489" lon="0.693576">
        <ele>2090.252</ele>
        <time>2019-07-06T16:22:58Z</time>
      </trkpt>
      <trkpt lat="42.584458" lon="0.693626">
        <ele>2089.582</ele>
        <time>2019-07-06T16:23:02Z</time>
      </trkpt>
      <trkpt lat="42.584442" lon="0.693683">
        <ele>2090.143</ele>
        <time>2019-07-06T16:23:09Z</time>
      </trkpt>
      <trkpt lat="42.584441" lon="0.693750">
        <ele>2089.717</ele>
        <time>2019-07-06T16:23:16Z</time>
      </trkpt>
      <trkpt lat="42.584443" lon="0.693820">
        <ele>2088.908</ele>
        <time>2019-07-06T16:23:22Z</time>
      </trkpt>
      <trkpt lat="42.584448" lon="0.693888">
        <ele>2087.461</ele>
        <time>2019-07-06T16:23:26Z</time>
      </trkpt>
      <trkpt lat="42.584461" lon="0.693955">
        <ele>2087.616</ele>
        <time>2019-07-06T16:23:31Z</time>
      </trkpt>
      <trkpt lat="42.584474" lon="0.694024">
        <ele>2088.481</ele>
        <time>2019-07-06T16:23:35Z</time>
      </trkpt>
      <trkpt lat="42.584478" lon="0.694091">
        <ele>2087.656</ele>
        <time>2019-07-06T16:23:41Z</time>
      </trkpt>
      <trkpt lat="42.584488" lon="0.694157">
        <ele>2088.090</ele>
        <time>2019-07-06T16:23:47Z</time>
      </trkpt>
      <trkpt lat="42.584497" lon="0.694220">
        <ele>2087.866</ele>
        <time>2019-07-06T16:23:52Z</time>
      </trkpt>
      <trkpt lat="42.584503" lon="0.694285">
        <ele>2088.580</ele>
        <time>2019-07-06T16:23:56Z</time>
      </trkpt>
      <trkpt lat="42.584504" lon="0.694356">
        <ele>2087.532</ele>
        <time>2019-07-06T16:24:01Z</time>
      </trkpt>
      <trkpt lat="42.584493" lon="0.694419">
        <ele>2088.174</ele>
        <time>2019-07-06T16:24:05Z</time>
      </trkpt>
      <trkpt lat="42.584459" lon="0.694474">
        <ele>2087.156</ele>
        <time>2019-07-06T16:24:10Z</time>
      </trkpt>
      <trkpt lat="42.584439" lon="0.694532">
        <ele>2087.421</ele>
        <time>2019-07-06T16:24:14Z</time>
      </trkpt>
      <trkpt lat="42.584424" lon="0.694604">
        <ele>2087.308</ele>
        <time>2019-07-06T16:24:19Z</time>
      </trkpt>
      <trkpt lat="42.584410" lon="0.694665">
        <ele>2087.540</ele>
        <time>2019-07-06T16:24:23Z</time>
      </trkpt>
      <trkpt lat="42.584408" lon="0.694732">
        <ele>2087.025</ele>
        <time>2019-07-06T16:24:27Z</time>
      </trkpt>
      <trkpt lat="42.584398" lon="0.694801">
        <ele>2088.050</ele>
        <time>2019-07-06T16:24:33Z</time>
      </trkpt>
      <trkpt lat="42.584383" lon="0.694867">
        <ele>2089.095</ele>
        <time>2019-07-06T16:24:41Z</time>
      </trkpt>
      <trkpt lat="42.584358" lon="0.694931">
        <ele>2089.029</ele>
        <time>2019-07-06T16:24:46Z</time>
      </trkpt>
      <trkpt lat="42.584331" lon="0.694988">
        <ele>2087.635</ele>
        <time>2019-07-06T16:24:51Z</time>
      </trkpt>
      <trkpt lat="42.584302" lon="0.695042">
        <ele>2086.749</ele>
        <time>2019-07-06T16:24:56Z</time>
      </trkpt>
      <trkpt lat="42.584278" lon="0.695105">
        <ele>2086.921</ele>
        <time>2019-07-06T16:25:01Z</time>
      </trkpt>
      <trkpt lat="42.584265" lon="0.695172">
        <ele>2086.578</ele>
        <time>2019-07-06T16:25:06Z</time>
      </trkpt>
      <trkpt lat="42.584237" lon="0.695225">
        <ele>2086.133</ele>
        <time>2019-07-06T16:25:10Z</time>
      </trkpt>
      <trkpt lat="42.584214" lon="0.695279">
        <ele>2084.726</ele>
        <time>2019-07-06T16:25:15Z</time>
      </trkpt>
      <trkpt lat="42.584184" lon="0.695326">
        <ele>2085.708</ele>
        <time>2019-07-06T16:25:20Z</time>
      </trkpt>
      <trkpt lat="42.584164" lon="0.695382">
        <ele>2085.050</ele>
        <time>2019-07-06T16:25:24Z</time>
      </trkpt>
      <trkpt lat="42.584135" lon="0.695445">
        <ele>2085.275</ele>
        <time>2019-07-06T16:25:28Z</time>
      </trkpt>
      <trkpt lat="42.584113" lon="0.695506">
        <ele>2085.120</ele>
        <time>2019-07-06T16:25:33Z</time>
      </trkpt>
      <trkpt lat="42.584089" lon="0.695563">
        <ele>2085.455</ele>
        <time>2019-07-06T16:25:45Z</time>
      </trkpt>
      <trkpt lat="42.584065" lon="0.695617">
        <ele>2085.469</ele>
        <time>2019-07-06T16:25:49Z</time>
      </trkpt>
      <trkpt lat="42.584051" lon="0.695685">
        <ele>2085.265</ele>
        <time>2019-07-06T16:25:54Z</time>
      </trkpt>
      <trkpt lat="42.584023" lon="0.695741">
        <ele>2086.669</ele>
        <time>2019-07-06T16:25:58Z</time>
      </trkpt>
      <trkpt lat="42.583974" lon="0.695781">
        <ele>2088.141</ele>
        <time>2019-07-06T16:26:02Z</time>
      </trkpt>
      <trkpt lat="42.583933" lon="0.695814">
        <ele>2089.765</ele>
        <time>2019-07-06T16:26:07Z</time>
      </trkpt>
      <trkpt lat="42.583908" lon="0.695870">
        <ele>2089.868</ele>
        <time>2019-07-06T16:26:12Z</time>
      </trkpt>
      <trkpt lat="42.583879" lon="0.695917">
        <ele>2090.114</ele>
        <time>2019-07-06T16:26:22Z</time>
      </trkpt>
      <trkpt lat="42.583856" lon="0.695971">
        <ele>2090.908</ele>
        <time>2019-07-06T16:26:31Z</time>
      </trkpt>
      <trkpt lat="42.583829" lon="0.696024">
        <ele>2090.829</ele>
        <time>2019-07-06T16:26:38Z</time>
      </trkpt>
      <trkpt lat="42.583791" lon="0.696062">
        <ele>2092.094</ele>
        <time>2019-07-06T16:26:45Z</time>
      </trkpt>
      <trkpt lat="42.583757" lon="0.696104">
        <ele>2094.319</ele>
        <time>2019-07-06T16:26:52Z</time>
      </trkpt>
      <trkpt lat="42.583711" lon="0.696123">
        <ele>2094.764</ele>
        <time>2019-07-06T16:26:58Z</time>
      </trkpt>
      <trkpt lat="42.583667" lon="0.696143">
        <ele>2094.268</ele>
        <time>2019-07-06T16:27:05Z</time>
      </trkpt>
      <trkpt lat="42.583620" lon="0.696156">
        <ele>2092.934</ele>
        <time>2019-07-06T16:27:11Z</time>
      </trkpt>
      <trkpt lat="42.583581" lon="0.696196">
        <ele>2094.948</ele>
        <time>2019-07-06T16:27:19Z</time>
      </trkpt>
      <trkpt lat="42.583542" lon="0.696227">
        <ele>2094.420</ele>
        <time>2019-07-06T16:27:36Z</time>
      </trkpt>
      <trkpt lat="42.583495" lon="0.696252">
        <ele>2095.562</ele>
        <time>2019-07-06T16:27:43Z</time>
      </trkpt>
      <trkpt lat="42.583451" lon="0.696288">
        <ele>2096.283</ele>
        <time>2019-07-06T16:27:48Z</time>
      </trkpt>
      <trkpt lat="42.583412" lon="0.696331">
        <ele>2096.111</ele>
        <time>2019-07-06T16:27:51Z</time>
      </trkpt>
      <trkpt lat="42.583379" lon="0.696380">
        <ele>2095.708</ele>
        <time>2019-07-06T16:27:55Z</time>
      </trkpt>
      <trkpt lat="42.583328" lon="0.696419">
        <ele>2096.359</ele>
        <time>2019-07-06T16:28:00Z</time>
      </trkpt>
      <trkpt lat="42.583282" lon="0.696439">
        <ele>2095.974</ele>
        <time>2019-07-06T16:28:04Z</time>
      </trkpt>
      <trkpt lat="42.583245" lon="0.696478">
        <ele>2096.429</ele>
        <time>2019-07-06T16:28:08Z</time>
      </trkpt>
      <trkpt lat="42.583210" lon="0.696524">
        <ele>2097.214</ele>
        <time>2019-07-06T16:28:13Z</time>
      </trkpt>
      <trkpt lat="42.583171" lon="0.696557">
        <ele>2098.088</ele>
        <time>2019-07-06T16:28:20Z</time>
      </trkpt>
      <trkpt lat="42.583125" lon="0.696548">
        <ele>2098.044</ele>
        <time>2019-07-06T16:28:27Z</time>
      </trkpt>
      <trkpt lat="42.583087" lon="0.696515">
        <ele>2099.368</ele>
        <time>2019-07-06T16:28:33Z</time>
      </trkpt>
      <trkpt lat="42.583041" lon="0.696514">
        <ele>2099.890</ele>
        <time>2019-07-06T16:28:36Z</time>
      </trkpt>
      <trkpt lat="42.582989" lon="0.696514">
        <ele>2099.428</ele>
        <time>2019-07-06T16:28:39Z</time>
      </trkpt>
      <trkpt lat="42.582937" lon="0.696506">
        <ele>2099.289</ele>
        <time>2019-07-06T16:28:43Z</time>
      </trkpt>
      <trkpt lat="42.582882" lon="0.696492">
        <ele>2098.617</ele>
        <time>2019-07-06T16:28:48Z</time>
      </trkpt>
      <trkpt lat="42.582837" lon="0.696464">
        <ele>2099.608</ele>
        <time>2019-07-06T16:28:52Z</time>
      </trkpt>
      <trkpt lat="42.582793" lon="0.696421">
        <ele>2101.825</ele>
        <time>2019-07-06T16:28:57Z</time>
      </trkpt>
      <trkpt lat="42.582750" lon="0.696396">
        <ele>2101.870</ele>
        <time>2019-07-06T16:29:01Z</time>
      </trkpt>
      <trkpt lat="42.582706" lon="0.696377">
        <ele>2101.185</ele>
        <time>2019-07-06T16:30:15Z</time>
      </trkpt>
      <trkpt lat="42.582659" lon="0.696364">
        <ele>2102.730</ele>
        <time>2019-07-06T16:31:09Z</time>
      </trkpt>
      <trkpt lat="42.582648" lon="0.696304">
        <ele>2101.094</ele>
        <time>2019-07-06T16:31:39Z</time>
      </trkpt>
      <trkpt lat="42.582599" lon="0.696272">
        <ele>2101.030</ele>
        <time>2019-07-06T16:31:44Z</time>
      </trkpt>
      <trkpt lat="42.582548" lon="0.696269">
        <ele>2101.924</ele>
        <time>2019-07-06T16:31:48Z</time>
      </trkpt>
      <trkpt lat="42.582501" lon="0.696288">
        <ele>2101.876</ele>
        <time>2019-07-06T16:31:53Z</time>
      </trkpt>
      <trkpt lat="42.582461" lon="0.696326">
        <ele>2101.349</ele>
        <time>2019-07-06T16:31:59Z</time>
      </trkpt>
      <trkpt lat="42.581974" lon="0.696610">
        <ele>2095.502</ele>
        <time>2019-07-06T16:33:13Z</time>
      </trkpt>
      <trkpt lat="42.581934" lon="0.696572">
        <ele>2095.722</ele>
        <time>2019-07-06T16:33:19Z</time>
      </trkpt>
      <trkpt lat="42.581890" lon="0.696549">
        <ele>2094.708</ele>
        <time>2019-07-06T16:33:23Z</time>
      </trkpt>
      <trkpt lat="42.581835" lon="0.696522">
        <ele>2093.267</ele>
        <time>2019-07-06T16:33:27Z</time>
      </trkpt>
      <trkpt lat="42.581789" lon="0.696512">
        <ele>2093.182</ele>
        <time>2019-07-06T16:33:31Z</time>
      </trkpt>
      <trkpt lat="42.581743" lon="0.696513">
        <ele>2092.997</ele>
        <time>2019-07-06T16:33:39Z</time>
      </trkpt>
      <trkpt lat="42.581730" lon="0.696454">
        <ele>2093.442</ele>
        <time>2019-07-06T16:35:14Z</time>
      </trkpt>
      <trkpt lat="42.581782" lon="0.696473">
        <ele>2094.456</ele>
        <time>2019-07-06T16:36:10Z</time>
      </trkpt>
      <trkpt lat="42.581736" lon="0.696468">
        <ele>2092.542</ele>
        <time>2019-07-06T16:36:24Z</time>
      </trkpt>
      <trkpt lat="42.581683" lon="0.696460">
        <ele>2091.816</ele>
        <time>2019-07-06T16:36:33Z</time>
      </trkpt>
      <trkpt lat="42.581634" lon="0.696450">
        <ele>2091.558</ele>
        <time>2019-07-06T16:36:38Z</time>
      </trkpt>
      <trkpt lat="42.581581" lon="0.696439">
        <ele>2092.669</ele>
        <time>2019-07-06T16:36:51Z</time>
      </trkpt>
      <trkpt lat="42.581536" lon="0.696436">
        <ele>2092.104</ele>
        <time>2019-07-06T16:36:54Z</time>
      </trkpt>
      <trkpt lat="42.581488" lon="0.696429">
        <ele>2092.124</ele>
        <time>2019-07-06T16:36:57Z</time>
      </trkpt>
      <trkpt lat="42.581443" lon="0.696424">
        <ele>2091.708</ele>
        <time>2019-07-06T16:37:00Z</time>
      </trkpt>
      <trkpt lat="42.581392" lon="0.696423">
        <ele>2091.239</ele>
        <time>2019-07-06T16:37:04Z</time>
      </trkpt>
      <trkpt lat="42.581343" lon="0.696423">
        <ele>2091.014</ele>
        <time>2019-07-06T16:37:10Z</time>
      </trkpt>
      <trkpt lat="42.581295" lon="0.696393">
        <ele>2090.889</ele>
        <time>2019-07-06T16:37:15Z</time>
      </trkpt>
      <trkpt lat="42.581252" lon="0.696366">
        <ele>2091.284</ele>
        <time>2019-07-06T16:37:22Z</time>
      </trkpt>
      <trkpt lat="42.581207" lon="0.696362">
        <ele>2090.668</ele>
        <time>2019-07-06T16:37:39Z</time>
      </trkpt>
      <trkpt lat="42.581248" lon="0.696318">
        <ele>2090.974</ele>
        <time>2019-07-06T16:37:44Z</time>
      </trkpt>
      <trkpt lat="42.581299" lon="0.696292">
        <ele>2091.188</ele>
        <time>2019-07-06T16:37:48Z</time>
      </trkpt>
      <trkpt lat="42.581362" lon="0.696288">
        <ele>2091.520</ele>
        <time>2019-07-06T16:37:51Z</time>
      </trkpt>
      <trkpt lat="42.581425" lon="0.696284">
        <ele>2091.458</ele>
        <time>2019-07-06T16:37:54Z</time>
      </trkpt>
      <trkpt lat="42.581477" lon="0.696271">
        <ele>2091.652</ele>
        <time>2019-07-06T16:37:57Z</time>
      </trkpt>
      <trkpt lat="42.581528" lon="0.696237">
        <ele>2091.917</ele>
        <time>2019-07-06T16:38:01Z</time>
      </trkpt>
      <trkpt lat="42.581582" lon="0.696205">
        <ele>2091.508</ele>
        <time>2019-07-06T16:38:05Z</time>
      </trkpt>
      <trkpt lat="42.581634" lon="0.696184">
        <ele>2091.528</ele>
        <time>2019-07-06T16:38:08Z</time>
      </trkpt>
      <trkpt lat="42.581684" lon="0.696175">
        <ele>2091.363</ele>
        <time>2019-07-06T16:38:11Z</time>
      </trkpt>
      <trkpt lat="42.581729" lon="0.696166">
        <ele>2091.028</ele>
        <time>2019-07-06T16:38:14Z</time>
      </trkpt>
      <trkpt lat="42.581771" lon="0.696188">
        <ele>2090.323</ele>
        <time>2019-07-06T16:38:19Z</time>
      </trkpt>
      <trkpt lat="42.581812" lon="0.696156">
        <ele>2090.487</ele>
        <time>2019-07-06T16:38:29Z</time>
      </trkpt>
      <trkpt lat="42.581822" lon="0.696095">
        <ele>2090.763</ele>
        <time>2019-07-06T16:38:37Z</time>
      </trkpt>
      <trkpt lat="42.581850" lon="0.696045">
        <ele>2090.717</ele>
        <time>2019-07-06T16:39:56Z</time>
      </trkpt>
      <trkpt lat="42.581834" lon="0.696104">
        <ele>2088.639</ele>
        <time>2019-07-06T16:40:45Z</time>
      </trkpt>
      <trkpt lat="42.581808" lon="0.696158">
        <ele>2089.722</ele>
        <time>2019-07-06T16:41:27Z</time>
      </trkpt>
      <trkpt lat="42.581768" lon="0.696113">
        <ele>2093.062</ele>
        <time>2019-07-06T16:42:40Z</time>
      </trkpt>
      <trkpt lat="42.581723" lon="0.696089">
        <ele>2093.208</ele>
        <time>2019-07-06T16:42:43Z</time>
      </trkpt>
      <trkpt lat="42.581676" lon="0.696083">
        <ele>2093.308</ele>
        <time>2019-07-06T16:43:07Z</time>
      </trkpt>
      <trkpt lat="42.581724" lon="0.696097">
        <ele>2092.655</ele>
        <time>2019-07-06T16:43:23Z</time>
      </trkpt>
      <trkpt lat="42.581772" lon="0.696113">
        <ele>2092.870</ele>
        <time>2019-07-06T16:43:43Z</time>
      </trkpt>
      <trkpt lat="42.581815" lon="0.696091">
        <ele>2094.355</ele>
        <time>2019-07-06T16:44:27Z</time>
      </trkpt>
      <trkpt lat="42.581782" lon="0.696136">
        <ele>2093.480</ele>
        <time>2019-07-06T16:45:22Z</time>
      </trkpt>
      <trkpt lat="42.581730" lon="0.696123">
        <ele>2090.164</ele>
        <time>2019-07-06T16:45:56Z</time>
      </trkpt>
      <trkpt lat="42.581772" lon="0.696095">
        <ele>2091.890</ele>
        <time>2019-07-06T16:46:35Z</time>
      </trkpt>
      <trkpt lat="42.581812" lon="0.696123">
        <ele>2090.884</ele>
        <time>2019-07-06T16:47:17Z</time>
      </trkpt>
      <trkpt lat="42.581766" lon="0.696110">
        <ele>2092.046</ele>
        <time>2019-07-06T16:48:42Z</time>
      </trkpt>
      <trkpt lat="42.581754" lon="0.696049">
        <ele>2090.594</ele>
        <time>2019-07-06T16:49:19Z</time>
      </trkpt>
      <trkpt lat="42.581793" lon="0.696019">
        <ele>2093.057</ele>
        <time>2019-07-06T16:51:22Z</time>
      </trkpt>
      <trkpt lat="42.581746" lon="0.696044">
        <ele>2090.422</ele>
        <time>2019-07-06T16:51:59Z</time>
      </trkpt>
      <trkpt lat="42.581778" lon="0.695986">
        <ele>2090.508</ele>
        <time>2019-07-06T16:52:16Z</time>
      </trkpt>
      <trkpt lat="42.581827" lon="0.695963">
        <ele>2090.332</ele>
        <time>2019-07-06T16:52:20Z</time>
      </trkpt>
      <trkpt lat="42.581870" lon="0.695986">
        <ele>2091.337</ele>
        <time>2019-07-06T16:52:28Z</time>
      </trkpt>
      <trkpt lat="42.581829" lon="0.696032">
        <ele>2091.522</ele>
        <time>2019-07-06T16:52:40Z</time>
      </trkpt>
      <trkpt lat="42.581826" lon="0.696103">
        <ele>2090.837</ele>
        <time>2019-07-06T16:52:48Z</time>
      </trkpt>
    </trkseg>
  </trk>
</gpx>
